<?xml version="1.0" encoding="UTF-8" standalone="no" ?>
<gpx xmlns="http://www.topografix.com/GPX/1/1" xmlns:xsi="http://www.w3.org/2001/XMLSchema-instance" xsi:schemaLocation="http://www.topografix.com/GPX/1/1 http://www.topografix.com/GPX/1/1/gpx.xsd" version="1.1" creator="VisuGPX - https://www.visugpx.com">
  <metadata>
    <name>randonnée VTT Nancy-Richardmenil 06/07/2013</name>
    <desc><![CDATA[randonnée VTT de Nancy à Richardmenil]]></desc>
  </metadata>
  <trk>
    <name><![CDATA[20 juillet 2013]]></name>
    <trkseg>
      <trkpt lat="48.6853" lon="6.15982">
        <ele>228</ele>
        <time>2013-07-20T10:14:04Z</time>
      </trkpt>
      <trkpt lat="48.6851" lon="6.16006">
        <ele>220</ele>
        <time>2013-07-20T10:15:16Z</time>
      </trkpt>
      <trkpt lat="48.68508" lon="6.16009">
        <ele>225</ele>
        <time>2013-07-20T10:15:25Z</time>
      </trkpt>
      <trkpt lat="48.68507" lon="6.16018">
        <ele>224</ele>
        <time>2013-07-20T10:15:26Z</time>
      </trkpt>
      <trkpt lat="48.68502" lon="6.16026">
        <ele>225</ele>
        <time>2013-07-20T10:15:28Z</time>
      </trkpt>
      <trkpt lat="48.68499" lon="6.16037">
        <ele>225</ele>
        <time>2013-07-20T10:15:31Z</time>
      </trkpt>
      <trkpt lat="48.68499" lon="6.16049">
        <ele>225</ele>
        <time>2013-07-20T10:15:32Z</time>
      </trkpt>
      <trkpt lat="48.68499" lon="6.16062">
        <ele>224</ele>
        <time>2013-07-20T10:15:35Z</time>
      </trkpt>
      <trkpt lat="48.685" lon="6.16072">
        <ele>226</ele>
        <time>2013-07-20T10:15:36Z</time>
      </trkpt>
      <trkpt lat="48.68503" lon="6.16081">
        <ele>227</ele>
        <time>2013-07-20T10:15:38Z</time>
      </trkpt>
      <trkpt lat="48.68508" lon="6.16089">
        <ele>227</ele>
        <time>2013-07-20T10:15:41Z</time>
      </trkpt>
      <trkpt lat="48.68513" lon="6.16098">
        <ele>227</ele>
        <time>2013-07-20T10:15:43Z</time>
      </trkpt>
      <trkpt lat="48.68517" lon="6.16103">
        <ele>227</ele>
        <time>2013-07-20T10:15:44Z</time>
      </trkpt>
      <trkpt lat="48.68518" lon="6.16108">
        <ele>225</ele>
        <time>2013-07-20T10:15:46Z</time>
      </trkpt>
      <trkpt lat="48.6852" lon="6.16109">
        <ele>225</ele>
        <time>2013-07-20T10:15:48Z</time>
      </trkpt>
      <trkpt lat="48.68518" lon="6.16111">
        <ele>226</ele>
        <time>2013-07-20T10:15:51Z</time>
      </trkpt>
      <trkpt lat="48.68515" lon="6.16116">
        <ele>229</ele>
        <time>2013-07-20T10:15:53Z</time>
      </trkpt>
      <trkpt lat="48.6851" lon="6.16121">
        <ele>231</ele>
        <time>2013-07-20T10:15:55Z</time>
      </trkpt>
      <trkpt lat="48.68504" lon="6.16126">
        <ele>236</ele>
        <time>2013-07-20T10:15:56Z</time>
      </trkpt>
      <trkpt lat="48.68499" lon="6.16132">
        <ele>239</ele>
        <time>2013-07-20T10:15:58Z</time>
      </trkpt>
      <trkpt lat="48.68493" lon="6.16139">
        <ele>237</ele>
        <time>2013-07-20T10:16:01Z</time>
      </trkpt>
      <trkpt lat="48.68485" lon="6.16141">
        <ele>238</ele>
        <time>2013-07-20T10:16:02Z</time>
      </trkpt>
      <trkpt lat="48.68478" lon="6.16143">
        <ele>242</ele>
        <time>2013-07-20T10:16:05Z</time>
      </trkpt>
      <trkpt lat="48.68473" lon="6.16145">
        <ele>241</ele>
        <time>2013-07-20T10:16:06Z</time>
      </trkpt>
      <trkpt lat="48.68467" lon="6.16148">
        <ele>240</ele>
        <time>2013-07-20T10:16:08Z</time>
      </trkpt>
      <trkpt lat="48.68459" lon="6.16148">
        <ele>243</ele>
        <time>2013-07-20T10:16:10Z</time>
      </trkpt>
      <trkpt lat="48.6845" lon="6.16149">
        <ele>246</ele>
        <time>2013-07-20T10:16:12Z</time>
      </trkpt>
      <trkpt lat="48.68442" lon="6.16151">
        <ele>247</ele>
        <time>2013-07-20T10:16:14Z</time>
      </trkpt>
      <trkpt lat="48.68433" lon="6.16154">
        <ele>250</ele>
        <time>2013-07-20T10:16:16Z</time>
      </trkpt>
      <trkpt lat="48.68422" lon="6.16155">
        <ele>251</ele>
        <time>2013-07-20T10:16:18Z</time>
      </trkpt>
      <trkpt lat="48.68411" lon="6.16156">
        <ele>250</ele>
        <time>2013-07-20T10:16:21Z</time>
      </trkpt>
      <trkpt lat="48.68404" lon="6.16159">
        <ele>252</ele>
        <time>2013-07-20T10:16:22Z</time>
      </trkpt>
      <trkpt lat="48.68397" lon="6.16163">
        <ele>252</ele>
        <time>2013-07-20T10:16:24Z</time>
      </trkpt>
      <trkpt lat="48.68391" lon="6.16164">
        <ele>252</ele>
        <time>2013-07-20T10:16:26Z</time>
      </trkpt>
      <trkpt lat="48.68385" lon="6.16166">
        <ele>250</ele>
        <time>2013-07-20T10:16:28Z</time>
      </trkpt>
      <trkpt lat="48.6838" lon="6.1617">
        <ele>240</ele>
        <time>2013-07-20T10:16:31Z</time>
      </trkpt>
      <trkpt lat="48.68378" lon="6.16173">
        <ele>230</ele>
        <time>2013-07-20T10:16:32Z</time>
      </trkpt>
      <trkpt lat="48.68375" lon="6.16176">
        <ele>226</ele>
        <time>2013-07-20T10:16:34Z</time>
      </trkpt>
      <trkpt lat="48.68369" lon="6.16179">
        <ele>226</ele>
        <time>2013-07-20T10:16:36Z</time>
      </trkpt>
      <trkpt lat="48.68363" lon="6.16183">
        <ele>227</ele>
        <time>2013-07-20T10:16:39Z</time>
      </trkpt>
      <trkpt lat="48.68357" lon="6.16188">
        <ele>228</ele>
        <time>2013-07-20T10:16:40Z</time>
      </trkpt>
      <trkpt lat="48.68351" lon="6.16191">
        <ele>229</ele>
        <time>2013-07-20T10:16:42Z</time>
      </trkpt>
      <trkpt lat="48.68343" lon="6.16195">
        <ele>229</ele>
        <time>2013-07-20T10:16:44Z</time>
      </trkpt>
      <trkpt lat="48.68337" lon="6.16199">
        <ele>229</ele>
        <time>2013-07-20T10:16:46Z</time>
      </trkpt>
      <trkpt lat="48.6833" lon="6.16202">
        <ele>229</ele>
        <time>2013-07-20T10:16:48Z</time>
      </trkpt>
      <trkpt lat="48.68323" lon="6.16206">
        <ele>226</ele>
        <time>2013-07-20T10:16:51Z</time>
      </trkpt>
      <trkpt lat="48.68317" lon="6.16208">
        <ele>218</ele>
        <time>2013-07-20T10:16:52Z</time>
      </trkpt>
      <trkpt lat="48.68312" lon="6.16209">
        <ele>223</ele>
        <time>2013-07-20T10:16:54Z</time>
      </trkpt>
      <trkpt lat="48.68308" lon="6.16211">
        <ele>227</ele>
        <time>2013-07-20T10:16:56Z</time>
      </trkpt>
      <trkpt lat="48.68302" lon="6.16213">
        <ele>228</ele>
        <time>2013-07-20T10:16:59Z</time>
      </trkpt>
      <trkpt lat="48.68297" lon="6.16216">
        <ele>229</ele>
        <time>2013-07-20T10:17:00Z</time>
      </trkpt>
      <trkpt lat="48.68292" lon="6.16218">
        <ele>236</ele>
        <time>2013-07-20T10:17:03Z</time>
      </trkpt>
      <trkpt lat="48.68286" lon="6.1622">
        <ele>229</ele>
        <time>2013-07-20T10:17:05Z</time>
      </trkpt>
      <trkpt lat="48.68282" lon="6.16221">
        <ele>241</ele>
        <time>2013-07-20T10:17:06Z</time>
      </trkpt>
      <trkpt lat="48.68277" lon="6.16224">
        <ele>239</ele>
        <time>2013-07-20T10:17:08Z</time>
      </trkpt>
      <trkpt lat="48.68272" lon="6.16229">
        <ele>236</ele>
        <time>2013-07-20T10:17:11Z</time>
      </trkpt>
      <trkpt lat="48.68267" lon="6.1623">
        <ele>237</ele>
        <time>2013-07-20T10:17:13Z</time>
      </trkpt>
      <trkpt lat="48.68261" lon="6.16232">
        <ele>237</ele>
        <time>2013-07-20T10:17:15Z</time>
      </trkpt>
      <trkpt lat="48.68255" lon="6.16233">
        <ele>238</ele>
        <time>2013-07-20T10:17:16Z</time>
      </trkpt>
      <trkpt lat="48.6825" lon="6.16233">
        <ele>239</ele>
        <time>2013-07-20T10:17:18Z</time>
      </trkpt>
      <trkpt lat="48.68245" lon="6.16233">
        <ele>239</ele>
        <time>2013-07-20T10:17:21Z</time>
      </trkpt>
      <trkpt lat="48.68241" lon="6.16233">
        <ele>241</ele>
        <time>2013-07-20T10:17:23Z</time>
      </trkpt>
      <trkpt lat="48.68237" lon="6.16233">
        <ele>242</ele>
        <time>2013-07-20T10:17:25Z</time>
      </trkpt>
      <trkpt lat="48.68234" lon="6.16234">
        <ele>245</ele>
        <time>2013-07-20T10:17:26Z</time>
      </trkpt>
      <trkpt lat="48.68231" lon="6.16234">
        <ele>247</ele>
        <time>2013-07-20T10:17:28Z</time>
      </trkpt>
      <trkpt lat="48.68227" lon="6.16236">
        <ele>248</ele>
        <time>2013-07-20T10:17:31Z</time>
      </trkpt>
      <trkpt lat="48.68222" lon="6.16237">
        <ele>248</ele>
        <time>2013-07-20T10:17:32Z</time>
      </trkpt>
      <trkpt lat="48.68216" lon="6.16239">
        <ele>254</ele>
        <time>2013-07-20T10:17:34Z</time>
      </trkpt>
      <trkpt lat="48.68211" lon="6.16239">
        <ele>257</ele>
        <time>2013-07-20T10:17:36Z</time>
      </trkpt>
      <trkpt lat="48.68206" lon="6.16241">
        <ele>254</ele>
        <time>2013-07-20T10:17:38Z</time>
      </trkpt>
      <trkpt lat="48.68199" lon="6.16243">
        <ele>252</ele>
        <time>2013-07-20T10:17:41Z</time>
      </trkpt>
      <trkpt lat="48.68193" lon="6.16246">
        <ele>251</ele>
        <time>2013-07-20T10:17:42Z</time>
      </trkpt>
      <trkpt lat="48.68186" lon="6.16253">
        <ele>248</ele>
        <time>2013-07-20T10:17:45Z</time>
      </trkpt>
      <trkpt lat="48.68185" lon="6.16264">
        <ele>249</ele>
        <time>2013-07-20T10:17:46Z</time>
      </trkpt>
      <trkpt lat="48.68183" lon="6.16275">
        <ele>250</ele>
        <time>2013-07-20T10:17:48Z</time>
      </trkpt>
      <trkpt lat="48.68181" lon="6.16286">
        <ele>248</ele>
        <time>2013-07-20T10:17:50Z</time>
      </trkpt>
      <trkpt lat="48.68178" lon="6.16299">
        <ele>244</ele>
        <time>2013-07-20T10:17:53Z</time>
      </trkpt>
      <trkpt lat="48.68179" lon="6.16311">
        <ele>240</ele>
        <time>2013-07-20T10:17:55Z</time>
      </trkpt>
      <trkpt lat="48.68181" lon="6.16325">
        <ele>237</ele>
        <time>2013-07-20T10:17:56Z</time>
      </trkpt>
      <trkpt lat="48.68182" lon="6.16337">
        <ele>236</ele>
        <time>2013-07-20T10:17:58Z</time>
      </trkpt>
      <trkpt lat="48.68184" lon="6.16348">
        <ele>235</ele>
        <time>2013-07-20T10:18:01Z</time>
      </trkpt>
      <trkpt lat="48.68185" lon="6.16357">
        <ele>236</ele>
        <time>2013-07-20T10:18:03Z</time>
      </trkpt>
      <trkpt lat="48.68187" lon="6.16366">
        <ele>237</ele>
        <time>2013-07-20T10:18:05Z</time>
      </trkpt>
      <trkpt lat="48.68188" lon="6.16375">
        <ele>238</ele>
        <time>2013-07-20T10:18:06Z</time>
      </trkpt>
      <trkpt lat="48.68189" lon="6.16387">
        <ele>237</ele>
        <time>2013-07-20T10:18:08Z</time>
      </trkpt>
      <trkpt lat="48.6819" lon="6.16399">
        <ele>236</ele>
        <time>2013-07-20T10:18:11Z</time>
      </trkpt>
      <trkpt lat="48.68192" lon="6.16411">
        <ele>232</ele>
        <time>2013-07-20T10:18:13Z</time>
      </trkpt>
      <trkpt lat="48.68194" lon="6.16424">
        <ele>230</ele>
        <time>2013-07-20T10:18:14Z</time>
      </trkpt>
      <trkpt lat="48.68195" lon="6.16435">
        <ele>231</ele>
        <time>2013-07-20T10:18:17Z</time>
      </trkpt>
      <trkpt lat="48.68196" lon="6.16445">
        <ele>238</ele>
        <time>2013-07-20T10:18:18Z</time>
      </trkpt>
      <trkpt lat="48.68196" lon="6.16457">
        <ele>237</ele>
        <time>2013-07-20T10:18:21Z</time>
      </trkpt>
      <trkpt lat="48.68199" lon="6.16467">
        <ele>236</ele>
        <time>2013-07-20T10:18:23Z</time>
      </trkpt>
      <trkpt lat="48.68201" lon="6.16479">
        <ele>240</ele>
        <time>2013-07-20T10:18:25Z</time>
      </trkpt>
      <trkpt lat="48.682" lon="6.16491">
        <ele>240</ele>
        <time>2013-07-20T10:18:26Z</time>
      </trkpt>
      <trkpt lat="48.68198" lon="6.16504">
        <ele>245</ele>
        <time>2013-07-20T10:18:29Z</time>
      </trkpt>
      <trkpt lat="48.68201" lon="6.16516">
        <ele>246</ele>
        <time>2013-07-20T10:18:31Z</time>
      </trkpt>
      <trkpt lat="48.68206" lon="6.16526">
        <ele>245</ele>
        <time>2013-07-20T10:18:33Z</time>
      </trkpt>
      <trkpt lat="48.68209" lon="6.16539">
        <ele>238</ele>
        <time>2013-07-20T10:18:35Z</time>
      </trkpt>
      <trkpt lat="48.68212" lon="6.16549">
        <ele>236</ele>
        <time>2013-07-20T10:18:36Z</time>
      </trkpt>
      <trkpt lat="48.68215" lon="6.16556">
        <ele>236</ele>
        <time>2013-07-20T10:18:38Z</time>
      </trkpt>
      <trkpt lat="48.68219" lon="6.16564">
        <ele>237</ele>
        <time>2013-07-20T10:18:40Z</time>
      </trkpt>
      <trkpt lat="48.68219" lon="6.16571">
        <ele>236</ele>
        <time>2013-07-20T10:18:42Z</time>
      </trkpt>
      <trkpt lat="48.68218" lon="6.16577">
        <ele>235</ele>
        <time>2013-07-20T10:18:44Z</time>
      </trkpt>
      <trkpt lat="48.68213" lon="6.16579">
        <ele>234</ele>
        <time>2013-07-20T10:18:47Z</time>
      </trkpt>
      <trkpt lat="48.68209" lon="6.16585">
        <ele>238</ele>
        <time>2013-07-20T10:18:48Z</time>
      </trkpt>
      <trkpt lat="48.68206" lon="6.1659">
        <ele>240</ele>
        <time>2013-07-20T10:18:51Z</time>
      </trkpt>
      <trkpt lat="48.68202" lon="6.16594">
        <ele>241</ele>
        <time>2013-07-20T10:18:53Z</time>
      </trkpt>
      <trkpt lat="48.68196" lon="6.16595">
        <ele>246</ele>
        <time>2013-07-20T10:18:55Z</time>
      </trkpt>
      <trkpt lat="48.68191" lon="6.16597">
        <ele>249</ele>
        <time>2013-07-20T10:18:56Z</time>
      </trkpt>
      <trkpt lat="48.68186" lon="6.16598">
        <ele>251</ele>
        <time>2013-07-20T10:18:59Z</time>
      </trkpt>
      <trkpt lat="48.6818" lon="6.16599">
        <ele>254</ele>
        <time>2013-07-20T10:19:01Z</time>
      </trkpt>
      <trkpt lat="48.68176" lon="6.16602">
        <ele>255</ele>
        <time>2013-07-20T10:19:03Z</time>
      </trkpt>
      <trkpt lat="48.68172" lon="6.16605">
        <ele>258</ele>
        <time>2013-07-20T10:19:05Z</time>
      </trkpt>
      <trkpt lat="48.68167" lon="6.16609">
        <ele>260</ele>
        <time>2013-07-20T10:19:07Z</time>
      </trkpt>
      <trkpt lat="48.68162" lon="6.16613">
        <ele>262</ele>
        <time>2013-07-20T10:19:08Z</time>
      </trkpt>
      <trkpt lat="48.68157" lon="6.16615">
        <ele>265</ele>
        <time>2013-07-20T10:19:11Z</time>
      </trkpt>
      <trkpt lat="48.68154" lon="6.16616">
        <ele>268</ele>
        <time>2013-07-20T10:19:13Z</time>
      </trkpt>
      <trkpt lat="48.6815" lon="6.16618">
        <ele>273</ele>
        <time>2013-07-20T10:19:15Z</time>
      </trkpt>
      <trkpt lat="48.68145" lon="6.16619">
        <ele>273</ele>
        <time>2013-07-20T10:19:16Z</time>
      </trkpt>
      <trkpt lat="48.68139" lon="6.16621">
        <ele>274</ele>
        <time>2013-07-20T10:19:19Z</time>
      </trkpt>
      <trkpt lat="48.68134" lon="6.16623">
        <ele>274</ele>
        <time>2013-07-20T10:19:21Z</time>
      </trkpt>
      <trkpt lat="48.68127" lon="6.16623">
        <ele>268</ele>
        <time>2013-07-20T10:19:23Z</time>
      </trkpt>
      <trkpt lat="48.68118" lon="6.16625">
        <ele>262</ele>
        <time>2013-07-20T10:19:25Z</time>
      </trkpt>
      <trkpt lat="48.68108" lon="6.16626">
        <ele>255</ele>
        <time>2013-07-20T10:19:26Z</time>
      </trkpt>
      <trkpt lat="48.681" lon="6.16629">
        <ele>252</ele>
        <time>2013-07-20T10:19:29Z</time>
      </trkpt>
      <trkpt lat="48.68092" lon="6.16631">
        <ele>251</ele>
        <time>2013-07-20T10:19:31Z</time>
      </trkpt>
      <trkpt lat="48.68084" lon="6.16634">
        <ele>246</ele>
        <time>2013-07-20T10:19:33Z</time>
      </trkpt>
      <trkpt lat="48.68077" lon="6.16638">
        <ele>244</ele>
        <time>2013-07-20T10:19:35Z</time>
      </trkpt>
      <trkpt lat="48.68069" lon="6.16641">
        <ele>240</ele>
        <time>2013-07-20T10:19:36Z</time>
      </trkpt>
      <trkpt lat="48.68058" lon="6.16643">
        <ele>241</ele>
        <time>2013-07-20T10:19:38Z</time>
      </trkpt>
      <trkpt lat="48.68049" lon="6.16646">
        <ele>242</ele>
        <time>2013-07-20T10:19:41Z</time>
      </trkpt>
      <trkpt lat="48.6804" lon="6.1665">
        <ele>245</ele>
        <time>2013-07-20T10:19:43Z</time>
      </trkpt>
      <trkpt lat="48.68033" lon="6.16655">
        <ele>246</ele>
        <time>2013-07-20T10:19:45Z</time>
      </trkpt>
      <trkpt lat="48.68028" lon="6.16659">
        <ele>247</ele>
        <time>2013-07-20T10:19:46Z</time>
      </trkpt>
      <trkpt lat="48.68021" lon="6.16662">
        <ele>247</ele>
        <time>2013-07-20T10:19:49Z</time>
      </trkpt>
      <trkpt lat="48.68014" lon="6.16665">
        <ele>248</ele>
        <time>2013-07-20T10:19:51Z</time>
      </trkpt>
      <trkpt lat="48.68005" lon="6.16668">
        <ele>248</ele>
        <time>2013-07-20T10:19:53Z</time>
      </trkpt>
      <trkpt lat="48.67997" lon="6.16671">
        <ele>246</ele>
        <time>2013-07-20T10:19:54Z</time>
      </trkpt>
      <trkpt lat="48.6799" lon="6.16675">
        <ele>242</ele>
        <time>2013-07-20T10:19:57Z</time>
      </trkpt>
      <trkpt lat="48.67983" lon="6.16679">
        <ele>240</ele>
        <time>2013-07-20T10:19:58Z</time>
      </trkpt>
      <trkpt lat="48.67975" lon="6.16682">
        <ele>242</ele>
        <time>2013-07-20T10:20:00Z</time>
      </trkpt>
      <trkpt lat="48.67967" lon="6.16684">
        <ele>241</ele>
        <time>2013-07-20T10:20:02Z</time>
      </trkpt>
      <trkpt lat="48.67959" lon="6.16688">
        <ele>244</ele>
        <time>2013-07-20T10:20:04Z</time>
      </trkpt>
      <trkpt lat="48.67952" lon="6.16693">
        <ele>244</ele>
        <time>2013-07-20T10:20:06Z</time>
      </trkpt>
      <trkpt lat="48.67945" lon="6.16699">
        <ele>244</ele>
        <time>2013-07-20T10:20:08Z</time>
      </trkpt>
      <trkpt lat="48.67937" lon="6.16706">
        <ele>240</ele>
        <time>2013-07-20T10:20:10Z</time>
      </trkpt>
      <trkpt lat="48.67929" lon="6.16712">
        <ele>239</ele>
        <time>2013-07-20T10:20:12Z</time>
      </trkpt>
      <trkpt lat="48.67921" lon="6.16718">
        <ele>237</ele>
        <time>2013-07-20T10:20:14Z</time>
      </trkpt>
      <trkpt lat="48.67914" lon="6.16724">
        <ele>237</ele>
        <time>2013-07-20T10:20:16Z</time>
      </trkpt>
      <trkpt lat="48.67906" lon="6.16731">
        <ele>235</ele>
        <time>2013-07-20T10:20:18Z</time>
      </trkpt>
      <trkpt lat="48.67898" lon="6.16736">
        <ele>235</ele>
        <time>2013-07-20T10:20:20Z</time>
      </trkpt>
      <trkpt lat="48.67889" lon="6.16743">
        <ele>233</ele>
        <time>2013-07-20T10:20:22Z</time>
      </trkpt>
      <trkpt lat="48.67882" lon="6.16749">
        <ele>233</ele>
        <time>2013-07-20T10:20:24Z</time>
      </trkpt>
      <trkpt lat="48.67875" lon="6.16755">
        <ele>235</ele>
        <time>2013-07-20T10:20:26Z</time>
      </trkpt>
      <trkpt lat="48.67867" lon="6.1676">
        <ele>235</ele>
        <time>2013-07-20T10:20:28Z</time>
      </trkpt>
      <trkpt lat="48.67859" lon="6.16765">
        <ele>235</ele>
        <time>2013-07-20T10:20:30Z</time>
      </trkpt>
      <trkpt lat="48.67852" lon="6.16771">
        <ele>236</ele>
        <time>2013-07-20T10:20:32Z</time>
      </trkpt>
      <trkpt lat="48.67844" lon="6.16777">
        <ele>236</ele>
        <time>2013-07-20T10:20:34Z</time>
      </trkpt>
      <trkpt lat="48.67837" lon="6.16783">
        <ele>236</ele>
        <time>2013-07-20T10:20:36Z</time>
      </trkpt>
      <trkpt lat="48.67829" lon="6.16789">
        <ele>237</ele>
        <time>2013-07-20T10:20:38Z</time>
      </trkpt>
      <trkpt lat="48.67819" lon="6.16796">
        <ele>239</ele>
        <time>2013-07-20T10:20:41Z</time>
      </trkpt>
      <trkpt lat="48.67811" lon="6.16801">
        <ele>242</ele>
        <time>2013-07-20T10:20:43Z</time>
      </trkpt>
      <trkpt lat="48.67804" lon="6.16806">
        <ele>241</ele>
        <time>2013-07-20T10:20:44Z</time>
      </trkpt>
      <trkpt lat="48.67799" lon="6.16811">
        <ele>238</ele>
        <time>2013-07-20T10:20:46Z</time>
      </trkpt>
      <trkpt lat="48.67794" lon="6.16817">
        <ele>238</ele>
        <time>2013-07-20T10:20:48Z</time>
      </trkpt>
      <trkpt lat="48.67792" lon="6.1682">
        <ele>236</ele>
        <time>2013-07-20T10:20:50Z</time>
      </trkpt>
      <trkpt lat="48.67791" lon="6.1682">
        <ele>242</ele>
        <time>2013-07-20T10:20:52Z</time>
      </trkpt>
      <trkpt lat="48.67792" lon="6.16821">
        <ele>235</ele>
        <time>2013-07-20T10:20:56Z</time>
      </trkpt>
      <trkpt lat="48.67788" lon="6.16824">
        <ele>237</ele>
        <time>2013-07-20T10:20:58Z</time>
      </trkpt>
      <trkpt lat="48.67783" lon="6.16827">
        <ele>240</ele>
        <time>2013-07-20T10:21:01Z</time>
      </trkpt>
      <trkpt lat="48.67777" lon="6.16834">
        <ele>239</ele>
        <time>2013-07-20T10:21:03Z</time>
      </trkpt>
      <trkpt lat="48.6777" lon="6.1684">
        <ele>241</ele>
        <time>2013-07-20T10:21:05Z</time>
      </trkpt>
      <trkpt lat="48.67763" lon="6.16848">
        <ele>241</ele>
        <time>2013-07-20T10:21:06Z</time>
      </trkpt>
      <trkpt lat="48.67757" lon="6.16856">
        <ele>242</ele>
        <time>2013-07-20T10:21:09Z</time>
      </trkpt>
      <trkpt lat="48.67748" lon="6.16864">
        <ele>236</ele>
        <time>2013-07-20T10:21:11Z</time>
      </trkpt>
      <trkpt lat="48.67738" lon="6.16871">
        <ele>236</ele>
        <time>2013-07-20T10:21:13Z</time>
      </trkpt>
      <trkpt lat="48.67727" lon="6.16876">
        <ele>232</ele>
        <time>2013-07-20T10:21:15Z</time>
      </trkpt>
      <trkpt lat="48.67717" lon="6.16881">
        <ele>231</ele>
        <time>2013-07-20T10:21:16Z</time>
      </trkpt>
      <trkpt lat="48.67711" lon="6.16887">
        <ele>234</ele>
        <time>2013-07-20T10:21:19Z</time>
      </trkpt>
      <trkpt lat="48.67704" lon="6.16893">
        <ele>235</ele>
        <time>2013-07-20T10:21:21Z</time>
      </trkpt>
      <trkpt lat="48.67698" lon="6.16899">
        <ele>236</ele>
        <time>2013-07-20T10:21:23Z</time>
      </trkpt>
      <trkpt lat="48.67691" lon="6.16906">
        <ele>236</ele>
        <time>2013-07-20T10:21:25Z</time>
      </trkpt>
      <trkpt lat="48.67685" lon="6.16913">
        <ele>237</ele>
        <time>2013-07-20T10:21:26Z</time>
      </trkpt>
      <trkpt lat="48.67678" lon="6.16919">
        <ele>239</ele>
        <time>2013-07-20T10:21:29Z</time>
      </trkpt>
      <trkpt lat="48.67673" lon="6.16926">
        <ele>242</ele>
        <time>2013-07-20T10:21:31Z</time>
      </trkpt>
      <trkpt lat="48.67665" lon="6.16932">
        <ele>243</ele>
        <time>2013-07-20T10:21:33Z</time>
      </trkpt>
      <trkpt lat="48.67658" lon="6.16938">
        <ele>245</ele>
        <time>2013-07-20T10:21:35Z</time>
      </trkpt>
      <trkpt lat="48.6765" lon="6.16946">
        <ele>246</ele>
        <time>2013-07-20T10:21:36Z</time>
      </trkpt>
      <trkpt lat="48.67643" lon="6.16954">
        <ele>247</ele>
        <time>2013-07-20T10:21:39Z</time>
      </trkpt>
      <trkpt lat="48.67636" lon="6.16962">
        <ele>246</ele>
        <time>2013-07-20T10:21:41Z</time>
      </trkpt>
      <trkpt lat="48.67628" lon="6.16968">
        <ele>245</ele>
        <time>2013-07-20T10:21:43Z</time>
      </trkpt>
      <trkpt lat="48.67618" lon="6.16975">
        <ele>242</ele>
        <time>2013-07-20T10:21:45Z</time>
      </trkpt>
      <trkpt lat="48.67607" lon="6.16981">
        <ele>239</ele>
        <time>2013-07-20T10:21:47Z</time>
      </trkpt>
      <trkpt lat="48.67595" lon="6.16985">
        <ele>236</ele>
        <time>2013-07-20T10:21:48Z</time>
      </trkpt>
      <trkpt lat="48.67584" lon="6.16989">
        <ele>237</ele>
        <time>2013-07-20T10:21:51Z</time>
      </trkpt>
      <trkpt lat="48.67575" lon="6.16995">
        <ele>237</ele>
        <time>2013-07-20T10:21:53Z</time>
      </trkpt>
      <trkpt lat="48.67566" lon="6.17001">
        <ele>236</ele>
        <time>2013-07-20T10:21:55Z</time>
      </trkpt>
      <trkpt lat="48.67559" lon="6.17008">
        <ele>237</ele>
        <time>2013-07-20T10:21:57Z</time>
      </trkpt>
      <trkpt lat="48.67552" lon="6.17015">
        <ele>237</ele>
        <time>2013-07-20T10:21:59Z</time>
      </trkpt>
      <trkpt lat="48.67544" lon="6.17021">
        <ele>238</ele>
        <time>2013-07-20T10:22:01Z</time>
      </trkpt>
      <trkpt lat="48.67534" lon="6.17027">
        <ele>240</ele>
        <time>2013-07-20T10:22:02Z</time>
      </trkpt>
      <trkpt lat="48.67525" lon="6.17032">
        <ele>240</ele>
        <time>2013-07-20T10:22:05Z</time>
      </trkpt>
      <trkpt lat="48.67518" lon="6.17039">
        <ele>239</ele>
        <time>2013-07-20T10:22:06Z</time>
      </trkpt>
      <trkpt lat="48.6751" lon="6.17046">
        <ele>240</ele>
        <time>2013-07-20T10:22:09Z</time>
      </trkpt>
      <trkpt lat="48.67501" lon="6.17052">
        <ele>240</ele>
        <time>2013-07-20T10:22:10Z</time>
      </trkpt>
      <trkpt lat="48.67492" lon="6.17058">
        <ele>240</ele>
        <time>2013-07-20T10:22:13Z</time>
      </trkpt>
      <trkpt lat="48.67483" lon="6.17066">
        <ele>238</ele>
        <time>2013-07-20T10:22:15Z</time>
      </trkpt>
      <trkpt lat="48.67473" lon="6.17074">
        <ele>236</ele>
        <time>2013-07-20T10:22:16Z</time>
      </trkpt>
      <trkpt lat="48.67463" lon="6.1708">
        <ele>235</ele>
        <time>2013-07-20T10:22:19Z</time>
      </trkpt>
      <trkpt lat="48.67453" lon="6.17085">
        <ele>236</ele>
        <time>2013-07-20T10:22:21Z</time>
      </trkpt>
      <trkpt lat="48.67444" lon="6.1709">
        <ele>236</ele>
        <time>2013-07-20T10:22:22Z</time>
      </trkpt>
      <trkpt lat="48.67436" lon="6.17096">
        <ele>240</ele>
        <time>2013-07-20T10:22:24Z</time>
      </trkpt>
      <trkpt lat="48.67428" lon="6.17103">
        <ele>239</ele>
        <time>2013-07-20T10:22:26Z</time>
      </trkpt>
      <trkpt lat="48.6742" lon="6.17107">
        <ele>239</ele>
        <time>2013-07-20T10:22:29Z</time>
      </trkpt>
      <trkpt lat="48.67409" lon="6.17114">
        <ele>241</ele>
        <time>2013-07-20T10:22:31Z</time>
      </trkpt>
      <trkpt lat="48.67399" lon="6.17121">
        <ele>241</ele>
        <time>2013-07-20T10:22:33Z</time>
      </trkpt>
      <trkpt lat="48.6739" lon="6.17128">
        <ele>238</ele>
        <time>2013-07-20T10:22:34Z</time>
      </trkpt>
      <trkpt lat="48.67382" lon="6.17133">
        <ele>241</ele>
        <time>2013-07-20T10:22:36Z</time>
      </trkpt>
      <trkpt lat="48.67375" lon="6.17138">
        <ele>243</ele>
        <time>2013-07-20T10:22:39Z</time>
      </trkpt>
      <trkpt lat="48.67371" lon="6.17142">
        <ele>243</ele>
        <time>2013-07-20T10:22:41Z</time>
      </trkpt>
      <trkpt lat="48.67362" lon="6.17141">
        <ele>244</ele>
        <time>2013-07-20T10:22:43Z</time>
      </trkpt>
      <trkpt lat="48.67353" lon="6.17143">
        <ele>245</ele>
        <time>2013-07-20T10:22:44Z</time>
      </trkpt>
      <trkpt lat="48.67346" lon="6.17146">
        <ele>247</ele>
        <time>2013-07-20T10:22:46Z</time>
      </trkpt>
      <trkpt lat="48.67338" lon="6.1715">
        <ele>252</ele>
        <time>2013-07-20T10:22:48Z</time>
      </trkpt>
      <trkpt lat="48.67333" lon="6.17156">
        <ele>257</ele>
        <time>2013-07-20T10:22:51Z</time>
      </trkpt>
      <trkpt lat="48.67327" lon="6.17161">
        <ele>256</ele>
        <time>2013-07-20T10:22:53Z</time>
      </trkpt>
      <trkpt lat="48.67321" lon="6.17167">
        <ele>256</ele>
        <time>2013-07-20T10:22:54Z</time>
      </trkpt>
      <trkpt lat="48.67313" lon="6.17174">
        <ele>258</ele>
        <time>2013-07-20T10:22:56Z</time>
      </trkpt>
      <trkpt lat="48.67308" lon="6.17179">
        <ele>258</ele>
        <time>2013-07-20T10:22:58Z</time>
      </trkpt>
      <trkpt lat="48.673" lon="6.17185">
        <ele>256</ele>
        <time>2013-07-20T10:23:00Z</time>
      </trkpt>
      <trkpt lat="48.67293" lon="6.17191">
        <ele>259</ele>
        <time>2013-07-20T10:23:02Z</time>
      </trkpt>
      <trkpt lat="48.67285" lon="6.17196">
        <ele>262</ele>
        <time>2013-07-20T10:23:04Z</time>
      </trkpt>
      <trkpt lat="48.67278" lon="6.17202">
        <ele>269</ele>
        <time>2013-07-20T10:23:06Z</time>
      </trkpt>
      <trkpt lat="48.67272" lon="6.17208">
        <ele>269</ele>
        <time>2013-07-20T10:23:08Z</time>
      </trkpt>
      <trkpt lat="48.67261" lon="6.17217">
        <ele>263</ele>
        <time>2013-07-20T10:23:11Z</time>
      </trkpt>
      <trkpt lat="48.67254" lon="6.17226">
        <ele>252</ele>
        <time>2013-07-20T10:23:13Z</time>
      </trkpt>
      <trkpt lat="48.67246" lon="6.17238">
        <ele>253</ele>
        <time>2013-07-20T10:23:15Z</time>
      </trkpt>
      <trkpt lat="48.67241" lon="6.17247">
        <ele>251</ele>
        <time>2013-07-20T10:23:17Z</time>
      </trkpt>
      <trkpt lat="48.67238" lon="6.17255">
        <ele>247</ele>
        <time>2013-07-20T10:23:18Z</time>
      </trkpt>
      <trkpt lat="48.67239" lon="6.17257">
        <ele>245</ele>
        <time>2013-07-20T10:23:21Z</time>
      </trkpt>
      <trkpt lat="48.67239" lon="6.1726">
        <ele>245</ele>
        <time>2013-07-20T10:23:22Z</time>
      </trkpt>
      <trkpt lat="48.67239" lon="6.17266">
        <ele>242</ele>
        <time>2013-07-20T10:23:24Z</time>
      </trkpt>
      <trkpt lat="48.67238" lon="6.17271">
        <ele>246</ele>
        <time>2013-07-20T10:23:26Z</time>
      </trkpt>
      <trkpt lat="48.67238" lon="6.17275">
        <ele>247</ele>
        <time>2013-07-20T10:23:29Z</time>
      </trkpt>
      <trkpt lat="48.67238" lon="6.17277">
        <ele>245</ele>
        <time>2013-07-20T10:23:36Z</time>
      </trkpt>
      <trkpt lat="48.67236" lon="6.17281">
        <ele>239</ele>
        <time>2013-07-20T10:23:38Z</time>
      </trkpt>
      <trkpt lat="48.67232" lon="6.17286">
        <ele>240</ele>
        <time>2013-07-20T10:23:40Z</time>
      </trkpt>
      <trkpt lat="48.67228" lon="6.17295">
        <ele>243</ele>
        <time>2013-07-20T10:23:43Z</time>
      </trkpt>
      <trkpt lat="48.67222" lon="6.17309">
        <ele>242</ele>
        <time>2013-07-20T10:23:45Z</time>
      </trkpt>
      <trkpt lat="48.67217" lon="6.17325">
        <ele>243</ele>
        <time>2013-07-20T10:23:47Z</time>
      </trkpt>
      <trkpt lat="48.67212" lon="6.17345">
        <ele>247</ele>
        <time>2013-07-20T10:23:49Z</time>
      </trkpt>
      <trkpt lat="48.67209" lon="6.17365">
        <ele>247</ele>
        <time>2013-07-20T10:23:51Z</time>
      </trkpt>
      <trkpt lat="48.67204" lon="6.17386">
        <ele>247</ele>
        <time>2013-07-20T10:23:53Z</time>
      </trkpt>
      <trkpt lat="48.67199" lon="6.17408">
        <ele>247</ele>
        <time>2013-07-20T10:23:55Z</time>
      </trkpt>
      <trkpt lat="48.67194" lon="6.17432">
        <ele>249</ele>
        <time>2013-07-20T10:23:57Z</time>
      </trkpt>
      <trkpt lat="48.67185" lon="6.17456">
        <ele>242</ele>
        <time>2013-07-20T10:23:59Z</time>
      </trkpt>
      <trkpt lat="48.67175" lon="6.17479">
        <ele>239</ele>
        <time>2013-07-20T10:24:00Z</time>
      </trkpt>
      <trkpt lat="48.67166" lon="6.175">
        <ele>237</ele>
        <time>2013-07-20T10:24:03Z</time>
      </trkpt>
      <trkpt lat="48.67159" lon="6.17521">
        <ele>236</ele>
        <time>2013-07-20T10:24:04Z</time>
      </trkpt>
      <trkpt lat="48.67153" lon="6.1754">
        <ele>235</ele>
        <time>2013-07-20T10:24:07Z</time>
      </trkpt>
      <trkpt lat="48.67147" lon="6.17558">
        <ele>233</ele>
        <time>2013-07-20T10:24:09Z</time>
      </trkpt>
      <trkpt lat="48.67141" lon="6.17576">
        <ele>232</ele>
        <time>2013-07-20T10:24:11Z</time>
      </trkpt>
      <trkpt lat="48.67137" lon="6.17592">
        <ele>233</ele>
        <time>2013-07-20T10:24:12Z</time>
      </trkpt>
      <trkpt lat="48.67133" lon="6.17607">
        <ele>234</ele>
        <time>2013-07-20T10:24:15Z</time>
      </trkpt>
      <trkpt lat="48.67127" lon="6.17621">
        <ele>233</ele>
        <time>2013-07-20T10:24:17Z</time>
      </trkpt>
      <trkpt lat="48.67121" lon="6.17635">
        <ele>232</ele>
        <time>2013-07-20T10:24:19Z</time>
      </trkpt>
      <trkpt lat="48.67117" lon="6.17649">
        <ele>231</ele>
        <time>2013-07-20T10:24:21Z</time>
      </trkpt>
      <trkpt lat="48.67114" lon="6.17661">
        <ele>232</ele>
        <time>2013-07-20T10:24:23Z</time>
      </trkpt>
      <trkpt lat="48.67109" lon="6.17672">
        <ele>232</ele>
        <time>2013-07-20T10:24:25Z</time>
      </trkpt>
      <trkpt lat="48.67104" lon="6.17682">
        <ele>232</ele>
        <time>2013-07-20T10:24:26Z</time>
      </trkpt>
      <trkpt lat="48.67098" lon="6.17692">
        <ele>232</ele>
        <time>2013-07-20T10:24:28Z</time>
      </trkpt>
      <trkpt lat="48.67094" lon="6.17705">
        <ele>232</ele>
        <time>2013-07-20T10:24:30Z</time>
      </trkpt>
      <trkpt lat="48.6709" lon="6.17717">
        <ele>232</ele>
        <time>2013-07-20T10:24:32Z</time>
      </trkpt>
      <trkpt lat="48.67088" lon="6.1773">
        <ele>233</ele>
        <time>2013-07-20T10:24:35Z</time>
      </trkpt>
      <trkpt lat="48.67086" lon="6.17744">
        <ele>234</ele>
        <time>2013-07-20T10:24:36Z</time>
      </trkpt>
      <trkpt lat="48.67085" lon="6.17756">
        <ele>236</ele>
        <time>2013-07-20T10:24:39Z</time>
      </trkpt>
      <trkpt lat="48.67082" lon="6.17767">
        <ele>237</ele>
        <time>2013-07-20T10:24:41Z</time>
      </trkpt>
      <trkpt lat="48.6708" lon="6.1778">
        <ele>237</ele>
        <time>2013-07-20T10:24:43Z</time>
      </trkpt>
      <trkpt lat="48.67077" lon="6.17791">
        <ele>237</ele>
        <time>2013-07-20T10:24:45Z</time>
      </trkpt>
      <trkpt lat="48.67074" lon="6.17803">
        <ele>237</ele>
        <time>2013-07-20T10:24:46Z</time>
      </trkpt>
      <trkpt lat="48.6707" lon="6.17814">
        <ele>239</ele>
        <time>2013-07-20T10:24:49Z</time>
      </trkpt>
      <trkpt lat="48.67067" lon="6.17826">
        <ele>239</ele>
        <time>2013-07-20T10:24:50Z</time>
      </trkpt>
      <trkpt lat="48.67064" lon="6.17837">
        <ele>244</ele>
        <time>2013-07-20T10:24:52Z</time>
      </trkpt>
      <trkpt lat="48.67061" lon="6.17854">
        <ele>244</ele>
        <time>2013-07-20T10:24:57Z</time>
      </trkpt>
      <trkpt lat="48.67057" lon="6.17865">
        <ele>244</ele>
        <time>2013-07-20T10:24:59Z</time>
      </trkpt>
      <trkpt lat="48.67054" lon="6.17878">
        <ele>241</ele>
        <time>2013-07-20T10:25:01Z</time>
      </trkpt>
      <trkpt lat="48.67053" lon="6.17892">
        <ele>240</ele>
        <time>2013-07-20T10:25:03Z</time>
      </trkpt>
      <trkpt lat="48.67056" lon="6.17903">
        <ele>242</ele>
        <time>2013-07-20T10:25:05Z</time>
      </trkpt>
      <trkpt lat="48.67061" lon="6.17916">
        <ele>242</ele>
        <time>2013-07-20T10:25:07Z</time>
      </trkpt>
      <trkpt lat="48.67067" lon="6.17928">
        <ele>242</ele>
        <time>2013-07-20T10:25:09Z</time>
      </trkpt>
      <trkpt lat="48.67073" lon="6.1794">
        <ele>241</ele>
        <time>2013-07-20T10:25:11Z</time>
      </trkpt>
      <trkpt lat="48.6708" lon="6.17952">
        <ele>241</ele>
        <time>2013-07-20T10:25:13Z</time>
      </trkpt>
      <trkpt lat="48.67087" lon="6.17966">
        <ele>240</ele>
        <time>2013-07-20T10:25:15Z</time>
      </trkpt>
      <trkpt lat="48.67095" lon="6.17978">
        <ele>243</ele>
        <time>2013-07-20T10:25:17Z</time>
      </trkpt>
      <trkpt lat="48.67101" lon="6.17991">
        <ele>244</ele>
        <time>2013-07-20T10:25:19Z</time>
      </trkpt>
      <trkpt lat="48.67108" lon="6.18004">
        <ele>241</ele>
        <time>2013-07-20T10:25:21Z</time>
      </trkpt>
      <trkpt lat="48.67115" lon="6.18016">
        <ele>241</ele>
        <time>2013-07-20T10:25:22Z</time>
      </trkpt>
      <trkpt lat="48.67125" lon="6.18031">
        <ele>241</ele>
        <time>2013-07-20T10:25:25Z</time>
      </trkpt>
      <trkpt lat="48.67136" lon="6.18046">
        <ele>241</ele>
        <time>2013-07-20T10:25:27Z</time>
      </trkpt>
      <trkpt lat="48.67147" lon="6.18059">
        <ele>242</ele>
        <time>2013-07-20T10:25:29Z</time>
      </trkpt>
      <trkpt lat="48.67157" lon="6.18072">
        <ele>242</ele>
        <time>2013-07-20T10:25:31Z</time>
      </trkpt>
      <trkpt lat="48.67167" lon="6.18085">
        <ele>243</ele>
        <time>2013-07-20T10:25:33Z</time>
      </trkpt>
      <trkpt lat="48.67178" lon="6.18098">
        <ele>242</ele>
        <time>2013-07-20T10:25:35Z</time>
      </trkpt>
      <trkpt lat="48.67189" lon="6.18112">
        <ele>242</ele>
        <time>2013-07-20T10:25:37Z</time>
      </trkpt>
      <trkpt lat="48.672" lon="6.18126">
        <ele>240</ele>
        <time>2013-07-20T10:25:39Z</time>
      </trkpt>
      <trkpt lat="48.67211" lon="6.18141">
        <ele>239</ele>
        <time>2013-07-20T10:25:41Z</time>
      </trkpt>
      <trkpt lat="48.67223" lon="6.18156">
        <ele>237</ele>
        <time>2013-07-20T10:25:42Z</time>
      </trkpt>
      <trkpt lat="48.67234" lon="6.1817">
        <ele>237</ele>
        <time>2013-07-20T10:25:45Z</time>
      </trkpt>
      <trkpt lat="48.67245" lon="6.18185">
        <ele>236</ele>
        <time>2013-07-20T10:25:47Z</time>
      </trkpt>
      <trkpt lat="48.67255" lon="6.182">
        <ele>236</ele>
        <time>2013-07-20T10:25:49Z</time>
      </trkpt>
      <trkpt lat="48.67268" lon="6.18216">
        <ele>235</ele>
        <time>2013-07-20T10:25:51Z</time>
      </trkpt>
      <trkpt lat="48.67279" lon="6.1823">
        <ele>237</ele>
        <time>2013-07-20T10:25:53Z</time>
      </trkpt>
      <trkpt lat="48.6729" lon="6.18244">
        <ele>238</ele>
        <time>2013-07-20T10:25:55Z</time>
      </trkpt>
      <trkpt lat="48.67301" lon="6.18257">
        <ele>237</ele>
        <time>2013-07-20T10:25:57Z</time>
      </trkpt>
      <trkpt lat="48.6731" lon="6.1827">
        <ele>237</ele>
        <time>2013-07-20T10:25:59Z</time>
      </trkpt>
      <trkpt lat="48.6732" lon="6.18284">
        <ele>238</ele>
        <time>2013-07-20T10:26:01Z</time>
      </trkpt>
      <trkpt lat="48.67329" lon="6.18296">
        <ele>234</ele>
        <time>2013-07-20T10:26:03Z</time>
      </trkpt>
      <trkpt lat="48.67332" lon="6.18312">
        <ele>231</ele>
        <time>2013-07-20T10:26:05Z</time>
      </trkpt>
      <trkpt lat="48.67329" lon="6.18322">
        <ele>231</ele>
        <time>2013-07-20T10:26:06Z</time>
      </trkpt>
      <trkpt lat="48.67324" lon="6.18329">
        <ele>230</ele>
        <time>2013-07-20T10:26:08Z</time>
      </trkpt>
      <trkpt lat="48.67318" lon="6.18333">
        <ele>228</ele>
        <time>2013-07-20T10:26:10Z</time>
      </trkpt>
      <trkpt lat="48.67312" lon="6.1834">
        <ele>227</ele>
        <time>2013-07-20T10:26:12Z</time>
      </trkpt>
      <trkpt lat="48.67307" lon="6.18352">
        <ele>225</ele>
        <time>2013-07-20T10:26:15Z</time>
      </trkpt>
      <trkpt lat="48.67301" lon="6.18363">
        <ele>221</ele>
        <time>2013-07-20T10:26:16Z</time>
      </trkpt>
      <trkpt lat="48.67294" lon="6.18373">
        <ele>220</ele>
        <time>2013-07-20T10:26:18Z</time>
      </trkpt>
      <trkpt lat="48.67289" lon="6.18381">
        <ele>224</ele>
        <time>2013-07-20T10:26:20Z</time>
      </trkpt>
      <trkpt lat="48.67285" lon="6.1839">
        <ele>228</ele>
        <time>2013-07-20T10:26:23Z</time>
      </trkpt>
      <trkpt lat="48.67278" lon="6.18405">
        <ele>231</ele>
        <time>2013-07-20T10:26:27Z</time>
      </trkpt>
      <trkpt lat="48.67272" lon="6.18413">
        <ele>232</ele>
        <time>2013-07-20T10:26:29Z</time>
      </trkpt>
      <trkpt lat="48.67265" lon="6.18423">
        <ele>231</ele>
        <time>2013-07-20T10:26:30Z</time>
      </trkpt>
      <trkpt lat="48.67259" lon="6.18433">
        <ele>229</ele>
        <time>2013-07-20T10:26:32Z</time>
      </trkpt>
      <trkpt lat="48.67253" lon="6.18442">
        <ele>231</ele>
        <time>2013-07-20T10:26:35Z</time>
      </trkpt>
      <trkpt lat="48.67248" lon="6.18449">
        <ele>229</ele>
        <time>2013-07-20T10:26:36Z</time>
      </trkpt>
      <trkpt lat="48.67242" lon="6.18456">
        <ele>231</ele>
        <time>2013-07-20T10:26:38Z</time>
      </trkpt>
      <trkpt lat="48.67238" lon="6.18464">
        <ele>236</ele>
        <time>2013-07-20T10:26:41Z</time>
      </trkpt>
      <trkpt lat="48.67231" lon="6.18472">
        <ele>235</ele>
        <time>2013-07-20T10:26:42Z</time>
      </trkpt>
      <trkpt lat="48.67225" lon="6.18481">
        <ele>235</ele>
        <time>2013-07-20T10:26:44Z</time>
      </trkpt>
      <trkpt lat="48.67218" lon="6.1849">
        <ele>239</ele>
        <time>2013-07-20T10:26:46Z</time>
      </trkpt>
      <trkpt lat="48.67211" lon="6.185">
        <ele>238</ele>
        <time>2013-07-20T10:26:49Z</time>
      </trkpt>
      <trkpt lat="48.67202" lon="6.18512">
        <ele>237</ele>
        <time>2013-07-20T10:26:51Z</time>
      </trkpt>
      <trkpt lat="48.67194" lon="6.18523">
        <ele>236</ele>
        <time>2013-07-20T10:26:53Z</time>
      </trkpt>
      <trkpt lat="48.67187" lon="6.18531">
        <ele>236</ele>
        <time>2013-07-20T10:26:55Z</time>
      </trkpt>
      <trkpt lat="48.67178" lon="6.18541">
        <ele>239</ele>
        <time>2013-07-20T10:26:57Z</time>
      </trkpt>
      <trkpt lat="48.67168" lon="6.18553">
        <ele>241</ele>
        <time>2013-07-20T10:26:59Z</time>
      </trkpt>
      <trkpt lat="48.67159" lon="6.18563">
        <ele>236</ele>
        <time>2013-07-20T10:27:00Z</time>
      </trkpt>
      <trkpt lat="48.67151" lon="6.18571">
        <ele>234</ele>
        <time>2013-07-20T10:27:03Z</time>
      </trkpt>
      <trkpt lat="48.67144" lon="6.18581">
        <ele>237</ele>
        <time>2013-07-20T10:27:05Z</time>
      </trkpt>
      <trkpt lat="48.67133" lon="6.18594">
        <ele>239</ele>
        <time>2013-07-20T10:27:06Z</time>
      </trkpt>
      <trkpt lat="48.67124" lon="6.18608">
        <ele>236</ele>
        <time>2013-07-20T10:27:09Z</time>
      </trkpt>
      <trkpt lat="48.67114" lon="6.1862">
        <ele>235</ele>
        <time>2013-07-20T10:27:10Z</time>
      </trkpt>
      <trkpt lat="48.67104" lon="6.18633">
        <ele>234</ele>
        <time>2013-07-20T10:27:13Z</time>
      </trkpt>
      <trkpt lat="48.67093" lon="6.18645">
        <ele>242</ele>
        <time>2013-07-20T10:27:14Z</time>
      </trkpt>
      <trkpt lat="48.67082" lon="6.18658">
        <ele>242</ele>
        <time>2013-07-20T10:27:16Z</time>
      </trkpt>
      <trkpt lat="48.67072" lon="6.18672">
        <ele>239</ele>
        <time>2013-07-20T10:27:18Z</time>
      </trkpt>
      <trkpt lat="48.6706" lon="6.18687">
        <ele>238</ele>
        <time>2013-07-20T10:27:20Z</time>
      </trkpt>
      <trkpt lat="48.67049" lon="6.18702">
        <ele>239</ele>
        <time>2013-07-20T10:27:23Z</time>
      </trkpt>
      <trkpt lat="48.6704" lon="6.18717">
        <ele>239</ele>
        <time>2013-07-20T10:27:25Z</time>
      </trkpt>
      <trkpt lat="48.67033" lon="6.18727">
        <ele>241</ele>
        <time>2013-07-20T10:27:27Z</time>
      </trkpt>
      <trkpt lat="48.67022" lon="6.18743">
        <ele>248</ele>
        <time>2013-07-20T10:27:29Z</time>
      </trkpt>
      <trkpt lat="48.67013" lon="6.18756">
        <ele>244</ele>
        <time>2013-07-20T10:27:31Z</time>
      </trkpt>
      <trkpt lat="48.67002" lon="6.18769">
        <ele>238</ele>
        <time>2013-07-20T10:27:32Z</time>
      </trkpt>
      <trkpt lat="48.6699" lon="6.18783">
        <ele>236</ele>
        <time>2013-07-20T10:27:34Z</time>
      </trkpt>
      <trkpt lat="48.66978" lon="6.18796">
        <ele>236</ele>
        <time>2013-07-20T10:27:36Z</time>
      </trkpt>
      <trkpt lat="48.66964" lon="6.18809">
        <ele>234</ele>
        <time>2013-07-20T10:27:38Z</time>
      </trkpt>
      <trkpt lat="48.66953" lon="6.1882">
        <ele>229</ele>
        <time>2013-07-20T10:27:40Z</time>
      </trkpt>
      <trkpt lat="48.6694" lon="6.18834">
        <ele>228</ele>
        <time>2013-07-20T10:27:43Z</time>
      </trkpt>
      <trkpt lat="48.66933" lon="6.18841">
        <ele>227</ele>
        <time>2013-07-20T10:27:44Z</time>
      </trkpt>
      <trkpt lat="48.66928" lon="6.18847">
        <ele>227</ele>
        <time>2013-07-20T10:27:44Z</time>
      </trkpt>
      <trkpt lat="48.66923" lon="6.18853">
        <ele>228</ele>
        <time>2013-07-20T10:27:46Z</time>
      </trkpt>
      <trkpt lat="48.66917" lon="6.18858">
        <ele>231</ele>
        <time>2013-07-20T10:27:46Z</time>
      </trkpt>
      <trkpt lat="48.66913" lon="6.18865">
        <ele>229</ele>
        <time>2013-07-20T10:27:47Z</time>
      </trkpt>
      <trkpt lat="48.66904" lon="6.18877">
        <ele>228</ele>
        <time>2013-07-20T10:27:49Z</time>
      </trkpt>
      <trkpt lat="48.66894" lon="6.18888">
        <ele>227</ele>
        <time>2013-07-20T10:27:51Z</time>
      </trkpt>
      <trkpt lat="48.66885" lon="6.18897">
        <ele>231</ele>
        <time>2013-07-20T10:27:53Z</time>
      </trkpt>
      <trkpt lat="48.66875" lon="6.18905">
        <ele>234</ele>
        <time>2013-07-20T10:27:56Z</time>
      </trkpt>
      <trkpt lat="48.66867" lon="6.18912">
        <ele>235</ele>
        <time>2013-07-20T10:27:58Z</time>
      </trkpt>
      <trkpt lat="48.66858" lon="6.18919">
        <ele>232</ele>
        <time>2013-07-20T10:28:00Z</time>
      </trkpt>
      <trkpt lat="48.6685" lon="6.18926">
        <ele>231</ele>
        <time>2013-07-20T10:28:01Z</time>
      </trkpt>
      <trkpt lat="48.66842" lon="6.18933">
        <ele>233</ele>
        <time>2013-07-20T10:28:03Z</time>
      </trkpt>
      <trkpt lat="48.66834" lon="6.1894">
        <ele>234</ele>
        <time>2013-07-20T10:28:06Z</time>
      </trkpt>
      <trkpt lat="48.66827" lon="6.18946">
        <ele>234</ele>
        <time>2013-07-20T10:28:08Z</time>
      </trkpt>
      <trkpt lat="48.66819" lon="6.18953">
        <ele>240</ele>
        <time>2013-07-20T10:28:09Z</time>
      </trkpt>
      <trkpt lat="48.66811" lon="6.18959">
        <ele>233</ele>
        <time>2013-07-20T10:28:11Z</time>
      </trkpt>
      <trkpt lat="48.66803" lon="6.18966">
        <ele>231</ele>
        <time>2013-07-20T10:28:13Z</time>
      </trkpt>
      <trkpt lat="48.66794" lon="6.18972">
        <ele>236</ele>
        <time>2013-07-20T10:28:16Z</time>
      </trkpt>
      <trkpt lat="48.66787" lon="6.18976">
        <ele>240</ele>
        <time>2013-07-20T10:28:18Z</time>
      </trkpt>
      <trkpt lat="48.6678" lon="6.18981">
        <ele>235</ele>
        <time>2013-07-20T10:28:19Z</time>
      </trkpt>
      <trkpt lat="48.66772" lon="6.18987">
        <ele>236</ele>
        <time>2013-07-20T10:28:21Z</time>
      </trkpt>
      <trkpt lat="48.66763" lon="6.1899">
        <ele>235</ele>
        <time>2013-07-20T10:28:23Z</time>
      </trkpt>
      <trkpt lat="48.66757" lon="6.18998">
        <ele>239</ele>
        <time>2013-07-20T10:28:25Z</time>
      </trkpt>
      <trkpt lat="48.6675" lon="6.19002">
        <ele>239</ele>
        <time>2013-07-20T10:28:27Z</time>
      </trkpt>
      <trkpt lat="48.66741" lon="6.19005">
        <ele>235</ele>
        <time>2013-07-20T10:28:29Z</time>
      </trkpt>
      <trkpt lat="48.66735" lon="6.1901">
        <ele>236</ele>
        <time>2013-07-20T10:28:31Z</time>
      </trkpt>
      <trkpt lat="48.6673" lon="6.19013">
        <ele>234</ele>
        <time>2013-07-20T10:28:34Z</time>
      </trkpt>
      <trkpt lat="48.66726" lon="6.19016">
        <ele>233</ele>
        <time>2013-07-20T10:28:36Z</time>
      </trkpt>
      <trkpt lat="48.6672" lon="6.19018">
        <ele>236</ele>
        <time>2013-07-20T10:28:37Z</time>
      </trkpt>
      <trkpt lat="48.66711" lon="6.19021">
        <ele>234</ele>
        <time>2013-07-20T10:28:41Z</time>
      </trkpt>
      <trkpt lat="48.66709" lon="6.19021">
        <ele>236</ele>
        <time>2013-07-20T10:28:43Z</time>
      </trkpt>
      <trkpt lat="48.66707" lon="6.19023">
        <ele>236</ele>
        <time>2013-07-20T10:28:45Z</time>
      </trkpt>
      <trkpt lat="48.66707" lon="6.19025">
        <ele>236</ele>
        <time>2013-07-20T10:28:49Z</time>
      </trkpt>
      <trkpt lat="48.66705" lon="6.19031">
        <ele>239</ele>
        <time>2013-07-20T10:28:51Z</time>
      </trkpt>
      <trkpt lat="48.66703" lon="6.19038">
        <ele>239</ele>
        <time>2013-07-20T10:28:53Z</time>
      </trkpt>
      <trkpt lat="48.66702" lon="6.19046">
        <ele>236</ele>
        <time>2013-07-20T10:28:55Z</time>
      </trkpt>
      <trkpt lat="48.66698" lon="6.19052">
        <ele>237</ele>
        <time>2013-07-20T10:28:57Z</time>
      </trkpt>
      <trkpt lat="48.66695" lon="6.19062">
        <ele>235</ele>
        <time>2013-07-20T10:28:59Z</time>
      </trkpt>
      <trkpt lat="48.66693" lon="6.19073">
        <ele>231</ele>
        <time>2013-07-20T10:29:02Z</time>
      </trkpt>
      <trkpt lat="48.66692" lon="6.19087">
        <ele>230</ele>
        <time>2013-07-20T10:29:04Z</time>
      </trkpt>
      <trkpt lat="48.66691" lon="6.19099">
        <ele>230</ele>
        <time>2013-07-20T10:29:06Z</time>
      </trkpt>
      <trkpt lat="48.66689" lon="6.1911">
        <ele>231</ele>
        <time>2013-07-20T10:29:07Z</time>
      </trkpt>
      <trkpt lat="48.66686" lon="6.19119">
        <ele>230</ele>
        <time>2013-07-20T10:29:09Z</time>
      </trkpt>
      <trkpt lat="48.66682" lon="6.19121">
        <ele>229</ele>
        <time>2013-07-20T10:29:11Z</time>
      </trkpt>
      <trkpt lat="48.66678" lon="6.1912">
        <ele>226</ele>
        <time>2013-07-20T10:29:13Z</time>
      </trkpt>
      <trkpt lat="48.66673" lon="6.19116">
        <ele>233</ele>
        <time>2013-07-20T10:29:15Z</time>
      </trkpt>
      <trkpt lat="48.66667" lon="6.19112">
        <ele>234</ele>
        <time>2013-07-20T10:29:17Z</time>
      </trkpt>
      <trkpt lat="48.66662" lon="6.19109">
        <ele>235</ele>
        <time>2013-07-20T10:29:19Z</time>
      </trkpt>
      <trkpt lat="48.66657" lon="6.19105">
        <ele>238</ele>
        <time>2013-07-20T10:29:21Z</time>
      </trkpt>
      <trkpt lat="48.6665" lon="6.19102">
        <ele>238</ele>
        <time>2013-07-20T10:29:23Z</time>
      </trkpt>
      <trkpt lat="48.66643" lon="6.19098">
        <ele>240</ele>
        <time>2013-07-20T10:29:25Z</time>
      </trkpt>
      <trkpt lat="48.66637" lon="6.19095">
        <ele>238</ele>
        <time>2013-07-20T10:29:27Z</time>
      </trkpt>
      <trkpt lat="48.66631" lon="6.19092">
        <ele>241</ele>
        <time>2013-07-20T10:29:30Z</time>
      </trkpt>
      <trkpt lat="48.66626" lon="6.1909">
        <ele>238</ele>
        <time>2013-07-20T10:29:31Z</time>
      </trkpt>
      <trkpt lat="48.6662" lon="6.19087">
        <ele>237</ele>
        <time>2013-07-20T10:29:33Z</time>
      </trkpt>
      <trkpt lat="48.66614" lon="6.19085">
        <ele>236</ele>
        <time>2013-07-20T10:29:35Z</time>
      </trkpt>
      <trkpt lat="48.66607" lon="6.19082">
        <ele>239</ele>
        <time>2013-07-20T10:29:38Z</time>
      </trkpt>
      <trkpt lat="48.666" lon="6.1908">
        <ele>241</ele>
        <time>2013-07-20T10:29:39Z</time>
      </trkpt>
      <trkpt lat="48.66594" lon="6.19078">
        <ele>242</ele>
        <time>2013-07-20T10:29:41Z</time>
      </trkpt>
      <trkpt lat="48.66588" lon="6.19074">
        <ele>242</ele>
        <time>2013-07-20T10:29:43Z</time>
      </trkpt>
      <trkpt lat="48.66581" lon="6.19069">
        <ele>242</ele>
        <time>2013-07-20T10:29:45Z</time>
      </trkpt>
      <trkpt lat="48.66575" lon="6.19066">
        <ele>241</ele>
        <time>2013-07-20T10:29:47Z</time>
      </trkpt>
      <trkpt lat="48.66569" lon="6.19062">
        <ele>238</ele>
        <time>2013-07-20T10:29:49Z</time>
      </trkpt>
      <trkpt lat="48.66563" lon="6.19057">
        <ele>237</ele>
        <time>2013-07-20T10:29:51Z</time>
      </trkpt>
      <trkpt lat="48.66559" lon="6.19053">
        <ele>240</ele>
        <time>2013-07-20T10:29:53Z</time>
      </trkpt>
      <trkpt lat="48.66554" lon="6.1905">
        <ele>240</ele>
        <time>2013-07-20T10:29:55Z</time>
      </trkpt>
      <trkpt lat="48.66547" lon="6.19046">
        <ele>241</ele>
        <time>2013-07-20T10:29:57Z</time>
      </trkpt>
      <trkpt lat="48.66539" lon="6.19044">
        <ele>242</ele>
        <time>2013-07-20T10:29:59Z</time>
      </trkpt>
      <trkpt lat="48.66533" lon="6.1904">
        <ele>241</ele>
        <time>2013-07-20T10:30:01Z</time>
      </trkpt>
      <trkpt lat="48.66525" lon="6.19036">
        <ele>239</ele>
        <time>2013-07-20T10:30:03Z</time>
      </trkpt>
      <trkpt lat="48.66519" lon="6.19032">
        <ele>239</ele>
        <time>2013-07-20T10:30:05Z</time>
      </trkpt>
      <trkpt lat="48.66512" lon="6.19029">
        <ele>240</ele>
        <time>2013-07-20T10:30:07Z</time>
      </trkpt>
      <trkpt lat="48.66504" lon="6.19029">
        <ele>241</ele>
        <time>2013-07-20T10:30:09Z</time>
      </trkpt>
      <trkpt lat="48.66497" lon="6.19029">
        <ele>239</ele>
        <time>2013-07-20T10:30:11Z</time>
      </trkpt>
      <trkpt lat="48.66489" lon="6.19029">
        <ele>238</ele>
        <time>2013-07-20T10:30:14Z</time>
      </trkpt>
      <trkpt lat="48.6648" lon="6.19028">
        <ele>236</ele>
        <time>2013-07-20T10:30:15Z</time>
      </trkpt>
      <trkpt lat="48.66475" lon="6.19021">
        <ele>237</ele>
        <time>2013-07-20T10:30:17Z</time>
      </trkpt>
      <trkpt lat="48.66473" lon="6.19011">
        <ele>237</ele>
        <time>2013-07-20T10:30:19Z</time>
      </trkpt>
      <trkpt lat="48.6647" lon="6.19002">
        <ele>237</ele>
        <time>2013-07-20T10:30:21Z</time>
      </trkpt>
      <trkpt lat="48.66464" lon="6.18997">
        <ele>238</ele>
        <time>2013-07-20T10:30:23Z</time>
      </trkpt>
      <trkpt lat="48.66458" lon="6.18992">
        <ele>240</ele>
        <time>2013-07-20T10:30:25Z</time>
      </trkpt>
      <trkpt lat="48.66451" lon="6.18988">
        <ele>239</ele>
        <time>2013-07-20T10:30:27Z</time>
      </trkpt>
      <trkpt lat="48.66443" lon="6.18983">
        <ele>240</ele>
        <time>2013-07-20T10:30:29Z</time>
      </trkpt>
      <trkpt lat="48.66435" lon="6.18979">
        <ele>241</ele>
        <time>2013-07-20T10:30:31Z</time>
      </trkpt>
      <trkpt lat="48.66427" lon="6.18974">
        <ele>240</ele>
        <time>2013-07-20T10:30:33Z</time>
      </trkpt>
      <trkpt lat="48.66419" lon="6.1897">
        <ele>240</ele>
        <time>2013-07-20T10:30:35Z</time>
      </trkpt>
      <trkpt lat="48.6641" lon="6.18967">
        <ele>242</ele>
        <time>2013-07-20T10:30:37Z</time>
      </trkpt>
      <trkpt lat="48.664" lon="6.18963">
        <ele>240</ele>
        <time>2013-07-20T10:30:39Z</time>
      </trkpt>
      <trkpt lat="48.66374" lon="6.18949">
        <ele>238</ele>
        <time>2013-07-20T10:30:45Z</time>
      </trkpt>
      <trkpt lat="48.66367" lon="6.18945">
        <ele>240</ele>
        <time>2013-07-20T10:30:47Z</time>
      </trkpt>
      <trkpt lat="48.66359" lon="6.18941">
        <ele>243</ele>
        <time>2013-07-20T10:30:49Z</time>
      </trkpt>
      <trkpt lat="48.66351" lon="6.18936">
        <ele>244</ele>
        <time>2013-07-20T10:30:51Z</time>
      </trkpt>
      <trkpt lat="48.66343" lon="6.18932">
        <ele>244</ele>
        <time>2013-07-20T10:30:53Z</time>
      </trkpt>
      <trkpt lat="48.66335" lon="6.18927">
        <ele>244</ele>
        <time>2013-07-20T10:30:55Z</time>
      </trkpt>
      <trkpt lat="48.66328" lon="6.18922">
        <ele>239</ele>
        <time>2013-07-20T10:30:57Z</time>
      </trkpt>
      <trkpt lat="48.66322" lon="6.18917">
        <ele>239</ele>
        <time>2013-07-20T10:30:59Z</time>
      </trkpt>
      <trkpt lat="48.66313" lon="6.18912">
        <ele>240</ele>
        <time>2013-07-20T10:31:01Z</time>
      </trkpt>
      <trkpt lat="48.66304" lon="6.18906">
        <ele>241</ele>
        <time>2013-07-20T10:31:04Z</time>
      </trkpt>
      <trkpt lat="48.66296" lon="6.18901">
        <ele>243</ele>
        <time>2013-07-20T10:31:06Z</time>
      </trkpt>
      <trkpt lat="48.66287" lon="6.18898">
        <ele>244</ele>
        <time>2013-07-20T10:31:07Z</time>
      </trkpt>
      <trkpt lat="48.66279" lon="6.18894">
        <ele>243</ele>
        <time>2013-07-20T10:31:10Z</time>
      </trkpt>
      <trkpt lat="48.6627" lon="6.1889">
        <ele>244</ele>
        <time>2013-07-20T10:31:12Z</time>
      </trkpt>
      <trkpt lat="48.66261" lon="6.18885">
        <ele>242</ele>
        <time>2013-07-20T10:31:14Z</time>
      </trkpt>
      <trkpt lat="48.66251" lon="6.18881">
        <ele>241</ele>
        <time>2013-07-20T10:31:15Z</time>
      </trkpt>
      <trkpt lat="48.66242" lon="6.18877">
        <ele>243</ele>
        <time>2013-07-20T10:31:17Z</time>
      </trkpt>
      <trkpt lat="48.66234" lon="6.18873">
        <ele>243</ele>
        <time>2013-07-20T10:31:19Z</time>
      </trkpt>
      <trkpt lat="48.66226" lon="6.18868">
        <ele>243</ele>
        <time>2013-07-20T10:31:21Z</time>
      </trkpt>
      <trkpt lat="48.66217" lon="6.18861">
        <ele>244</ele>
        <time>2013-07-20T10:31:23Z</time>
      </trkpt>
      <trkpt lat="48.6621" lon="6.18854">
        <ele>244</ele>
        <time>2013-07-20T10:31:25Z</time>
      </trkpt>
      <trkpt lat="48.66204" lon="6.18849">
        <ele>250</ele>
        <time>2013-07-20T10:31:27Z</time>
      </trkpt>
      <trkpt lat="48.66197" lon="6.18846">
        <ele>249</ele>
        <time>2013-07-20T10:31:29Z</time>
      </trkpt>
      <trkpt lat="48.6619" lon="6.18843">
        <ele>251</ele>
        <time>2013-07-20T10:31:31Z</time>
      </trkpt>
      <trkpt lat="48.66183" lon="6.1884">
        <ele>253</ele>
        <time>2013-07-20T10:31:33Z</time>
      </trkpt>
      <trkpt lat="48.66177" lon="6.18835">
        <ele>255</ele>
        <time>2013-07-20T10:31:35Z</time>
      </trkpt>
      <trkpt lat="48.66169" lon="6.18831">
        <ele>253</ele>
        <time>2013-07-20T10:31:38Z</time>
      </trkpt>
      <trkpt lat="48.66163" lon="6.18827">
        <ele>250</ele>
        <time>2013-07-20T10:31:40Z</time>
      </trkpt>
      <trkpt lat="48.66156" lon="6.18823">
        <ele>254</ele>
        <time>2013-07-20T10:31:41Z</time>
      </trkpt>
      <trkpt lat="48.6615" lon="6.18821">
        <ele>253</ele>
        <time>2013-07-20T10:31:44Z</time>
      </trkpt>
      <trkpt lat="48.66142" lon="6.18817">
        <ele>250</ele>
        <time>2013-07-20T10:31:45Z</time>
      </trkpt>
      <trkpt lat="48.66135" lon="6.18813">
        <ele>247</ele>
        <time>2013-07-20T10:31:48Z</time>
      </trkpt>
      <trkpt lat="48.66129" lon="6.1881">
        <ele>247</ele>
        <time>2013-07-20T10:31:49Z</time>
      </trkpt>
      <trkpt lat="48.66124" lon="6.18807">
        <ele>247</ele>
        <time>2013-07-20T10:31:51Z</time>
      </trkpt>
      <trkpt lat="48.66118" lon="6.18803">
        <ele>247</ele>
        <time>2013-07-20T10:31:53Z</time>
      </trkpt>
      <trkpt lat="48.66111" lon="6.18804">
        <ele>245</ele>
        <time>2013-07-20T10:31:56Z</time>
      </trkpt>
      <trkpt lat="48.66104" lon="6.18807">
        <ele>246</ele>
        <time>2013-07-20T10:31:57Z</time>
      </trkpt>
      <trkpt lat="48.66098" lon="6.18805">
        <ele>247</ele>
        <time>2013-07-20T10:31:59Z</time>
      </trkpt>
      <trkpt lat="48.66094" lon="6.18797">
        <ele>246</ele>
        <time>2013-07-20T10:32:01Z</time>
      </trkpt>
      <trkpt lat="48.66089" lon="6.1879">
        <ele>246</ele>
        <time>2013-07-20T10:32:04Z</time>
      </trkpt>
      <trkpt lat="48.66083" lon="6.18782">
        <ele>244</ele>
        <time>2013-07-20T10:32:05Z</time>
      </trkpt>
      <trkpt lat="48.66076" lon="6.18774">
        <ele>243</ele>
        <time>2013-07-20T10:32:07Z</time>
      </trkpt>
      <trkpt lat="48.66068" lon="6.18768">
        <ele>243</ele>
        <time>2013-07-20T10:32:09Z</time>
      </trkpt>
      <trkpt lat="48.66053" lon="6.18757">
        <ele>246</ele>
        <time>2013-07-20T10:32:13Z</time>
      </trkpt>
      <trkpt lat="48.66045" lon="6.18751">
        <ele>247</ele>
        <time>2013-07-20T10:32:16Z</time>
      </trkpt>
      <trkpt lat="48.66037" lon="6.18744">
        <ele>249</ele>
        <time>2013-07-20T10:32:17Z</time>
      </trkpt>
      <trkpt lat="48.66029" lon="6.18739">
        <ele>254</ele>
        <time>2013-07-20T10:32:20Z</time>
      </trkpt>
      <trkpt lat="48.66019" lon="6.1873">
        <ele>255</ele>
        <time>2013-07-20T10:32:21Z</time>
      </trkpt>
      <trkpt lat="48.66009" lon="6.18722">
        <ele>251</ele>
        <time>2013-07-20T10:32:23Z</time>
      </trkpt>
      <trkpt lat="48.66" lon="6.18716">
        <ele>251</ele>
        <time>2013-07-20T10:32:25Z</time>
      </trkpt>
      <trkpt lat="48.65991" lon="6.18709">
        <ele>250</ele>
        <time>2013-07-20T10:32:27Z</time>
      </trkpt>
      <trkpt lat="48.65981" lon="6.18702">
        <ele>249</ele>
        <time>2013-07-20T10:32:30Z</time>
      </trkpt>
      <trkpt lat="48.65973" lon="6.18698">
        <ele>250</ele>
        <time>2013-07-20T10:32:31Z</time>
      </trkpt>
      <trkpt lat="48.65962" lon="6.18692">
        <ele>253</ele>
        <time>2013-07-20T10:32:34Z</time>
      </trkpt>
      <trkpt lat="48.6595" lon="6.18684">
        <ele>254</ele>
        <time>2013-07-20T10:32:36Z</time>
      </trkpt>
      <trkpt lat="48.6594" lon="6.18679">
        <ele>253</ele>
        <time>2013-07-20T10:32:37Z</time>
      </trkpt>
      <trkpt lat="48.65928" lon="6.18674">
        <ele>251</ele>
        <time>2013-07-20T10:32:39Z</time>
      </trkpt>
      <trkpt lat="48.65918" lon="6.18669">
        <ele>251</ele>
        <time>2013-07-20T10:32:41Z</time>
      </trkpt>
      <trkpt lat="48.65908" lon="6.18666">
        <ele>250</ele>
        <time>2013-07-20T10:32:43Z</time>
      </trkpt>
      <trkpt lat="48.65898" lon="6.18663">
        <ele>248</ele>
        <time>2013-07-20T10:32:45Z</time>
      </trkpt>
      <trkpt lat="48.65888" lon="6.18659">
        <ele>247</ele>
        <time>2013-07-20T10:32:47Z</time>
      </trkpt>
      <trkpt lat="48.65878" lon="6.18655">
        <ele>249</ele>
        <time>2013-07-20T10:32:49Z</time>
      </trkpt>
      <trkpt lat="48.65869" lon="6.18651">
        <ele>249</ele>
        <time>2013-07-20T10:32:51Z</time>
      </trkpt>
      <trkpt lat="48.65858" lon="6.18647">
        <ele>248</ele>
        <time>2013-07-20T10:32:54Z</time>
      </trkpt>
      <trkpt lat="48.65848" lon="6.18644">
        <ele>248</ele>
        <time>2013-07-20T10:32:56Z</time>
      </trkpt>
      <trkpt lat="48.65838" lon="6.18641">
        <ele>250</ele>
        <time>2013-07-20T10:32:58Z</time>
      </trkpt>
      <trkpt lat="48.65829" lon="6.18637">
        <ele>250</ele>
        <time>2013-07-20T10:32:59Z</time>
      </trkpt>
      <trkpt lat="48.65818" lon="6.18632">
        <ele>250</ele>
        <time>2013-07-20T10:33:01Z</time>
      </trkpt>
      <trkpt lat="48.65807" lon="6.18625">
        <ele>249</ele>
        <time>2013-07-20T10:33:04Z</time>
      </trkpt>
      <trkpt lat="48.65795" lon="6.18621">
        <ele>249</ele>
        <time>2013-07-20T10:33:06Z</time>
      </trkpt>
      <trkpt lat="48.65782" lon="6.18618">
        <ele>248</ele>
        <time>2013-07-20T10:33:08Z</time>
      </trkpt>
      <trkpt lat="48.65768" lon="6.18615">
        <ele>249</ele>
        <time>2013-07-20T10:33:09Z</time>
      </trkpt>
      <trkpt lat="48.65755" lon="6.18613">
        <ele>248</ele>
        <time>2013-07-20T10:33:11Z</time>
      </trkpt>
      <trkpt lat="48.65739" lon="6.18612">
        <ele>248</ele>
        <time>2013-07-20T10:33:14Z</time>
      </trkpt>
      <trkpt lat="48.65723" lon="6.18613">
        <ele>248</ele>
        <time>2013-07-20T10:33:16Z</time>
      </trkpt>
      <trkpt lat="48.65706" lon="6.18614">
        <ele>247</ele>
        <time>2013-07-20T10:33:18Z</time>
      </trkpt>
      <trkpt lat="48.6569" lon="6.18616">
        <ele>245</ele>
        <time>2013-07-20T10:33:19Z</time>
      </trkpt>
      <trkpt lat="48.65672" lon="6.18616">
        <ele>243</ele>
        <time>2013-07-20T10:33:21Z</time>
      </trkpt>
      <trkpt lat="48.65654" lon="6.18615">
        <ele>241</ele>
        <time>2013-07-20T10:33:23Z</time>
      </trkpt>
      <trkpt lat="48.65635" lon="6.18614">
        <ele>242</ele>
        <time>2013-07-20T10:33:26Z</time>
      </trkpt>
      <trkpt lat="48.65616" lon="6.18613">
        <ele>240</ele>
        <time>2013-07-20T10:33:27Z</time>
      </trkpt>
      <trkpt lat="48.65595" lon="6.18613">
        <ele>238</ele>
        <time>2013-07-20T10:33:30Z</time>
      </trkpt>
      <trkpt lat="48.65577" lon="6.18612">
        <ele>239</ele>
        <time>2013-07-20T10:33:31Z</time>
      </trkpt>
      <trkpt lat="48.65561" lon="6.18616">
        <ele>238</ele>
        <time>2013-07-20T10:33:33Z</time>
      </trkpt>
      <trkpt lat="48.65551" lon="6.18627">
        <ele>240</ele>
        <time>2013-07-20T10:33:35Z</time>
      </trkpt>
      <trkpt lat="48.65543" lon="6.18635">
        <ele>237</ele>
        <time>2013-07-20T10:33:38Z</time>
      </trkpt>
      <trkpt lat="48.65535" lon="6.18638">
        <ele>238</ele>
        <time>2013-07-20T10:33:40Z</time>
      </trkpt>
      <trkpt lat="48.6553" lon="6.18638">
        <ele>240</ele>
        <time>2013-07-20T10:33:41Z</time>
      </trkpt>
      <trkpt lat="48.65525" lon="6.18633">
        <ele>242</ele>
        <time>2013-07-20T10:33:44Z</time>
      </trkpt>
      <trkpt lat="48.65522" lon="6.18628">
        <ele>243</ele>
        <time>2013-07-20T10:33:45Z</time>
      </trkpt>
      <trkpt lat="48.65518" lon="6.18622">
        <ele>243</ele>
        <time>2013-07-20T10:33:47Z</time>
      </trkpt>
      <trkpt lat="48.65512" lon="6.18618">
        <ele>243</ele>
        <time>2013-07-20T10:33:50Z</time>
      </trkpt>
      <trkpt lat="48.65508" lon="6.18616">
        <ele>245</ele>
        <time>2013-07-20T10:33:51Z</time>
      </trkpt>
      <trkpt lat="48.65502" lon="6.18616">
        <ele>245</ele>
        <time>2013-07-20T10:33:54Z</time>
      </trkpt>
      <trkpt lat="48.65496" lon="6.18615">
        <ele>246</ele>
        <time>2013-07-20T10:33:56Z</time>
      </trkpt>
      <trkpt lat="48.65491" lon="6.18615">
        <ele>244</ele>
        <time>2013-07-20T10:33:58Z</time>
      </trkpt>
      <trkpt lat="48.65486" lon="6.18613">
        <ele>246</ele>
        <time>2013-07-20T10:34:00Z</time>
      </trkpt>
      <trkpt lat="48.6548" lon="6.18611">
        <ele>246</ele>
        <time>2013-07-20T10:34:01Z</time>
      </trkpt>
      <trkpt lat="48.65474" lon="6.18608">
        <ele>246</ele>
        <time>2013-07-20T10:34:04Z</time>
      </trkpt>
      <trkpt lat="48.65468" lon="6.18605">
        <ele>246</ele>
        <time>2013-07-20T10:34:06Z</time>
      </trkpt>
      <trkpt lat="48.65461" lon="6.18602">
        <ele>245</ele>
        <time>2013-07-20T10:34:08Z</time>
      </trkpt>
      <trkpt lat="48.65456" lon="6.186">
        <ele>246</ele>
        <time>2013-07-20T10:34:10Z</time>
      </trkpt>
      <trkpt lat="48.6545" lon="6.18598">
        <ele>246</ele>
        <time>2013-07-20T10:34:11Z</time>
      </trkpt>
      <trkpt lat="48.65443" lon="6.18595">
        <ele>246</ele>
        <time>2013-07-20T10:34:14Z</time>
      </trkpt>
      <trkpt lat="48.65437" lon="6.18594">
        <ele>247</ele>
        <time>2013-07-20T10:34:16Z</time>
      </trkpt>
      <trkpt lat="48.65432" lon="6.18592">
        <ele>250</ele>
        <time>2013-07-20T10:34:18Z</time>
      </trkpt>
      <trkpt lat="48.65427" lon="6.18589">
        <ele>246</ele>
        <time>2013-07-20T10:34:19Z</time>
      </trkpt>
      <trkpt lat="48.6542" lon="6.18586">
        <ele>245</ele>
        <time>2013-07-20T10:34:21Z</time>
      </trkpt>
      <trkpt lat="48.65414" lon="6.18582">
        <ele>245</ele>
        <time>2013-07-20T10:34:24Z</time>
      </trkpt>
      <trkpt lat="48.65408" lon="6.18579">
        <ele>246</ele>
        <time>2013-07-20T10:34:26Z</time>
      </trkpt>
      <trkpt lat="48.65403" lon="6.18575">
        <ele>247</ele>
        <time>2013-07-20T10:34:27Z</time>
      </trkpt>
      <trkpt lat="48.65398" lon="6.18572">
        <ele>248</ele>
        <time>2013-07-20T10:34:30Z</time>
      </trkpt>
      <trkpt lat="48.65393" lon="6.18569">
        <ele>249</ele>
        <time>2013-07-20T10:34:31Z</time>
      </trkpt>
      <trkpt lat="48.65384" lon="6.18565">
        <ele>254</ele>
        <time>2013-07-20T10:34:36Z</time>
      </trkpt>
      <trkpt lat="48.65378" lon="6.18562">
        <ele>252</ele>
        <time>2013-07-20T10:34:38Z</time>
      </trkpt>
      <trkpt lat="48.65371" lon="6.18561">
        <ele>251</ele>
        <time>2013-07-20T10:34:40Z</time>
      </trkpt>
      <trkpt lat="48.65365" lon="6.18558">
        <ele>252</ele>
        <time>2013-07-20T10:34:41Z</time>
      </trkpt>
      <trkpt lat="48.65358" lon="6.18555">
        <ele>252</ele>
        <time>2013-07-20T10:34:44Z</time>
      </trkpt>
      <trkpt lat="48.65352" lon="6.18552">
        <ele>250</ele>
        <time>2013-07-20T10:34:46Z</time>
      </trkpt>
      <trkpt lat="48.65346" lon="6.18549">
        <ele>251</ele>
        <time>2013-07-20T10:34:48Z</time>
      </trkpt>
      <trkpt lat="48.6534" lon="6.18546">
        <ele>252</ele>
        <time>2013-07-20T10:34:50Z</time>
      </trkpt>
      <trkpt lat="48.65335" lon="6.18543">
        <ele>254</ele>
        <time>2013-07-20T10:34:51Z</time>
      </trkpt>
      <trkpt lat="48.65329" lon="6.18539">
        <ele>253</ele>
        <time>2013-07-20T10:34:54Z</time>
      </trkpt>
      <trkpt lat="48.65322" lon="6.18535">
        <ele>253</ele>
        <time>2013-07-20T10:34:56Z</time>
      </trkpt>
      <trkpt lat="48.65315" lon="6.18532">
        <ele>251</ele>
        <time>2013-07-20T10:34:58Z</time>
      </trkpt>
      <trkpt lat="48.65308" lon="6.18529">
        <ele>250</ele>
        <time>2013-07-20T10:35:00Z</time>
      </trkpt>
      <trkpt lat="48.65301" lon="6.18525">
        <ele>250</ele>
        <time>2013-07-20T10:35:01Z</time>
      </trkpt>
      <trkpt lat="48.65295" lon="6.18522">
        <ele>249</ele>
        <time>2013-07-20T10:35:04Z</time>
      </trkpt>
      <trkpt lat="48.6529" lon="6.1852">
        <ele>250</ele>
        <time>2013-07-20T10:35:06Z</time>
      </trkpt>
      <trkpt lat="48.65287" lon="6.18518">
        <ele>255</ele>
        <time>2013-07-20T10:35:07Z</time>
      </trkpt>
      <trkpt lat="48.65282" lon="6.18516">
        <ele>256</ele>
        <time>2013-07-20T10:35:09Z</time>
      </trkpt>
      <trkpt lat="48.65276" lon="6.18513">
        <ele>255</ele>
        <time>2013-07-20T10:35:11Z</time>
      </trkpt>
      <trkpt lat="48.65269" lon="6.18508">
        <ele>257</ele>
        <time>2013-07-20T10:35:14Z</time>
      </trkpt>
      <trkpt lat="48.6526" lon="6.18503">
        <ele>255</ele>
        <time>2013-07-20T10:35:16Z</time>
      </trkpt>
      <trkpt lat="48.65252" lon="6.18498">
        <ele>253</ele>
        <time>2013-07-20T10:35:18Z</time>
      </trkpt>
      <trkpt lat="48.65243" lon="6.18493">
        <ele>254</ele>
        <time>2013-07-20T10:35:20Z</time>
      </trkpt>
      <trkpt lat="48.65231" lon="6.18487">
        <ele>254</ele>
        <time>2013-07-20T10:35:22Z</time>
      </trkpt>
      <trkpt lat="48.65219" lon="6.18479">
        <ele>253</ele>
        <time>2013-07-20T10:35:24Z</time>
      </trkpt>
      <trkpt lat="48.65206" lon="6.18471">
        <ele>251</ele>
        <time>2013-07-20T10:35:26Z</time>
      </trkpt>
      <trkpt lat="48.65193" lon="6.18463">
        <ele>251</ele>
        <time>2013-07-20T10:35:28Z</time>
      </trkpt>
      <trkpt lat="48.65178" lon="6.18454">
        <ele>251</ele>
        <time>2013-07-20T10:35:30Z</time>
      </trkpt>
      <trkpt lat="48.65163" lon="6.18446">
        <ele>249</ele>
        <time>2013-07-20T10:35:31Z</time>
      </trkpt>
      <trkpt lat="48.65146" lon="6.18437">
        <ele>247</ele>
        <time>2013-07-20T10:35:34Z</time>
      </trkpt>
      <trkpt lat="48.6513" lon="6.18429">
        <ele>247</ele>
        <time>2013-07-20T10:35:36Z</time>
      </trkpt>
      <trkpt lat="48.65112" lon="6.18421">
        <ele>247</ele>
        <time>2013-07-20T10:35:38Z</time>
      </trkpt>
      <trkpt lat="48.65093" lon="6.18411">
        <ele>246</ele>
        <time>2013-07-20T10:35:40Z</time>
      </trkpt>
      <trkpt lat="48.65074" lon="6.184">
        <ele>244</ele>
        <time>2013-07-20T10:35:42Z</time>
      </trkpt>
      <trkpt lat="48.65056" lon="6.18392">
        <ele>243</ele>
        <time>2013-07-20T10:35:44Z</time>
      </trkpt>
      <trkpt lat="48.65038" lon="6.18386">
        <ele>243</ele>
        <time>2013-07-20T10:35:46Z</time>
      </trkpt>
      <trkpt lat="48.65024" lon="6.18379">
        <ele>244</ele>
        <time>2013-07-20T10:35:47Z</time>
      </trkpt>
      <trkpt lat="48.65011" lon="6.18372">
        <ele>242</ele>
        <time>2013-07-20T10:35:50Z</time>
      </trkpt>
      <trkpt lat="48.64998" lon="6.18364">
        <ele>241</ele>
        <time>2013-07-20T10:35:51Z</time>
      </trkpt>
      <trkpt lat="48.64986" lon="6.18353">
        <ele>243</ele>
        <time>2013-07-20T10:35:54Z</time>
      </trkpt>
      <trkpt lat="48.64973" lon="6.18344">
        <ele>243</ele>
        <time>2013-07-20T10:35:56Z</time>
      </trkpt>
      <trkpt lat="48.64961" lon="6.18336">
        <ele>242</ele>
        <time>2013-07-20T10:35:58Z</time>
      </trkpt>
      <trkpt lat="48.64948" lon="6.18329">
        <ele>241</ele>
        <time>2013-07-20T10:36:00Z</time>
      </trkpt>
      <trkpt lat="48.64934" lon="6.18321">
        <ele>240</ele>
        <time>2013-07-20T10:36:02Z</time>
      </trkpt>
      <trkpt lat="48.64921" lon="6.18314">
        <ele>239</ele>
        <time>2013-07-20T10:36:04Z</time>
      </trkpt>
      <trkpt lat="48.64908" lon="6.18308">
        <ele>242</ele>
        <time>2013-07-20T10:36:06Z</time>
      </trkpt>
      <trkpt lat="48.64896" lon="6.18303">
        <ele>245</ele>
        <time>2013-07-20T10:36:08Z</time>
      </trkpt>
      <trkpt lat="48.64884" lon="6.18298">
        <ele>244</ele>
        <time>2013-07-20T10:36:10Z</time>
      </trkpt>
      <trkpt lat="48.64871" lon="6.18293">
        <ele>244</ele>
        <time>2013-07-20T10:36:11Z</time>
      </trkpt>
      <trkpt lat="48.6486" lon="6.18289">
        <ele>242</ele>
        <time>2013-07-20T10:36:14Z</time>
      </trkpt>
      <trkpt lat="48.64849" lon="6.18285">
        <ele>242</ele>
        <time>2013-07-20T10:36:16Z</time>
      </trkpt>
      <trkpt lat="48.6484" lon="6.18282">
        <ele>243</ele>
        <time>2013-07-20T10:36:18Z</time>
      </trkpt>
      <trkpt lat="48.64831" lon="6.18279">
        <ele>244</ele>
        <time>2013-07-20T10:36:20Z</time>
      </trkpt>
      <trkpt lat="48.64822" lon="6.18276">
        <ele>245</ele>
        <time>2013-07-20T10:36:21Z</time>
      </trkpt>
      <trkpt lat="48.64814" lon="6.18274">
        <ele>244</ele>
        <time>2013-07-20T10:36:24Z</time>
      </trkpt>
      <trkpt lat="48.64807" lon="6.18271">
        <ele>244</ele>
        <time>2013-07-20T10:36:26Z</time>
      </trkpt>
      <trkpt lat="48.648" lon="6.18269">
        <ele>244</ele>
        <time>2013-07-20T10:36:28Z</time>
      </trkpt>
      <trkpt lat="48.64794" lon="6.18267">
        <ele>246</ele>
        <time>2013-07-20T10:36:30Z</time>
      </trkpt>
      <trkpt lat="48.64787" lon="6.18265">
        <ele>245</ele>
        <time>2013-07-20T10:36:31Z</time>
      </trkpt>
      <trkpt lat="48.6478" lon="6.18263">
        <ele>245</ele>
        <time>2013-07-20T10:36:34Z</time>
      </trkpt>
      <trkpt lat="48.64773" lon="6.18262">
        <ele>245</ele>
        <time>2013-07-20T10:36:36Z</time>
      </trkpt>
      <trkpt lat="48.64765" lon="6.1826">
        <ele>246</ele>
        <time>2013-07-20T10:36:38Z</time>
      </trkpt>
      <trkpt lat="48.64758" lon="6.18258">
        <ele>244</ele>
        <time>2013-07-20T10:36:40Z</time>
      </trkpt>
      <trkpt lat="48.6475" lon="6.18255">
        <ele>244</ele>
        <time>2013-07-20T10:36:41Z</time>
      </trkpt>
      <trkpt lat="48.64742" lon="6.18253">
        <ele>244</ele>
        <time>2013-07-20T10:36:43Z</time>
      </trkpt>
      <trkpt lat="48.64735" lon="6.1825">
        <ele>244</ele>
        <time>2013-07-20T10:36:46Z</time>
      </trkpt>
      <trkpt lat="48.64728" lon="6.18247">
        <ele>245</ele>
        <time>2013-07-20T10:36:47Z</time>
      </trkpt>
      <trkpt lat="48.6472" lon="6.18244">
        <ele>246</ele>
        <time>2013-07-20T10:36:50Z</time>
      </trkpt>
      <trkpt lat="48.64713" lon="6.18239">
        <ele>246</ele>
        <time>2013-07-20T10:36:51Z</time>
      </trkpt>
      <trkpt lat="48.64705" lon="6.18234">
        <ele>248</ele>
        <time>2013-07-20T10:36:54Z</time>
      </trkpt>
      <trkpt lat="48.64698" lon="6.1823">
        <ele>247</ele>
        <time>2013-07-20T10:36:56Z</time>
      </trkpt>
      <trkpt lat="48.64691" lon="6.18227">
        <ele>247</ele>
        <time>2013-07-20T10:36:58Z</time>
      </trkpt>
      <trkpt lat="48.64684" lon="6.18224">
        <ele>247</ele>
        <time>2013-07-20T10:37:00Z</time>
      </trkpt>
      <trkpt lat="48.64677" lon="6.18221">
        <ele>247</ele>
        <time>2013-07-20T10:37:01Z</time>
      </trkpt>
      <trkpt lat="48.6467" lon="6.18219">
        <ele>249</ele>
        <time>2013-07-20T10:37:04Z</time>
      </trkpt>
      <trkpt lat="48.64663" lon="6.18216">
        <ele>249</ele>
        <time>2013-07-20T10:37:06Z</time>
      </trkpt>
      <trkpt lat="48.64656" lon="6.18213">
        <ele>251</ele>
        <time>2013-07-20T10:37:08Z</time>
      </trkpt>
      <trkpt lat="48.6465" lon="6.18211">
        <ele>251</ele>
        <time>2013-07-20T10:37:10Z</time>
      </trkpt>
      <trkpt lat="48.64642" lon="6.18208">
        <ele>252</ele>
        <time>2013-07-20T10:37:11Z</time>
      </trkpt>
      <trkpt lat="48.64635" lon="6.18206">
        <ele>252</ele>
        <time>2013-07-20T10:37:14Z</time>
      </trkpt>
      <trkpt lat="48.64628" lon="6.18204">
        <ele>252</ele>
        <time>2013-07-20T10:37:16Z</time>
      </trkpt>
      <trkpt lat="48.64621" lon="6.18203">
        <ele>255</ele>
        <time>2013-07-20T10:37:18Z</time>
      </trkpt>
      <trkpt lat="48.64615" lon="6.18203">
        <ele>256</ele>
        <time>2013-07-20T10:37:20Z</time>
      </trkpt>
      <trkpt lat="48.64608" lon="6.18202">
        <ele>257</ele>
        <time>2013-07-20T10:37:21Z</time>
      </trkpt>
      <trkpt lat="48.64602" lon="6.18202">
        <ele>256</ele>
        <time>2013-07-20T10:37:24Z</time>
      </trkpt>
      <trkpt lat="48.64594" lon="6.18202">
        <ele>255</ele>
        <time>2013-07-20T10:37:26Z</time>
      </trkpt>
      <trkpt lat="48.64586" lon="6.18202">
        <ele>255</ele>
        <time>2013-07-20T10:37:28Z</time>
      </trkpt>
      <trkpt lat="48.64578" lon="6.18203">
        <ele>257</ele>
        <time>2013-07-20T10:37:30Z</time>
      </trkpt>
      <trkpt lat="48.64572" lon="6.18203">
        <ele>259</ele>
        <time>2013-07-20T10:37:31Z</time>
      </trkpt>
      <trkpt lat="48.64565" lon="6.18205">
        <ele>259</ele>
        <time>2013-07-20T10:37:34Z</time>
      </trkpt>
      <trkpt lat="48.64559" lon="6.18205">
        <ele>260</ele>
        <time>2013-07-20T10:37:36Z</time>
      </trkpt>
      <trkpt lat="48.64551" lon="6.18205">
        <ele>259</ele>
        <time>2013-07-20T10:37:38Z</time>
      </trkpt>
      <trkpt lat="48.64545" lon="6.18203">
        <ele>261</ele>
        <time>2013-07-20T10:37:40Z</time>
      </trkpt>
      <trkpt lat="48.64539" lon="6.18202">
        <ele>261</ele>
        <time>2013-07-20T10:37:41Z</time>
      </trkpt>
      <trkpt lat="48.64531" lon="6.18201">
        <ele>263</ele>
        <time>2013-07-20T10:37:44Z</time>
      </trkpt>
      <trkpt lat="48.64521" lon="6.18201">
        <ele>262</ele>
        <time>2013-07-20T10:37:46Z</time>
      </trkpt>
      <trkpt lat="48.64513" lon="6.18201">
        <ele>263</ele>
        <time>2013-07-20T10:37:48Z</time>
      </trkpt>
      <trkpt lat="48.64504" lon="6.18202">
        <ele>263</ele>
        <time>2013-07-20T10:37:49Z</time>
      </trkpt>
      <trkpt lat="48.64493" lon="6.18202">
        <ele>264</ele>
        <time>2013-07-20T10:37:52Z</time>
      </trkpt>
      <trkpt lat="48.64482" lon="6.18203">
        <ele>260</ele>
        <time>2013-07-20T10:37:54Z</time>
      </trkpt>
      <trkpt lat="48.64472" lon="6.18204">
        <ele>258</ele>
        <time>2013-07-20T10:37:56Z</time>
      </trkpt>
      <trkpt lat="48.64462" lon="6.18205">
        <ele>257</ele>
        <time>2013-07-20T10:37:58Z</time>
      </trkpt>
      <trkpt lat="48.64451" lon="6.18206">
        <ele>257</ele>
        <time>2013-07-20T10:38:00Z</time>
      </trkpt>
      <trkpt lat="48.6444" lon="6.18206">
        <ele>258</ele>
        <time>2013-07-20T10:38:01Z</time>
      </trkpt>
      <trkpt lat="48.64428" lon="6.18206">
        <ele>258</ele>
        <time>2013-07-20T10:38:04Z</time>
      </trkpt>
      <trkpt lat="48.64418" lon="6.18207">
        <ele>256</ele>
        <time>2013-07-20T10:38:05Z</time>
      </trkpt>
      <trkpt lat="48.64406" lon="6.18209">
        <ele>254</ele>
        <time>2013-07-20T10:38:08Z</time>
      </trkpt>
      <trkpt lat="48.64395" lon="6.18211">
        <ele>252</ele>
        <time>2013-07-20T10:38:10Z</time>
      </trkpt>
      <trkpt lat="48.64383" lon="6.18212">
        <ele>253</ele>
        <time>2013-07-20T10:38:11Z</time>
      </trkpt>
      <trkpt lat="48.64372" lon="6.18215">
        <ele>252</ele>
        <time>2013-07-20T10:38:14Z</time>
      </trkpt>
      <trkpt lat="48.64361" lon="6.18222">
        <ele>251</ele>
        <time>2013-07-20T10:38:16Z</time>
      </trkpt>
      <trkpt lat="48.64352" lon="6.18232">
        <ele>252</ele>
        <time>2013-07-20T10:38:18Z</time>
      </trkpt>
      <trkpt lat="48.64342" lon="6.18239">
        <ele>253</ele>
        <time>2013-07-20T10:38:19Z</time>
      </trkpt>
      <trkpt lat="48.64332" lon="6.1824">
        <ele>254</ele>
        <time>2013-07-20T10:38:21Z</time>
      </trkpt>
      <trkpt lat="48.64323" lon="6.18232">
        <ele>252</ele>
        <time>2013-07-20T10:38:23Z</time>
      </trkpt>
      <trkpt lat="48.64316" lon="6.18224">
        <ele>252</ele>
        <time>2013-07-20T10:38:25Z</time>
      </trkpt>
      <trkpt lat="48.64309" lon="6.18222">
        <ele>254</ele>
        <time>2013-07-20T10:38:28Z</time>
      </trkpt>
      <trkpt lat="48.64299" lon="6.18221">
        <ele>255</ele>
        <time>2013-07-20T10:38:29Z</time>
      </trkpt>
      <trkpt lat="48.64291" lon="6.18222">
        <ele>252</ele>
        <time>2013-07-20T10:38:31Z</time>
      </trkpt>
      <trkpt lat="48.64281" lon="6.18223">
        <ele>254</ele>
        <time>2013-07-20T10:38:33Z</time>
      </trkpt>
      <trkpt lat="48.64273" lon="6.18222">
        <ele>258</ele>
        <time>2013-07-20T10:38:36Z</time>
      </trkpt>
      <trkpt lat="48.64265" lon="6.18222">
        <ele>260</ele>
        <time>2013-07-20T10:38:37Z</time>
      </trkpt>
      <trkpt lat="48.64257" lon="6.18222">
        <ele>259</ele>
        <time>2013-07-20T10:38:40Z</time>
      </trkpt>
      <trkpt lat="48.64247" lon="6.18223">
        <ele>257</ele>
        <time>2013-07-20T10:38:41Z</time>
      </trkpt>
      <trkpt lat="48.64237" lon="6.18225">
        <ele>257</ele>
        <time>2013-07-20T10:38:44Z</time>
      </trkpt>
      <trkpt lat="48.64227" lon="6.18226">
        <ele>259</ele>
        <time>2013-07-20T10:38:46Z</time>
      </trkpt>
      <trkpt lat="48.64216" lon="6.18228">
        <ele>262</ele>
        <time>2013-07-20T10:38:48Z</time>
      </trkpt>
      <trkpt lat="48.64201" lon="6.1823">
        <ele>259</ele>
        <time>2013-07-20T10:38:50Z</time>
      </trkpt>
      <trkpt lat="48.64185" lon="6.18231">
        <ele>258</ele>
        <time>2013-07-20T10:38:51Z</time>
      </trkpt>
      <trkpt lat="48.64171" lon="6.18234">
        <ele>254</ele>
        <time>2013-07-20T10:38:54Z</time>
      </trkpt>
      <trkpt lat="48.64157" lon="6.18236">
        <ele>253</ele>
        <time>2013-07-20T10:38:55Z</time>
      </trkpt>
      <trkpt lat="48.64144" lon="6.18236">
        <ele>252</ele>
        <time>2013-07-20T10:38:58Z</time>
      </trkpt>
      <trkpt lat="48.64132" lon="6.18236">
        <ele>253</ele>
        <time>2013-07-20T10:39:00Z</time>
      </trkpt>
      <trkpt lat="48.64118" lon="6.18236">
        <ele>254</ele>
        <time>2013-07-20T10:39:01Z</time>
      </trkpt>
      <trkpt lat="48.64105" lon="6.18237">
        <ele>255</ele>
        <time>2013-07-20T10:39:04Z</time>
      </trkpt>
      <trkpt lat="48.6409" lon="6.18238">
        <ele>255</ele>
        <time>2013-07-20T10:39:06Z</time>
      </trkpt>
      <trkpt lat="48.64075" lon="6.1824">
        <ele>254</ele>
        <time>2013-07-20T10:39:08Z</time>
      </trkpt>
      <trkpt lat="48.6406" lon="6.18241">
        <ele>253</ele>
        <time>2013-07-20T10:39:10Z</time>
      </trkpt>
      <trkpt lat="48.64047" lon="6.18242">
        <ele>253</ele>
        <time>2013-07-20T10:39:11Z</time>
      </trkpt>
      <trkpt lat="48.64034" lon="6.18244">
        <ele>252</ele>
        <time>2013-07-20T10:39:14Z</time>
      </trkpt>
      <trkpt lat="48.64022" lon="6.18245">
        <ele>252</ele>
        <time>2013-07-20T10:39:15Z</time>
      </trkpt>
      <trkpt lat="48.64012" lon="6.18247">
        <ele>252</ele>
        <time>2013-07-20T10:39:18Z</time>
      </trkpt>
      <trkpt lat="48.64004" lon="6.18248">
        <ele>254</ele>
        <time>2013-07-20T10:39:20Z</time>
      </trkpt>
      <trkpt lat="48.63995" lon="6.18249">
        <ele>254</ele>
        <time>2013-07-20T10:39:21Z</time>
      </trkpt>
      <trkpt lat="48.63986" lon="6.1825">
        <ele>254</ele>
        <time>2013-07-20T10:39:23Z</time>
      </trkpt>
      <trkpt lat="48.63979" lon="6.18251">
        <ele>255</ele>
        <time>2013-07-20T10:39:25Z</time>
      </trkpt>
      <trkpt lat="48.63971" lon="6.18251">
        <ele>255</ele>
        <time>2013-07-20T10:39:27Z</time>
      </trkpt>
      <trkpt lat="48.63964" lon="6.18252">
        <ele>255</ele>
        <time>2013-07-20T10:39:29Z</time>
      </trkpt>
      <trkpt lat="48.63956" lon="6.18253">
        <ele>254</ele>
        <time>2013-07-20T10:39:32Z</time>
      </trkpt>
      <trkpt lat="48.63948" lon="6.18253">
        <ele>254</ele>
        <time>2013-07-20T10:39:34Z</time>
      </trkpt>
      <trkpt lat="48.63941" lon="6.18254">
        <ele>256</ele>
        <time>2013-07-20T10:39:35Z</time>
      </trkpt>
      <trkpt lat="48.63936" lon="6.18254">
        <ele>258</ele>
        <time>2013-07-20T10:39:37Z</time>
      </trkpt>
      <trkpt lat="48.6393" lon="6.18255">
        <ele>259</ele>
        <time>2013-07-20T10:39:39Z</time>
      </trkpt>
      <trkpt lat="48.63923" lon="6.18256">
        <ele>259</ele>
        <time>2013-07-20T10:39:41Z</time>
      </trkpt>
      <trkpt lat="48.63915" lon="6.18257">
        <ele>259</ele>
        <time>2013-07-20T10:39:43Z</time>
      </trkpt>
      <trkpt lat="48.63908" lon="6.18258">
        <ele>261</ele>
        <time>2013-07-20T10:39:45Z</time>
      </trkpt>
      <trkpt lat="48.63902" lon="6.18259">
        <ele>262</ele>
        <time>2013-07-20T10:39:47Z</time>
      </trkpt>
      <trkpt lat="48.63894" lon="6.1826">
        <ele>262</ele>
        <time>2013-07-20T10:39:49Z</time>
      </trkpt>
      <trkpt lat="48.63886" lon="6.18261">
        <ele>262</ele>
        <time>2013-07-20T10:39:51Z</time>
      </trkpt>
      <trkpt lat="48.63878" lon="6.18261">
        <ele>264</ele>
        <time>2013-07-20T10:39:54Z</time>
      </trkpt>
      <trkpt lat="48.6387" lon="6.18262">
        <ele>264</ele>
        <time>2013-07-20T10:39:55Z</time>
      </trkpt>
      <trkpt lat="48.63863" lon="6.18263">
        <ele>263</ele>
        <time>2013-07-20T10:39:57Z</time>
      </trkpt>
      <trkpt lat="48.63855" lon="6.18265">
        <ele>262</ele>
        <time>2013-07-20T10:40:00Z</time>
      </trkpt>
      <trkpt lat="48.63848" lon="6.18266">
        <ele>260</ele>
        <time>2013-07-20T10:40:02Z</time>
      </trkpt>
      <trkpt lat="48.6384" lon="6.18267">
        <ele>261</ele>
        <time>2013-07-20T10:40:04Z</time>
      </trkpt>
      <trkpt lat="48.63832" lon="6.18268">
        <ele>263</ele>
        <time>2013-07-20T10:40:05Z</time>
      </trkpt>
      <trkpt lat="48.63824" lon="6.1827">
        <ele>262</ele>
        <time>2013-07-20T10:40:07Z</time>
      </trkpt>
      <trkpt lat="48.63815" lon="6.18271">
        <ele>263</ele>
        <time>2013-07-20T10:40:10Z</time>
      </trkpt>
      <trkpt lat="48.63807" lon="6.18272">
        <ele>262</ele>
        <time>2013-07-20T10:40:11Z</time>
      </trkpt>
      <trkpt lat="48.63799" lon="6.18274">
        <ele>262</ele>
        <time>2013-07-20T10:40:13Z</time>
      </trkpt>
      <trkpt lat="48.6379" lon="6.18276">
        <ele>262</ele>
        <time>2013-07-20T10:40:15Z</time>
      </trkpt>
      <trkpt lat="48.63782" lon="6.18278">
        <ele>261</ele>
        <time>2013-07-20T10:40:18Z</time>
      </trkpt>
      <trkpt lat="48.63773" lon="6.18284">
        <ele>261</ele>
        <time>2013-07-20T10:40:19Z</time>
      </trkpt>
      <trkpt lat="48.63765" lon="6.18291">
        <ele>260</ele>
        <time>2013-07-20T10:40:21Z</time>
      </trkpt>
      <trkpt lat="48.63757" lon="6.18293">
        <ele>260</ele>
        <time>2013-07-20T10:40:23Z</time>
      </trkpt>
      <trkpt lat="48.63748" lon="6.18293">
        <ele>260</ele>
        <time>2013-07-20T10:40:25Z</time>
      </trkpt>
      <trkpt lat="48.63739" lon="6.18293">
        <ele>260</ele>
        <time>2013-07-20T10:40:27Z</time>
      </trkpt>
      <trkpt lat="48.63732" lon="6.18295">
        <ele>260</ele>
        <time>2013-07-20T10:40:29Z</time>
      </trkpt>
      <trkpt lat="48.63724" lon="6.18296">
        <ele>259</ele>
        <time>2013-07-20T10:40:31Z</time>
      </trkpt>
      <trkpt lat="48.63715" lon="6.18299">
        <ele>260</ele>
        <time>2013-07-20T10:40:34Z</time>
      </trkpt>
      <trkpt lat="48.63708" lon="6.18305">
        <ele>261</ele>
        <time>2013-07-20T10:40:36Z</time>
      </trkpt>
      <trkpt lat="48.63701" lon="6.18315">
        <ele>261</ele>
        <time>2013-07-20T10:40:37Z</time>
      </trkpt>
      <trkpt lat="48.63696" lon="6.18325">
        <ele>261</ele>
        <time>2013-07-20T10:40:39Z</time>
      </trkpt>
      <trkpt lat="48.63687" lon="6.18329">
        <ele>260</ele>
        <time>2013-07-20T10:40:41Z</time>
      </trkpt>
      <trkpt lat="48.63678" lon="6.18329">
        <ele>260</ele>
        <time>2013-07-20T10:40:44Z</time>
      </trkpt>
      <trkpt lat="48.63669" lon="6.18326">
        <ele>259</ele>
        <time>2013-07-20T10:40:45Z</time>
      </trkpt>
      <trkpt lat="48.63663" lon="6.18317">
        <ele>259</ele>
        <time>2013-07-20T10:40:47Z</time>
      </trkpt>
      <trkpt lat="48.63659" lon="6.18308">
        <ele>259</ele>
        <time>2013-07-20T10:40:49Z</time>
      </trkpt>
      <trkpt lat="48.63654" lon="6.18298">
        <ele>260</ele>
        <time>2013-07-20T10:40:51Z</time>
      </trkpt>
      <trkpt lat="48.6365" lon="6.18288">
        <ele>261</ele>
        <time>2013-07-20T10:40:53Z</time>
      </trkpt>
      <trkpt lat="48.63644" lon="6.1828">
        <ele>261</ele>
        <time>2013-07-20T10:40:55Z</time>
      </trkpt>
      <trkpt lat="48.63636" lon="6.18273">
        <ele>260</ele>
        <time>2013-07-20T10:40:57Z</time>
      </trkpt>
      <trkpt lat="48.63628" lon="6.18268">
        <ele>260</ele>
        <time>2013-07-20T10:40:59Z</time>
      </trkpt>
      <trkpt lat="48.63621" lon="6.18265">
        <ele>261</ele>
        <time>2013-07-20T10:41:01Z</time>
      </trkpt>
      <trkpt lat="48.63612" lon="6.18261">
        <ele>261</ele>
        <time>2013-07-20T10:41:04Z</time>
      </trkpt>
      <trkpt lat="48.63602" lon="6.18258">
        <ele>262</ele>
        <time>2013-07-20T10:41:05Z</time>
      </trkpt>
      <trkpt lat="48.63593" lon="6.18253">
        <ele>261</ele>
        <time>2013-07-20T10:41:07Z</time>
      </trkpt>
      <trkpt lat="48.63585" lon="6.18244">
        <ele>259</ele>
        <time>2013-07-20T10:41:09Z</time>
      </trkpt>
      <trkpt lat="48.63584" lon="6.18232">
        <ele>259</ele>
        <time>2013-07-20T10:41:11Z</time>
      </trkpt>
      <trkpt lat="48.63578" lon="6.18223">
        <ele>260</ele>
        <time>2013-07-20T10:41:13Z</time>
      </trkpt>
      <trkpt lat="48.63571" lon="6.18216">
        <ele>258</ele>
        <time>2013-07-20T10:41:15Z</time>
      </trkpt>
      <trkpt lat="48.63564" lon="6.18208">
        <ele>260</ele>
        <time>2013-07-20T10:41:17Z</time>
      </trkpt>
      <trkpt lat="48.63558" lon="6.18201">
        <ele>265</ele>
        <time>2013-07-20T10:41:20Z</time>
      </trkpt>
      <trkpt lat="48.63551" lon="6.18192">
        <ele>264</ele>
        <time>2013-07-20T10:41:22Z</time>
      </trkpt>
      <trkpt lat="48.63543" lon="6.18183">
        <ele>263</ele>
        <time>2013-07-20T10:41:24Z</time>
      </trkpt>
      <trkpt lat="48.63533" lon="6.18175">
        <ele>261</ele>
        <time>2013-07-20T10:41:26Z</time>
      </trkpt>
      <trkpt lat="48.63525" lon="6.18167">
        <ele>260</ele>
        <time>2013-07-20T10:41:28Z</time>
      </trkpt>
      <trkpt lat="48.63516" lon="6.18159">
        <ele>261</ele>
        <time>2013-07-20T10:41:30Z</time>
      </trkpt>
      <trkpt lat="48.63506" lon="6.18151">
        <ele>262</ele>
        <time>2013-07-20T10:41:31Z</time>
      </trkpt>
      <trkpt lat="48.63497" lon="6.18146">
        <ele>267</ele>
        <time>2013-07-20T10:41:33Z</time>
      </trkpt>
      <trkpt lat="48.63487" lon="6.1814">
        <ele>268</ele>
        <time>2013-07-20T10:41:36Z</time>
      </trkpt>
      <trkpt lat="48.63478" lon="6.18136">
        <ele>266</ele>
        <time>2013-07-20T10:41:37Z</time>
      </trkpt>
      <trkpt lat="48.6347" lon="6.18132">
        <ele>264</ele>
        <time>2013-07-20T10:41:40Z</time>
      </trkpt>
      <trkpt lat="48.63462" lon="6.1813">
        <ele>262</ele>
        <time>2013-07-20T10:41:41Z</time>
      </trkpt>
      <trkpt lat="48.63454" lon="6.18128">
        <ele>261</ele>
        <time>2013-07-20T10:41:44Z</time>
      </trkpt>
      <trkpt lat="48.63445" lon="6.18127">
        <ele>261</ele>
        <time>2013-07-20T10:41:46Z</time>
      </trkpt>
      <trkpt lat="48.63435" lon="6.18125">
        <ele>259</ele>
        <time>2013-07-20T10:41:47Z</time>
      </trkpt>
      <trkpt lat="48.63425" lon="6.18125">
        <ele>259</ele>
        <time>2013-07-20T10:41:49Z</time>
      </trkpt>
      <trkpt lat="48.63414" lon="6.18125">
        <ele>260</ele>
        <time>2013-07-20T10:41:51Z</time>
      </trkpt>
      <trkpt lat="48.63403" lon="6.18126">
        <ele>260</ele>
        <time>2013-07-20T10:41:54Z</time>
      </trkpt>
      <trkpt lat="48.63392" lon="6.18126">
        <ele>259</ele>
        <time>2013-07-20T10:41:56Z</time>
      </trkpt>
      <trkpt lat="48.63381" lon="6.18127">
        <ele>259</ele>
        <time>2013-07-20T10:41:58Z</time>
      </trkpt>
      <trkpt lat="48.63369" lon="6.18127">
        <ele>259</ele>
        <time>2013-07-20T10:41:59Z</time>
      </trkpt>
      <trkpt lat="48.63359" lon="6.18129">
        <ele>260</ele>
        <time>2013-07-20T10:42:01Z</time>
      </trkpt>
      <trkpt lat="48.6335" lon="6.1813">
        <ele>260</ele>
        <time>2013-07-20T10:42:04Z</time>
      </trkpt>
      <trkpt lat="48.6334" lon="6.18131">
        <ele>260</ele>
        <time>2013-07-20T10:42:06Z</time>
      </trkpt>
      <trkpt lat="48.63331" lon="6.18131">
        <ele>260</ele>
        <time>2013-07-20T10:42:07Z</time>
      </trkpt>
      <trkpt lat="48.63321" lon="6.18131">
        <ele>261</ele>
        <time>2013-07-20T10:42:10Z</time>
      </trkpt>
      <trkpt lat="48.63311" lon="6.18131">
        <ele>261</ele>
        <time>2013-07-20T10:42:11Z</time>
      </trkpt>
      <trkpt lat="48.63302" lon="6.18131">
        <ele>261</ele>
        <time>2013-07-20T10:42:14Z</time>
      </trkpt>
      <trkpt lat="48.63293" lon="6.18129">
        <ele>261</ele>
        <time>2013-07-20T10:42:15Z</time>
      </trkpt>
      <trkpt lat="48.63283" lon="6.18127">
        <ele>261</ele>
        <time>2013-07-20T10:42:18Z</time>
      </trkpt>
      <trkpt lat="48.63273" lon="6.18126">
        <ele>262</ele>
        <time>2013-07-20T10:42:20Z</time>
      </trkpt>
      <trkpt lat="48.63264" lon="6.18125">
        <ele>263</ele>
        <time>2013-07-20T10:42:21Z</time>
      </trkpt>
      <trkpt lat="48.63255" lon="6.18125">
        <ele>263</ele>
        <time>2013-07-20T10:42:23Z</time>
      </trkpt>
      <trkpt lat="48.63247" lon="6.18123">
        <ele>265</ele>
        <time>2013-07-20T10:42:25Z</time>
      </trkpt>
      <trkpt lat="48.63238" lon="6.1812">
        <ele>266</ele>
        <time>2013-07-20T10:42:27Z</time>
      </trkpt>
      <trkpt lat="48.6323" lon="6.18119">
        <ele>266</ele>
        <time>2013-07-20T10:42:30Z</time>
      </trkpt>
      <trkpt lat="48.63222" lon="6.18118">
        <ele>267</ele>
        <time>2013-07-20T10:42:31Z</time>
      </trkpt>
      <trkpt lat="48.63214" lon="6.18117">
        <ele>266</ele>
        <time>2013-07-20T10:42:33Z</time>
      </trkpt>
      <trkpt lat="48.63205" lon="6.18117">
        <ele>265</ele>
        <time>2013-07-20T10:42:36Z</time>
      </trkpt>
      <trkpt lat="48.63198" lon="6.18117">
        <ele>267</ele>
        <time>2013-07-20T10:42:38Z</time>
      </trkpt>
      <trkpt lat="48.63192" lon="6.18117">
        <ele>266</ele>
        <time>2013-07-20T10:42:40Z</time>
      </trkpt>
      <trkpt lat="48.63187" lon="6.18116">
        <ele>267</ele>
        <time>2013-07-20T10:42:41Z</time>
      </trkpt>
      <trkpt lat="48.63182" lon="6.1811">
        <ele>273</ele>
        <time>2013-07-20T10:42:44Z</time>
      </trkpt>
      <trkpt lat="48.63176" lon="6.18107">
        <ele>274</ele>
        <time>2013-07-20T10:42:46Z</time>
      </trkpt>
      <trkpt lat="48.63173" lon="6.18106">
        <ele>275</ele>
        <time>2013-07-20T10:42:46Z</time>
      </trkpt>
      <trkpt lat="48.6317" lon="6.18106">
        <ele>276</ele>
        <time>2013-07-20T10:42:47Z</time>
      </trkpt>
      <trkpt lat="48.63168" lon="6.18105">
        <ele>279</ele>
        <time>2013-07-20T10:42:48Z</time>
      </trkpt>
      <trkpt lat="48.63162" lon="6.18104">
        <ele>279</ele>
        <time>2013-07-20T10:42:50Z</time>
      </trkpt>
      <trkpt lat="48.63157" lon="6.18104">
        <ele>280</ele>
        <time>2013-07-20T10:42:52Z</time>
      </trkpt>
      <trkpt lat="48.63149" lon="6.18104">
        <ele>280</ele>
        <time>2013-07-20T10:42:55Z</time>
      </trkpt>
      <trkpt lat="48.63141" lon="6.18103">
        <ele>278</ele>
        <time>2013-07-20T10:42:56Z</time>
      </trkpt>
      <trkpt lat="48.63133" lon="6.18102">
        <ele>277</ele>
        <time>2013-07-20T10:42:58Z</time>
      </trkpt>
      <trkpt lat="48.63126" lon="6.18101">
        <ele>276</ele>
        <time>2013-07-20T10:43:01Z</time>
      </trkpt>
      <trkpt lat="48.63117" lon="6.18097">
        <ele>273</ele>
        <time>2013-07-20T10:43:03Z</time>
      </trkpt>
      <trkpt lat="48.63109" lon="6.18094">
        <ele>275</ele>
        <time>2013-07-20T10:43:05Z</time>
      </trkpt>
      <trkpt lat="48.631" lon="6.18092">
        <ele>276</ele>
        <time>2013-07-20T10:43:07Z</time>
      </trkpt>
      <trkpt lat="48.63093" lon="6.18092">
        <ele>276</ele>
        <time>2013-07-20T10:43:09Z</time>
      </trkpt>
      <trkpt lat="48.63086" lon="6.1809">
        <ele>280</ele>
        <time>2013-07-20T10:43:10Z</time>
      </trkpt>
      <trkpt lat="48.63079" lon="6.18089">
        <ele>281</ele>
        <time>2013-07-20T10:43:13Z</time>
      </trkpt>
      <trkpt lat="48.63073" lon="6.18088">
        <ele>281</ele>
        <time>2013-07-20T10:43:15Z</time>
      </trkpt>
      <trkpt lat="48.63066" lon="6.18086">
        <ele>281</ele>
        <time>2013-07-20T10:43:16Z</time>
      </trkpt>
      <trkpt lat="48.63059" lon="6.18084">
        <ele>281</ele>
        <time>2013-07-20T10:43:18Z</time>
      </trkpt>
      <trkpt lat="48.63052" lon="6.18083">
        <ele>282</ele>
        <time>2013-07-20T10:43:21Z</time>
      </trkpt>
      <trkpt lat="48.63044" lon="6.1808">
        <ele>282</ele>
        <time>2013-07-20T10:43:23Z</time>
      </trkpt>
      <trkpt lat="48.63036" lon="6.18078">
        <ele>281</ele>
        <time>2013-07-20T10:43:25Z</time>
      </trkpt>
      <trkpt lat="48.6303" lon="6.18078">
        <ele>281</ele>
        <time>2013-07-20T10:43:26Z</time>
      </trkpt>
      <trkpt lat="48.63024" lon="6.18076">
        <ele>283</ele>
        <time>2013-07-20T10:43:29Z</time>
      </trkpt>
      <trkpt lat="48.63018" lon="6.18075">
        <ele>283</ele>
        <time>2013-07-20T10:43:30Z</time>
      </trkpt>
      <trkpt lat="48.63012" lon="6.18074">
        <ele>285</ele>
        <time>2013-07-20T10:43:33Z</time>
      </trkpt>
      <trkpt lat="48.63006" lon="6.18073">
        <ele>283</ele>
        <time>2013-07-20T10:43:35Z</time>
      </trkpt>
      <trkpt lat="48.63001" lon="6.18072">
        <ele>282</ele>
        <time>2013-07-20T10:43:36Z</time>
      </trkpt>
      <trkpt lat="48.62994" lon="6.18069">
        <ele>280</ele>
        <time>2013-07-20T10:43:38Z</time>
      </trkpt>
      <trkpt lat="48.62987" lon="6.18066">
        <ele>280</ele>
        <time>2013-07-20T10:43:41Z</time>
      </trkpt>
      <trkpt lat="48.6298" lon="6.18063">
        <ele>282</ele>
        <time>2013-07-20T10:43:43Z</time>
      </trkpt>
      <trkpt lat="48.62973" lon="6.1806">
        <ele>278</ele>
        <time>2013-07-20T10:43:45Z</time>
      </trkpt>
      <trkpt lat="48.62966" lon="6.18059">
        <ele>277</ele>
        <time>2013-07-20T10:43:46Z</time>
      </trkpt>
      <trkpt lat="48.62959" lon="6.18057">
        <ele>278</ele>
        <time>2013-07-20T10:43:49Z</time>
      </trkpt>
      <trkpt lat="48.62954" lon="6.18056">
        <ele>278</ele>
        <time>2013-07-20T10:43:50Z</time>
      </trkpt>
      <trkpt lat="48.6295" lon="6.18056">
        <ele>277</ele>
        <time>2013-07-20T10:43:51Z</time>
      </trkpt>
      <trkpt lat="48.62942" lon="6.18056">
        <ele>277</ele>
        <time>2013-07-20T10:43:53Z</time>
      </trkpt>
      <trkpt lat="48.62933" lon="6.18053">
        <ele>279</ele>
        <time>2013-07-20T10:43:55Z</time>
      </trkpt>
      <trkpt lat="48.62925" lon="6.1805">
        <ele>278</ele>
        <time>2013-07-20T10:43:56Z</time>
      </trkpt>
      <trkpt lat="48.62917" lon="6.18048">
        <ele>278</ele>
        <time>2013-07-20T10:43:58Z</time>
      </trkpt>
      <trkpt lat="48.6291" lon="6.18046">
        <ele>278</ele>
        <time>2013-07-20T10:44:00Z</time>
      </trkpt>
      <trkpt lat="48.62903" lon="6.18045">
        <ele>278</ele>
        <time>2013-07-20T10:44:03Z</time>
      </trkpt>
      <trkpt lat="48.62894" lon="6.18043">
        <ele>277</ele>
        <time>2013-07-20T10:44:05Z</time>
      </trkpt>
      <trkpt lat="48.62886" lon="6.18042">
        <ele>277</ele>
        <time>2013-07-20T10:44:06Z</time>
      </trkpt>
      <trkpt lat="48.62879" lon="6.1804">
        <ele>278</ele>
        <time>2013-07-20T10:44:08Z</time>
      </trkpt>
      <trkpt lat="48.62871" lon="6.18039">
        <ele>279</ele>
        <time>2013-07-20T10:44:10Z</time>
      </trkpt>
      <trkpt lat="48.62862" lon="6.18037">
        <ele>280</ele>
        <time>2013-07-20T10:44:13Z</time>
      </trkpt>
      <trkpt lat="48.62853" lon="6.18035">
        <ele>279</ele>
        <time>2013-07-20T10:44:15Z</time>
      </trkpt>
      <trkpt lat="48.62843" lon="6.18033">
        <ele>280</ele>
        <time>2013-07-20T10:44:16Z</time>
      </trkpt>
      <trkpt lat="48.62833" lon="6.18031">
        <ele>281</ele>
        <time>2013-07-20T10:44:19Z</time>
      </trkpt>
      <trkpt lat="48.62822" lon="6.18028">
        <ele>282</ele>
        <time>2013-07-20T10:44:21Z</time>
      </trkpt>
      <trkpt lat="48.62812" lon="6.18025">
        <ele>282</ele>
        <time>2013-07-20T10:44:22Z</time>
      </trkpt>
      <trkpt lat="48.62803" lon="6.18021">
        <ele>280</ele>
        <time>2013-07-20T10:44:25Z</time>
      </trkpt>
      <trkpt lat="48.62793" lon="6.18017">
        <ele>280</ele>
        <time>2013-07-20T10:44:26Z</time>
      </trkpt>
      <trkpt lat="48.62783" lon="6.18013">
        <ele>278</ele>
        <time>2013-07-20T10:44:28Z</time>
      </trkpt>
      <trkpt lat="48.62772" lon="6.18008">
        <ele>278</ele>
        <time>2013-07-20T10:44:31Z</time>
      </trkpt>
      <trkpt lat="48.62761" lon="6.18002">
        <ele>277</ele>
        <time>2013-07-20T10:44:32Z</time>
      </trkpt>
      <trkpt lat="48.62751" lon="6.17996">
        <ele>277</ele>
        <time>2013-07-20T10:44:34Z</time>
      </trkpt>
      <trkpt lat="48.6274" lon="6.1799">
        <ele>277</ele>
        <time>2013-07-20T10:44:36Z</time>
      </trkpt>
      <trkpt lat="48.62729" lon="6.17983">
        <ele>276</ele>
        <time>2013-07-20T10:44:38Z</time>
      </trkpt>
      <trkpt lat="48.62717" lon="6.17976">
        <ele>277</ele>
        <time>2013-07-20T10:44:41Z</time>
      </trkpt>
      <trkpt lat="48.62706" lon="6.17967">
        <ele>275</ele>
        <time>2013-07-20T10:44:42Z</time>
      </trkpt>
      <trkpt lat="48.62694" lon="6.17963">
        <ele>271</ele>
        <time>2013-07-20T10:44:45Z</time>
      </trkpt>
      <trkpt lat="48.62682" lon="6.17958">
        <ele>273</ele>
        <time>2013-07-20T10:44:46Z</time>
      </trkpt>
      <trkpt lat="48.62671" lon="6.17952">
        <ele>275</ele>
        <time>2013-07-20T10:44:48Z</time>
      </trkpt>
      <trkpt lat="48.62661" lon="6.17945">
        <ele>276</ele>
        <time>2013-07-20T10:44:50Z</time>
      </trkpt>
      <trkpt lat="48.62651" lon="6.17937">
        <ele>278</ele>
        <time>2013-07-20T10:44:52Z</time>
      </trkpt>
      <trkpt lat="48.62642" lon="6.17928">
        <ele>279</ele>
        <time>2013-07-20T10:44:55Z</time>
      </trkpt>
      <trkpt lat="48.62633" lon="6.17919">
        <ele>279</ele>
        <time>2013-07-20T10:44:56Z</time>
      </trkpt>
      <trkpt lat="48.62623" lon="6.1791">
        <ele>279</ele>
        <time>2013-07-20T10:44:58Z</time>
      </trkpt>
      <trkpt lat="48.62613" lon="6.17901">
        <ele>278</ele>
        <time>2013-07-20T10:45:01Z</time>
      </trkpt>
      <trkpt lat="48.62603" lon="6.17893">
        <ele>278</ele>
        <time>2013-07-20T10:45:03Z</time>
      </trkpt>
      <trkpt lat="48.62592" lon="6.17887">
        <ele>278</ele>
        <time>2013-07-20T10:45:05Z</time>
      </trkpt>
      <trkpt lat="48.62581" lon="6.17881">
        <ele>278</ele>
        <time>2013-07-20T10:45:06Z</time>
      </trkpt>
      <trkpt lat="48.62569" lon="6.17877">
        <ele>279</ele>
        <time>2013-07-20T10:45:08Z</time>
      </trkpt>
      <trkpt lat="48.62558" lon="6.17873">
        <ele>280</ele>
        <time>2013-07-20T10:45:11Z</time>
      </trkpt>
      <trkpt lat="48.62545" lon="6.17871">
        <ele>280</ele>
        <time>2013-07-20T10:45:13Z</time>
      </trkpt>
      <trkpt lat="48.62531" lon="6.1787">
        <ele>277</ele>
        <time>2013-07-20T10:45:14Z</time>
      </trkpt>
      <trkpt lat="48.62517" lon="6.1787">
        <ele>276</ele>
        <time>2013-07-20T10:45:16Z</time>
      </trkpt>
      <trkpt lat="48.62503" lon="6.1787">
        <ele>275</ele>
        <time>2013-07-20T10:45:18Z</time>
      </trkpt>
      <trkpt lat="48.62487" lon="6.17869">
        <ele>276</ele>
        <time>2013-07-20T10:45:21Z</time>
      </trkpt>
      <trkpt lat="48.62474" lon="6.17865">
        <ele>276</ele>
        <time>2013-07-20T10:45:23Z</time>
      </trkpt>
      <trkpt lat="48.62461" lon="6.17859">
        <ele>277</ele>
        <time>2013-07-20T10:45:25Z</time>
      </trkpt>
      <trkpt lat="48.62446" lon="6.17854">
        <ele>276</ele>
        <time>2013-07-20T10:45:27Z</time>
      </trkpt>
      <trkpt lat="48.62431" lon="6.17849">
        <ele>274</ele>
        <time>2013-07-20T10:45:29Z</time>
      </trkpt>
      <trkpt lat="48.62416" lon="6.17846">
        <ele>273</ele>
        <time>2013-07-20T10:45:30Z</time>
      </trkpt>
      <trkpt lat="48.62402" lon="6.17843">
        <ele>273</ele>
        <time>2013-07-20T10:45:33Z</time>
      </trkpt>
      <trkpt lat="48.62387" lon="6.17841">
        <ele>273</ele>
        <time>2013-07-20T10:45:35Z</time>
      </trkpt>
      <trkpt lat="48.62373" lon="6.17838">
        <ele>273</ele>
        <time>2013-07-20T10:45:36Z</time>
      </trkpt>
      <trkpt lat="48.62358" lon="6.17837">
        <ele>273</ele>
        <time>2013-07-20T10:45:39Z</time>
      </trkpt>
      <trkpt lat="48.62344" lon="6.17836">
        <ele>274</ele>
        <time>2013-07-20T10:45:41Z</time>
      </trkpt>
      <trkpt lat="48.62329" lon="6.17837">
        <ele>273</ele>
        <time>2013-07-20T10:45:43Z</time>
      </trkpt>
      <trkpt lat="48.62315" lon="6.17838">
        <ele>273</ele>
        <time>2013-07-20T10:45:45Z</time>
      </trkpt>
      <trkpt lat="48.62301" lon="6.17842">
        <ele>277</ele>
        <time>2013-07-20T10:45:47Z</time>
      </trkpt>
      <trkpt lat="48.62288" lon="6.17846">
        <ele>281</ele>
        <time>2013-07-20T10:45:49Z</time>
      </trkpt>
      <trkpt lat="48.62277" lon="6.1785">
        <ele>278</ele>
        <time>2013-07-20T10:45:51Z</time>
      </trkpt>
      <trkpt lat="48.62264" lon="6.17851">
        <ele>279</ele>
        <time>2013-07-20T10:45:53Z</time>
      </trkpt>
      <trkpt lat="48.62252" lon="6.1785">
        <ele>278</ele>
        <time>2013-07-20T10:45:55Z</time>
      </trkpt>
      <trkpt lat="48.62241" lon="6.17849">
        <ele>277</ele>
        <time>2013-07-20T10:45:56Z</time>
      </trkpt>
      <trkpt lat="48.62228" lon="6.17847">
        <ele>277</ele>
        <time>2013-07-20T10:45:59Z</time>
      </trkpt>
      <trkpt lat="48.62215" lon="6.17843">
        <ele>278</ele>
        <time>2013-07-20T10:46:01Z</time>
      </trkpt>
      <trkpt lat="48.62201" lon="6.1784">
        <ele>279</ele>
        <time>2013-07-20T10:46:03Z</time>
      </trkpt>
      <trkpt lat="48.62188" lon="6.17838">
        <ele>277</ele>
        <time>2013-07-20T10:46:05Z</time>
      </trkpt>
      <trkpt lat="48.62174" lon="6.17836">
        <ele>279</ele>
        <time>2013-07-20T10:46:06Z</time>
      </trkpt>
      <trkpt lat="48.62161" lon="6.17833">
        <ele>279</ele>
        <time>2013-07-20T10:46:08Z</time>
      </trkpt>
      <trkpt lat="48.62146" lon="6.17829">
        <ele>281</ele>
        <time>2013-07-20T10:46:11Z</time>
      </trkpt>
      <trkpt lat="48.62133" lon="6.17824">
        <ele>282</ele>
        <time>2013-07-20T10:46:12Z</time>
      </trkpt>
      <trkpt lat="48.62121" lon="6.1782">
        <ele>281</ele>
        <time>2013-07-20T10:46:15Z</time>
      </trkpt>
      <trkpt lat="48.62108" lon="6.17817">
        <ele>280</ele>
        <time>2013-07-20T10:46:16Z</time>
      </trkpt>
      <trkpt lat="48.62093" lon="6.17814">
        <ele>278</ele>
        <time>2013-07-20T10:46:19Z</time>
      </trkpt>
      <trkpt lat="48.62079" lon="6.1781">
        <ele>279</ele>
        <time>2013-07-20T10:46:21Z</time>
      </trkpt>
      <trkpt lat="48.62066" lon="6.17807">
        <ele>277</ele>
        <time>2013-07-20T10:46:23Z</time>
      </trkpt>
      <trkpt lat="48.62053" lon="6.17804">
        <ele>277</ele>
        <time>2013-07-20T10:46:25Z</time>
      </trkpt>
      <trkpt lat="48.62039" lon="6.17801">
        <ele>277</ele>
        <time>2013-07-20T10:46:26Z</time>
      </trkpt>
      <trkpt lat="48.62023" lon="6.17796">
        <ele>273</ele>
        <time>2013-07-20T10:46:29Z</time>
      </trkpt>
      <trkpt lat="48.62005" lon="6.17788">
        <ele>272</ele>
        <time>2013-07-20T10:46:31Z</time>
      </trkpt>
      <trkpt lat="48.61985" lon="6.17777">
        <ele>269</ele>
        <time>2013-07-20T10:46:32Z</time>
      </trkpt>
      <trkpt lat="48.61965" lon="6.17764">
        <ele>267</ele>
        <time>2013-07-20T10:46:35Z</time>
      </trkpt>
      <trkpt lat="48.61944" lon="6.17749">
        <ele>266</ele>
        <time>2013-07-20T10:46:37Z</time>
      </trkpt>
      <trkpt lat="48.61922" lon="6.17736">
        <ele>266</ele>
        <time>2013-07-20T10:46:38Z</time>
      </trkpt>
      <trkpt lat="48.61905" lon="6.17725">
        <ele>265</ele>
        <time>2013-07-20T10:46:41Z</time>
      </trkpt>
      <trkpt lat="48.61889" lon="6.17721">
        <ele>266</ele>
        <time>2013-07-20T10:46:42Z</time>
      </trkpt>
      <trkpt lat="48.61875" lon="6.17723">
        <ele>267</ele>
        <time>2013-07-20T10:46:45Z</time>
      </trkpt>
      <trkpt lat="48.61869" lon="6.17725">
        <ele>267</ele>
        <time>2013-07-20T10:46:46Z</time>
      </trkpt>
      <trkpt lat="48.61864" lon="6.17728">
        <ele>267</ele>
        <time>2013-07-20T10:46:46Z</time>
      </trkpt>
      <trkpt lat="48.61854" lon="6.17728">
        <ele>266</ele>
        <time>2013-07-20T10:46:48Z</time>
      </trkpt>
      <trkpt lat="48.61846" lon="6.17729">
        <ele>265</ele>
        <time>2013-07-20T10:46:51Z</time>
      </trkpt>
      <trkpt lat="48.61838" lon="6.17725">
        <ele>264</ele>
        <time>2013-07-20T10:46:52Z</time>
      </trkpt>
      <trkpt lat="48.61837" lon="6.17716">
        <ele>264</ele>
        <time>2013-07-20T10:46:55Z</time>
      </trkpt>
      <trkpt lat="48.61836" lon="6.17706">
        <ele>264</ele>
        <time>2013-07-20T10:46:56Z</time>
      </trkpt>
      <trkpt lat="48.61834" lon="6.17697">
        <ele>266</ele>
        <time>2013-07-20T10:46:58Z</time>
      </trkpt>
      <trkpt lat="48.6183" lon="6.17688">
        <ele>266</ele>
        <time>2013-07-20T10:47:00Z</time>
      </trkpt>
      <trkpt lat="48.61824" lon="6.17679">
        <ele>264</ele>
        <time>2013-07-20T10:47:02Z</time>
      </trkpt>
      <trkpt lat="48.61816" lon="6.17674">
        <ele>263</ele>
        <time>2013-07-20T10:47:05Z</time>
      </trkpt>
      <trkpt lat="48.61808" lon="6.1767">
        <ele>263</ele>
        <time>2013-07-20T10:47:06Z</time>
      </trkpt>
      <trkpt lat="48.61801" lon="6.17666">
        <ele>263</ele>
        <time>2013-07-20T10:47:09Z</time>
      </trkpt>
      <trkpt lat="48.61794" lon="6.17661">
        <ele>263</ele>
        <time>2013-07-20T10:47:11Z</time>
      </trkpt>
      <trkpt lat="48.61785" lon="6.17656">
        <ele>265</ele>
        <time>2013-07-20T10:47:13Z</time>
      </trkpt>
      <trkpt lat="48.61777" lon="6.17652">
        <ele>268</ele>
        <time>2013-07-20T10:47:15Z</time>
      </trkpt>
      <trkpt lat="48.61768" lon="6.17648">
        <ele>266</ele>
        <time>2013-07-20T10:47:16Z</time>
      </trkpt>
      <trkpt lat="48.61761" lon="6.17645">
        <ele>267</ele>
        <time>2013-07-20T10:47:18Z</time>
      </trkpt>
      <trkpt lat="48.61754" lon="6.17642">
        <ele>267</ele>
        <time>2013-07-20T10:47:21Z</time>
      </trkpt>
      <trkpt lat="48.61747" lon="6.1764">
        <ele>270</ele>
        <time>2013-07-20T10:47:22Z</time>
      </trkpt>
      <trkpt lat="48.61741" lon="6.17638">
        <ele>272</ele>
        <time>2013-07-20T10:47:24Z</time>
      </trkpt>
      <trkpt lat="48.61737" lon="6.17637">
        <ele>271</ele>
        <time>2013-07-20T10:47:26Z</time>
      </trkpt>
      <trkpt lat="48.61731" lon="6.17636">
        <ele>271</ele>
        <time>2013-07-20T10:47:29Z</time>
      </trkpt>
      <trkpt lat="48.61724" lon="6.17635">
        <ele>272</ele>
        <time>2013-07-20T10:47:31Z</time>
      </trkpt>
      <trkpt lat="48.61704" lon="6.17636">
        <ele>277</ele>
        <time>2013-07-20T10:47:39Z</time>
      </trkpt>
      <trkpt lat="48.61699" lon="6.17636">
        <ele>277</ele>
        <time>2013-07-20T10:47:40Z</time>
      </trkpt>
      <trkpt lat="48.61694" lon="6.17637">
        <ele>277</ele>
        <time>2013-07-20T10:47:42Z</time>
      </trkpt>
      <trkpt lat="48.61689" lon="6.17638">
        <ele>279</ele>
        <time>2013-07-20T10:47:44Z</time>
      </trkpt>
      <trkpt lat="48.61679" lon="6.17641">
        <ele>276</ele>
        <time>2013-07-20T10:47:48Z</time>
      </trkpt>
      <trkpt lat="48.61672" lon="6.17642">
        <ele>278</ele>
        <time>2013-07-20T10:47:50Z</time>
      </trkpt>
      <trkpt lat="48.61665" lon="6.17642">
        <ele>277</ele>
        <time>2013-07-20T10:47:53Z</time>
      </trkpt>
      <trkpt lat="48.61659" lon="6.17642">
        <ele>277</ele>
        <time>2013-07-20T10:47:55Z</time>
      </trkpt>
      <trkpt lat="48.61652" lon="6.17642">
        <ele>278</ele>
        <time>2013-07-20T10:47:56Z</time>
      </trkpt>
      <trkpt lat="48.6165" lon="6.17643">
        <ele>284</ele>
        <time>2013-07-20T10:47:58Z</time>
      </trkpt>
      <trkpt lat="48.61645" lon="6.17646">
        <ele>284</ele>
        <time>2013-07-20T10:48:01Z</time>
      </trkpt>
      <trkpt lat="48.61639" lon="6.17647">
        <ele>283</ele>
        <time>2013-07-20T10:48:03Z</time>
      </trkpt>
      <trkpt lat="48.61634" lon="6.17648">
        <ele>284</ele>
        <time>2013-07-20T10:48:04Z</time>
      </trkpt>
      <trkpt lat="48.61628" lon="6.1765">
        <ele>282</ele>
        <time>2013-07-20T10:48:06Z</time>
      </trkpt>
      <trkpt lat="48.61623" lon="6.17652">
        <ele>282</ele>
        <time>2013-07-20T10:48:09Z</time>
      </trkpt>
      <trkpt lat="48.61618" lon="6.17652">
        <ele>281</ele>
        <time>2013-07-20T10:48:11Z</time>
      </trkpt>
      <trkpt lat="48.61612" lon="6.17651">
        <ele>283</ele>
        <time>2013-07-20T10:48:13Z</time>
      </trkpt>
      <trkpt lat="48.61606" lon="6.17652">
        <ele>281</ele>
        <time>2013-07-20T10:48:15Z</time>
      </trkpt>
      <trkpt lat="48.61601" lon="6.1765">
        <ele>285</ele>
        <time>2013-07-20T10:48:16Z</time>
      </trkpt>
      <trkpt lat="48.61593" lon="6.17649">
        <ele>285</ele>
        <time>2013-07-20T10:48:19Z</time>
      </trkpt>
      <trkpt lat="48.61587" lon="6.17649">
        <ele>280</ele>
        <time>2013-07-20T10:48:21Z</time>
      </trkpt>
      <trkpt lat="48.61579" lon="6.1765">
        <ele>278</ele>
        <time>2013-07-20T10:48:23Z</time>
      </trkpt>
      <trkpt lat="48.61571" lon="6.1765">
        <ele>277</ele>
        <time>2013-07-20T10:48:25Z</time>
      </trkpt>
      <trkpt lat="48.61561" lon="6.17653">
        <ele>275</ele>
        <time>2013-07-20T10:48:26Z</time>
      </trkpt>
      <trkpt lat="48.61552" lon="6.17655">
        <ele>274</ele>
        <time>2013-07-20T10:48:28Z</time>
      </trkpt>
      <trkpt lat="48.61544" lon="6.17656">
        <ele>274</ele>
        <time>2013-07-20T10:48:31Z</time>
      </trkpt>
      <trkpt lat="48.61537" lon="6.17657">
        <ele>276</ele>
        <time>2013-07-20T10:48:33Z</time>
      </trkpt>
      <trkpt lat="48.61529" lon="6.17658">
        <ele>275</ele>
        <time>2013-07-20T10:48:35Z</time>
      </trkpt>
      <trkpt lat="48.61521" lon="6.1766">
        <ele>276</ele>
        <time>2013-07-20T10:48:36Z</time>
      </trkpt>
      <trkpt lat="48.61512" lon="6.17661">
        <ele>277</ele>
        <time>2013-07-20T10:48:39Z</time>
      </trkpt>
      <trkpt lat="48.61503" lon="6.17663">
        <ele>276</ele>
        <time>2013-07-20T10:48:41Z</time>
      </trkpt>
      <trkpt lat="48.61493" lon="6.17665">
        <ele>278</ele>
        <time>2013-07-20T10:48:43Z</time>
      </trkpt>
      <trkpt lat="48.61484" lon="6.17666">
        <ele>276</ele>
        <time>2013-07-20T10:48:45Z</time>
      </trkpt>
      <trkpt lat="48.61475" lon="6.17667">
        <ele>276</ele>
        <time>2013-07-20T10:48:46Z</time>
      </trkpt>
      <trkpt lat="48.61467" lon="6.17667">
        <ele>277</ele>
        <time>2013-07-20T10:48:48Z</time>
      </trkpt>
      <trkpt lat="48.61458" lon="6.17668">
        <ele>277</ele>
        <time>2013-07-20T10:48:50Z</time>
      </trkpt>
      <trkpt lat="48.61448" lon="6.17672">
        <ele>278</ele>
        <time>2013-07-20T10:48:53Z</time>
      </trkpt>
      <trkpt lat="48.61438" lon="6.17676">
        <ele>277</ele>
        <time>2013-07-20T10:48:54Z</time>
      </trkpt>
      <trkpt lat="48.61429" lon="6.1768">
        <ele>277</ele>
        <time>2013-07-20T10:48:56Z</time>
      </trkpt>
      <trkpt lat="48.61421" lon="6.17683">
        <ele>277</ele>
        <time>2013-07-20T10:48:58Z</time>
      </trkpt>
      <trkpt lat="48.61412" lon="6.17688">
        <ele>277</ele>
        <time>2013-07-20T10:49:00Z</time>
      </trkpt>
      <trkpt lat="48.61404" lon="6.17692">
        <ele>276</ele>
        <time>2013-07-20T10:49:02Z</time>
      </trkpt>
      <trkpt lat="48.61393" lon="6.17696">
        <ele>277</ele>
        <time>2013-07-20T10:49:05Z</time>
      </trkpt>
      <trkpt lat="48.61383" lon="6.17699">
        <ele>278</ele>
        <time>2013-07-20T10:49:06Z</time>
      </trkpt>
      <trkpt lat="48.6137" lon="6.177">
        <ele>277</ele>
        <time>2013-07-20T10:49:09Z</time>
      </trkpt>
      <trkpt lat="48.61356" lon="6.17698">
        <ele>277</ele>
        <time>2013-07-20T10:49:11Z</time>
      </trkpt>
      <trkpt lat="48.6134" lon="6.17693">
        <ele>276</ele>
        <time>2013-07-20T10:49:13Z</time>
      </trkpt>
      <trkpt lat="48.61323" lon="6.17685">
        <ele>273</ele>
        <time>2013-07-20T10:49:15Z</time>
      </trkpt>
      <trkpt lat="48.61306" lon="6.17675">
        <ele>271</ele>
        <time>2013-07-20T10:49:16Z</time>
      </trkpt>
      <trkpt lat="48.61289" lon="6.17662">
        <ele>270</ele>
        <time>2013-07-20T10:49:18Z</time>
      </trkpt>
      <trkpt lat="48.61269" lon="6.17645">
        <ele>269</ele>
        <time>2013-07-20T10:49:20Z</time>
      </trkpt>
      <trkpt lat="48.61252" lon="6.17624">
        <ele>267</ele>
        <time>2013-07-20T10:49:23Z</time>
      </trkpt>
      <trkpt lat="48.61238" lon="6.17599">
        <ele>263</ele>
        <time>2013-07-20T10:49:25Z</time>
      </trkpt>
      <trkpt lat="48.61226" lon="6.1757">
        <ele>260</ele>
        <time>2013-07-20T10:49:26Z</time>
      </trkpt>
      <trkpt lat="48.61214" lon="6.1754">
        <ele>259</ele>
        <time>2013-07-20T10:49:29Z</time>
      </trkpt>
      <trkpt lat="48.61201" lon="6.17508">
        <ele>259</ele>
        <time>2013-07-20T10:49:30Z</time>
      </trkpt>
      <trkpt lat="48.61186" lon="6.17481">
        <ele>258</ele>
        <time>2013-07-20T10:49:32Z</time>
      </trkpt>
      <trkpt lat="48.61165" lon="6.17462">
        <ele>256</ele>
        <time>2013-07-20T10:49:35Z</time>
      </trkpt>
      <trkpt lat="48.61142" lon="6.17445">
        <ele>257</ele>
        <time>2013-07-20T10:49:36Z</time>
      </trkpt>
      <trkpt lat="48.61117" lon="6.17432">
        <ele>258</ele>
        <time>2013-07-20T10:49:39Z</time>
      </trkpt>
      <trkpt lat="48.61096" lon="6.17423">
        <ele>258</ele>
        <time>2013-07-20T10:49:41Z</time>
      </trkpt>
      <trkpt lat="48.61075" lon="6.17415">
        <ele>259</ele>
        <time>2013-07-20T10:49:42Z</time>
      </trkpt>
      <trkpt lat="48.61054" lon="6.17409">
        <ele>261</ele>
        <time>2013-07-20T10:49:45Z</time>
      </trkpt>
      <trkpt lat="48.61034" lon="6.17403">
        <ele>261</ele>
        <time>2013-07-20T10:49:46Z</time>
      </trkpt>
      <trkpt lat="48.61012" lon="6.17397">
        <ele>254</ele>
        <time>2013-07-20T10:49:48Z</time>
      </trkpt>
      <trkpt lat="48.60999" lon="6.17385">
        <ele>247</ele>
        <time>2013-07-20T10:49:50Z</time>
      </trkpt>
      <trkpt lat="48.60982" lon="6.17379">
        <ele>247</ele>
        <time>2013-07-20T10:49:52Z</time>
      </trkpt>
      <trkpt lat="48.60966" lon="6.17374">
        <ele>243</ele>
        <time>2013-07-20T10:49:55Z</time>
      </trkpt>
      <trkpt lat="48.60949" lon="6.17369">
        <ele>242</ele>
        <time>2013-07-20T10:49:56Z</time>
      </trkpt>
      <trkpt lat="48.60939" lon="6.17356">
        <ele>241</ele>
        <time>2013-07-20T10:49:58Z</time>
      </trkpt>
      <trkpt lat="48.60932" lon="6.1734">
        <ele>242</ele>
        <time>2013-07-20T10:50:00Z</time>
      </trkpt>
      <trkpt lat="48.60923" lon="6.17328">
        <ele>242</ele>
        <time>2013-07-20T10:50:03Z</time>
      </trkpt>
      <trkpt lat="48.60913" lon="6.17322">
        <ele>242</ele>
        <time>2013-07-20T10:50:04Z</time>
      </trkpt>
      <trkpt lat="48.60901" lon="6.17326">
        <ele>243</ele>
        <time>2013-07-20T10:50:06Z</time>
      </trkpt>
      <trkpt lat="48.60889" lon="6.17335">
        <ele>244</ele>
        <time>2013-07-20T10:50:08Z</time>
      </trkpt>
      <trkpt lat="48.6088" lon="6.17347">
        <ele>244</ele>
        <time>2013-07-20T10:50:11Z</time>
      </trkpt>
      <trkpt lat="48.60871" lon="6.17359">
        <ele>244</ele>
        <time>2013-07-20T10:50:12Z</time>
      </trkpt>
      <trkpt lat="48.60862" lon="6.17366">
        <ele>244</ele>
        <time>2013-07-20T10:50:15Z</time>
      </trkpt>
      <trkpt lat="48.60851" lon="6.17366">
        <ele>245</ele>
        <time>2013-07-20T10:50:16Z</time>
      </trkpt>
      <trkpt lat="48.60842" lon="6.17365">
        <ele>243</ele>
        <time>2013-07-20T10:50:18Z</time>
      </trkpt>
      <trkpt lat="48.60833" lon="6.17368">
        <ele>243</ele>
        <time>2013-07-20T10:50:20Z</time>
      </trkpt>
      <trkpt lat="48.6083" lon="6.17378">
        <ele>245</ele>
        <time>2013-07-20T10:50:23Z</time>
      </trkpt>
      <trkpt lat="48.6083" lon="6.1739">
        <ele>246</ele>
        <time>2013-07-20T10:50:24Z</time>
      </trkpt>
      <trkpt lat="48.60831" lon="6.17402">
        <ele>248</ele>
        <time>2013-07-20T10:50:26Z</time>
      </trkpt>
      <trkpt lat="48.6083" lon="6.17414">
        <ele>251</ele>
        <time>2013-07-20T10:50:29Z</time>
      </trkpt>
      <trkpt lat="48.60829" lon="6.17428">
        <ele>250</ele>
        <time>2013-07-20T10:50:31Z</time>
      </trkpt>
      <trkpt lat="48.60828" lon="6.17444">
        <ele>249</ele>
        <time>2013-07-20T10:50:32Z</time>
      </trkpt>
      <trkpt lat="48.60827" lon="6.17459">
        <ele>249</ele>
        <time>2013-07-20T10:50:35Z</time>
      </trkpt>
      <trkpt lat="48.60826" lon="6.17476">
        <ele>247</ele>
        <time>2013-07-20T10:50:36Z</time>
      </trkpt>
      <trkpt lat="48.60825" lon="6.17493">
        <ele>246</ele>
        <time>2013-07-20T10:50:38Z</time>
      </trkpt>
      <trkpt lat="48.60823" lon="6.1751">
        <ele>246</ele>
        <time>2013-07-20T10:50:41Z</time>
      </trkpt>
      <trkpt lat="48.60822" lon="6.17527">
        <ele>248</ele>
        <time>2013-07-20T10:50:43Z</time>
      </trkpt>
      <trkpt lat="48.60822" lon="6.17542">
        <ele>247</ele>
        <time>2013-07-20T10:50:45Z</time>
      </trkpt>
      <trkpt lat="48.60823" lon="6.17559">
        <ele>247</ele>
        <time>2013-07-20T10:50:46Z</time>
      </trkpt>
      <trkpt lat="48.60823" lon="6.17578">
        <ele>248</ele>
        <time>2013-07-20T10:50:49Z</time>
      </trkpt>
      <trkpt lat="48.60824" lon="6.17595">
        <ele>249</ele>
        <time>2013-07-20T10:50:51Z</time>
      </trkpt>
      <trkpt lat="48.60825" lon="6.17612">
        <ele>251</ele>
        <time>2013-07-20T10:50:53Z</time>
      </trkpt>
      <trkpt lat="48.60828" lon="6.17631">
        <ele>254</ele>
        <time>2013-07-20T10:50:54Z</time>
      </trkpt>
      <trkpt lat="48.60829" lon="6.1765">
        <ele>253</ele>
        <time>2013-07-20T10:50:56Z</time>
      </trkpt>
      <trkpt lat="48.60829" lon="6.17669">
        <ele>252</ele>
        <time>2013-07-20T10:50:59Z</time>
      </trkpt>
      <trkpt lat="48.60829" lon="6.17687">
        <ele>252</ele>
        <time>2013-07-20T10:51:01Z</time>
      </trkpt>
      <trkpt lat="48.60828" lon="6.17706">
        <ele>253</ele>
        <time>2013-07-20T10:51:03Z</time>
      </trkpt>
      <trkpt lat="48.60827" lon="6.17724">
        <ele>254</ele>
        <time>2013-07-20T10:51:05Z</time>
      </trkpt>
      <trkpt lat="48.60827" lon="6.17743">
        <ele>257</ele>
        <time>2013-07-20T10:51:06Z</time>
      </trkpt>
      <trkpt lat="48.60826" lon="6.17761">
        <ele>256</ele>
        <time>2013-07-20T10:51:08Z</time>
      </trkpt>
      <trkpt lat="48.60825" lon="6.17778">
        <ele>254</ele>
        <time>2013-07-20T10:51:11Z</time>
      </trkpt>
      <trkpt lat="48.60823" lon="6.17796">
        <ele>255</ele>
        <time>2013-07-20T10:51:13Z</time>
      </trkpt>
      <trkpt lat="48.60822" lon="6.17811">
        <ele>253</ele>
        <time>2013-07-20T10:51:15Z</time>
      </trkpt>
      <trkpt lat="48.60822" lon="6.17831">
        <ele>257</ele>
        <time>2013-07-20T10:51:17Z</time>
      </trkpt>
      <trkpt lat="48.60823" lon="6.17852">
        <ele>262</ele>
        <time>2013-07-20T10:51:19Z</time>
      </trkpt>
      <trkpt lat="48.60824" lon="6.17873">
        <ele>259</ele>
        <time>2013-07-20T10:51:21Z</time>
      </trkpt>
      <trkpt lat="48.60823" lon="6.17894">
        <ele>261</ele>
        <time>2013-07-20T10:51:23Z</time>
      </trkpt>
      <trkpt lat="48.60823" lon="6.17915">
        <ele>259</ele>
        <time>2013-07-20T10:51:25Z</time>
      </trkpt>
      <trkpt lat="48.60823" lon="6.17934">
        <ele>258</ele>
        <time>2013-07-20T10:51:26Z</time>
      </trkpt>
      <trkpt lat="48.60823" lon="6.17952">
        <ele>253</ele>
        <time>2013-07-20T10:51:29Z</time>
      </trkpt>
      <trkpt lat="48.60826" lon="6.17973">
        <ele>259</ele>
        <time>2013-07-20T10:51:30Z</time>
      </trkpt>
      <trkpt lat="48.60827" lon="6.17994">
        <ele>260</ele>
        <time>2013-07-20T10:51:33Z</time>
      </trkpt>
      <trkpt lat="48.60827" lon="6.18015">
        <ele>260</ele>
        <time>2013-07-20T10:51:35Z</time>
      </trkpt>
      <trkpt lat="48.60827" lon="6.18037">
        <ele>261</ele>
        <time>2013-07-20T10:51:37Z</time>
      </trkpt>
      <trkpt lat="48.60827" lon="6.18059">
        <ele>261</ele>
        <time>2013-07-20T10:51:39Z</time>
      </trkpt>
      <trkpt lat="48.60828" lon="6.18082">
        <ele>263</ele>
        <time>2013-07-20T10:51:41Z</time>
      </trkpt>
      <trkpt lat="48.60828" lon="6.18103">
        <ele>262</ele>
        <time>2013-07-20T10:51:42Z</time>
      </trkpt>
      <trkpt lat="48.60828" lon="6.18123">
        <ele>260</ele>
        <time>2013-07-20T10:51:45Z</time>
      </trkpt>
      <trkpt lat="48.60828" lon="6.18144">
        <ele>263</ele>
        <time>2013-07-20T10:51:47Z</time>
      </trkpt>
      <trkpt lat="48.60827" lon="6.18165">
        <ele>265</ele>
        <time>2013-07-20T10:51:49Z</time>
      </trkpt>
      <trkpt lat="48.60827" lon="6.18184">
        <ele>261</ele>
        <time>2013-07-20T10:51:51Z</time>
      </trkpt>
      <trkpt lat="48.60827" lon="6.18203">
        <ele>268</ele>
        <time>2013-07-20T10:51:53Z</time>
      </trkpt>
      <trkpt lat="48.60826" lon="6.18222">
        <ele>269</ele>
        <time>2013-07-20T10:51:55Z</time>
      </trkpt>
      <trkpt lat="48.60825" lon="6.18242">
        <ele>268</ele>
        <time>2013-07-20T10:51:56Z</time>
      </trkpt>
      <trkpt lat="48.60825" lon="6.18261">
        <ele>269</ele>
        <time>2013-07-20T10:51:58Z</time>
      </trkpt>
      <trkpt lat="48.60826" lon="6.18283">
        <ele>270</ele>
        <time>2013-07-20T10:52:00Z</time>
      </trkpt>
      <trkpt lat="48.60828" lon="6.18305">
        <ele>271</ele>
        <time>2013-07-20T10:52:03Z</time>
      </trkpt>
      <trkpt lat="48.6083" lon="6.18326">
        <ele>273</ele>
        <time>2013-07-20T10:52:05Z</time>
      </trkpt>
      <trkpt lat="48.60831" lon="6.18346">
        <ele>275</ele>
        <time>2013-07-20T10:52:06Z</time>
      </trkpt>
      <trkpt lat="48.6083" lon="6.18367">
        <ele>273</ele>
        <time>2013-07-20T10:52:08Z</time>
      </trkpt>
      <trkpt lat="48.6083" lon="6.18389">
        <ele>272</ele>
        <time>2013-07-20T10:52:11Z</time>
      </trkpt>
      <trkpt lat="48.60829" lon="6.1841">
        <ele>273</ele>
        <time>2013-07-20T10:52:13Z</time>
      </trkpt>
      <trkpt lat="48.60828" lon="6.18431">
        <ele>273</ele>
        <time>2013-07-20T10:52:15Z</time>
      </trkpt>
      <trkpt lat="48.60828" lon="6.18451">
        <ele>274</ele>
        <time>2013-07-20T10:52:16Z</time>
      </trkpt>
      <trkpt lat="48.60827" lon="6.18473">
        <ele>272</ele>
        <time>2013-07-20T10:52:18Z</time>
      </trkpt>
      <trkpt lat="48.60828" lon="6.18493">
        <ele>272</ele>
        <time>2013-07-20T10:52:21Z</time>
      </trkpt>
      <trkpt lat="48.6083" lon="6.18514">
        <ele>273</ele>
        <time>2013-07-20T10:52:23Z</time>
      </trkpt>
      <trkpt lat="48.60832" lon="6.18533">
        <ele>274</ele>
        <time>2013-07-20T10:52:25Z</time>
      </trkpt>
      <trkpt lat="48.60835" lon="6.18553">
        <ele>276</ele>
        <time>2013-07-20T10:52:26Z</time>
      </trkpt>
      <trkpt lat="48.60836" lon="6.18574">
        <ele>275</ele>
        <time>2013-07-20T10:52:28Z</time>
      </trkpt>
      <trkpt lat="48.60839" lon="6.18592">
        <ele>276</ele>
        <time>2013-07-20T10:52:31Z</time>
      </trkpt>
      <trkpt lat="48.60843" lon="6.18611">
        <ele>276</ele>
        <time>2013-07-20T10:52:33Z</time>
      </trkpt>
      <trkpt lat="48.60846" lon="6.18629">
        <ele>273</ele>
        <time>2013-07-20T10:52:34Z</time>
      </trkpt>
      <trkpt lat="48.6085" lon="6.18647">
        <ele>273</ele>
        <time>2013-07-20T10:52:36Z</time>
      </trkpt>
      <trkpt lat="48.60854" lon="6.18667">
        <ele>272</ele>
        <time>2013-07-20T10:52:38Z</time>
      </trkpt>
      <trkpt lat="48.60859" lon="6.18685">
        <ele>272</ele>
        <time>2013-07-20T10:52:41Z</time>
      </trkpt>
      <trkpt lat="48.60864" lon="6.18701">
        <ele>271</ele>
        <time>2013-07-20T10:52:42Z</time>
      </trkpt>
      <trkpt lat="48.6087" lon="6.18718">
        <ele>269</ele>
        <time>2013-07-20T10:52:45Z</time>
      </trkpt>
      <trkpt lat="48.60875" lon="6.18733">
        <ele>269</ele>
        <time>2013-07-20T10:52:46Z</time>
      </trkpt>
      <trkpt lat="48.60879" lon="6.18748">
        <ele>266</ele>
        <time>2013-07-20T10:52:48Z</time>
      </trkpt>
      <trkpt lat="48.60884" lon="6.18762">
        <ele>266</ele>
        <time>2013-07-20T10:52:51Z</time>
      </trkpt>
      <trkpt lat="48.60888" lon="6.18779">
        <ele>265</ele>
        <time>2013-07-20T10:52:53Z</time>
      </trkpt>
      <trkpt lat="48.60894" lon="6.18794">
        <ele>265</ele>
        <time>2013-07-20T10:52:55Z</time>
      </trkpt>
      <trkpt lat="48.60901" lon="6.18811">
        <ele>269</ele>
        <time>2013-07-20T10:52:56Z</time>
      </trkpt>
      <trkpt lat="48.60908" lon="6.18826">
        <ele>273</ele>
        <time>2013-07-20T10:52:59Z</time>
      </trkpt>
      <trkpt lat="48.60916" lon="6.18843">
        <ele>267</ele>
        <time>2013-07-20T10:53:01Z</time>
      </trkpt>
      <trkpt lat="48.60923" lon="6.18858">
        <ele>271</ele>
        <time>2013-07-20T10:53:03Z</time>
      </trkpt>
      <trkpt lat="48.6093" lon="6.18873">
        <ele>270</ele>
        <time>2013-07-20T10:53:05Z</time>
      </trkpt>
      <trkpt lat="48.60936" lon="6.18888">
        <ele>272</ele>
        <time>2013-07-20T10:53:06Z</time>
      </trkpt>
      <trkpt lat="48.60943" lon="6.18902">
        <ele>275</ele>
        <time>2013-07-20T10:53:09Z</time>
      </trkpt>
      <trkpt lat="48.60948" lon="6.18916">
        <ele>276</ele>
        <time>2013-07-20T10:53:11Z</time>
      </trkpt>
      <trkpt lat="48.60954" lon="6.18931">
        <ele>278</ele>
        <time>2013-07-20T10:53:12Z</time>
      </trkpt>
      <trkpt lat="48.6096" lon="6.18946">
        <ele>277</ele>
        <time>2013-07-20T10:53:15Z</time>
      </trkpt>
      <trkpt lat="48.60968" lon="6.1896">
        <ele>277</ele>
        <time>2013-07-20T10:53:16Z</time>
      </trkpt>
      <trkpt lat="48.60977" lon="6.18976">
        <ele>282</ele>
        <time>2013-07-20T10:53:19Z</time>
      </trkpt>
      <trkpt lat="48.60986" lon="6.18991">
        <ele>283</ele>
        <time>2013-07-20T10:53:20Z</time>
      </trkpt>
      <trkpt lat="48.60995" lon="6.19007">
        <ele>284</ele>
        <time>2013-07-20T10:53:23Z</time>
      </trkpt>
      <trkpt lat="48.61002" lon="6.19021">
        <ele>283</ele>
        <time>2013-07-20T10:53:25Z</time>
      </trkpt>
      <trkpt lat="48.6101" lon="6.19036">
        <ele>289</ele>
        <time>2013-07-20T10:53:27Z</time>
      </trkpt>
      <trkpt lat="48.61018" lon="6.19051">
        <ele>291</ele>
        <time>2013-07-20T10:53:28Z</time>
      </trkpt>
      <trkpt lat="48.61023" lon="6.19064">
        <ele>287</ele>
        <time>2013-07-20T10:53:31Z</time>
      </trkpt>
      <trkpt lat="48.61028" lon="6.1908">
        <ele>284</ele>
        <time>2013-07-20T10:53:33Z</time>
      </trkpt>
      <trkpt lat="48.61035" lon="6.19096">
        <ele>279</ele>
        <time>2013-07-20T10:53:35Z</time>
      </trkpt>
      <trkpt lat="48.61042" lon="6.1911">
        <ele>280</ele>
        <time>2013-07-20T10:53:36Z</time>
      </trkpt>
      <trkpt lat="48.6105" lon="6.19126">
        <ele>285</ele>
        <time>2013-07-20T10:53:39Z</time>
      </trkpt>
      <trkpt lat="48.61058" lon="6.19143">
        <ele>282</ele>
        <time>2013-07-20T10:53:40Z</time>
      </trkpt>
      <trkpt lat="48.61066" lon="6.19161">
        <ele>281</ele>
        <time>2013-07-20T10:53:43Z</time>
      </trkpt>
      <trkpt lat="48.61074" lon="6.19176">
        <ele>280</ele>
        <time>2013-07-20T10:53:45Z</time>
      </trkpt>
      <trkpt lat="48.61081" lon="6.19189">
        <ele>280</ele>
        <time>2013-07-20T10:53:46Z</time>
      </trkpt>
      <trkpt lat="48.61088" lon="6.19202">
        <ele>278</ele>
        <time>2013-07-20T10:53:48Z</time>
      </trkpt>
      <trkpt lat="48.61094" lon="6.19216">
        <ele>281</ele>
        <time>2013-07-20T10:53:50Z</time>
      </trkpt>
      <trkpt lat="48.611" lon="6.19231">
        <ele>279</ele>
        <time>2013-07-20T10:53:53Z</time>
      </trkpt>
      <trkpt lat="48.61106" lon="6.19246">
        <ele>282</ele>
        <time>2013-07-20T10:53:55Z</time>
      </trkpt>
      <trkpt lat="48.61111" lon="6.1926">
        <ele>279</ele>
        <time>2013-07-20T10:53:57Z</time>
      </trkpt>
      <trkpt lat="48.61118" lon="6.19275">
        <ele>275</ele>
        <time>2013-07-20T10:53:59Z</time>
      </trkpt>
      <trkpt lat="48.61126" lon="6.19289">
        <ele>272</ele>
        <time>2013-07-20T10:54:01Z</time>
      </trkpt>
      <trkpt lat="48.61134" lon="6.19304">
        <ele>272</ele>
        <time>2013-07-20T10:54:03Z</time>
      </trkpt>
      <trkpt lat="48.61141" lon="6.1932">
        <ele>271</ele>
        <time>2013-07-20T10:54:05Z</time>
      </trkpt>
      <trkpt lat="48.61147" lon="6.19338">
        <ele>266</ele>
        <time>2013-07-20T10:54:06Z</time>
      </trkpt>
      <trkpt lat="48.61153" lon="6.19354">
        <ele>266</ele>
        <time>2013-07-20T10:54:09Z</time>
      </trkpt>
      <trkpt lat="48.61158" lon="6.1937">
        <ele>268</ele>
        <time>2013-07-20T10:54:11Z</time>
      </trkpt>
      <trkpt lat="48.61163" lon="6.19389">
        <ele>265</ele>
        <time>2013-07-20T10:54:12Z</time>
      </trkpt>
      <trkpt lat="48.61168" lon="6.19404">
        <ele>264</ele>
        <time>2013-07-20T10:54:15Z</time>
      </trkpt>
      <trkpt lat="48.61173" lon="6.19415">
        <ele>263</ele>
        <time>2013-07-20T10:54:16Z</time>
      </trkpt>
      <trkpt lat="48.61179" lon="6.19427">
        <ele>266</ele>
        <time>2013-07-20T10:54:18Z</time>
      </trkpt>
      <trkpt lat="48.61186" lon="6.19439">
        <ele>262</ele>
        <time>2013-07-20T10:54:21Z</time>
      </trkpt>
      <trkpt lat="48.6119" lon="6.19453">
        <ele>259</ele>
        <time>2013-07-20T10:54:23Z</time>
      </trkpt>
      <trkpt lat="48.61196" lon="6.19466">
        <ele>259</ele>
        <time>2013-07-20T10:54:25Z</time>
      </trkpt>
      <trkpt lat="48.61202" lon="6.19481">
        <ele>264</ele>
        <time>2013-07-20T10:54:27Z</time>
      </trkpt>
      <trkpt lat="48.61209" lon="6.19494">
        <ele>263</ele>
        <time>2013-07-20T10:54:28Z</time>
      </trkpt>
      <trkpt lat="48.61217" lon="6.19511">
        <ele>266</ele>
        <time>2013-07-20T10:54:31Z</time>
      </trkpt>
      <trkpt lat="48.61225" lon="6.19528">
        <ele>265</ele>
        <time>2013-07-20T10:54:33Z</time>
      </trkpt>
      <trkpt lat="48.61233" lon="6.19546">
        <ele>262</ele>
        <time>2013-07-20T10:54:35Z</time>
      </trkpt>
      <trkpt lat="48.61241" lon="6.19562">
        <ele>263</ele>
        <time>2013-07-20T10:54:36Z</time>
      </trkpt>
      <trkpt lat="48.61248" lon="6.19579">
        <ele>261</ele>
        <time>2013-07-20T10:54:38Z</time>
      </trkpt>
      <trkpt lat="48.61256" lon="6.19594">
        <ele>258</ele>
        <time>2013-07-20T10:54:40Z</time>
      </trkpt>
      <trkpt lat="48.61262" lon="6.1961">
        <ele>256</ele>
        <time>2013-07-20T10:54:43Z</time>
      </trkpt>
      <trkpt lat="48.6127" lon="6.19628">
        <ele>255</ele>
        <time>2013-07-20T10:54:45Z</time>
      </trkpt>
      <trkpt lat="48.61279" lon="6.19647">
        <ele>257</ele>
        <time>2013-07-20T10:54:46Z</time>
      </trkpt>
      <trkpt lat="48.61288" lon="6.19664">
        <ele>260</ele>
        <time>2013-07-20T10:54:49Z</time>
      </trkpt>
      <trkpt lat="48.61297" lon="6.1968">
        <ele>260</ele>
        <time>2013-07-20T10:54:51Z</time>
      </trkpt>
      <trkpt lat="48.61305" lon="6.19696">
        <ele>260</ele>
        <time>2013-07-20T10:54:53Z</time>
      </trkpt>
      <trkpt lat="48.61314" lon="6.19714">
        <ele>261</ele>
        <time>2013-07-20T10:54:55Z</time>
      </trkpt>
      <trkpt lat="48.61322" lon="6.19731">
        <ele>264</ele>
        <time>2013-07-20T10:54:56Z</time>
      </trkpt>
      <trkpt lat="48.61331" lon="6.1975">
        <ele>261</ele>
        <time>2013-07-20T10:54:58Z</time>
      </trkpt>
      <trkpt lat="48.61339" lon="6.19766">
        <ele>260</ele>
        <time>2013-07-20T10:55:01Z</time>
      </trkpt>
      <trkpt lat="48.61348" lon="6.19783">
        <ele>257</ele>
        <time>2013-07-20T10:55:03Z</time>
      </trkpt>
      <trkpt lat="48.61358" lon="6.19802">
        <ele>258</ele>
        <time>2013-07-20T10:55:05Z</time>
      </trkpt>
      <trkpt lat="48.61367" lon="6.1982">
        <ele>259</ele>
        <time>2013-07-20T10:55:06Z</time>
      </trkpt>
      <trkpt lat="48.61377" lon="6.19836">
        <ele>266</ele>
        <time>2013-07-20T10:55:08Z</time>
      </trkpt>
      <trkpt lat="48.61387" lon="6.19853">
        <ele>268</ele>
        <time>2013-07-20T10:55:10Z</time>
      </trkpt>
      <trkpt lat="48.61396" lon="6.19867">
        <ele>271</ele>
        <time>2013-07-20T10:55:12Z</time>
      </trkpt>
      <trkpt lat="48.61405" lon="6.19881">
        <ele>266</ele>
        <time>2013-07-20T10:55:14Z</time>
      </trkpt>
      <trkpt lat="48.61414" lon="6.19894">
        <ele>264</ele>
        <time>2013-07-20T10:55:16Z</time>
      </trkpt>
      <trkpt lat="48.61422" lon="6.19906">
        <ele>264</ele>
        <time>2013-07-20T10:55:18Z</time>
      </trkpt>
      <trkpt lat="48.6143" lon="6.19918">
        <ele>264</ele>
        <time>2013-07-20T10:55:20Z</time>
      </trkpt>
      <trkpt lat="48.61438" lon="6.1993">
        <ele>263</ele>
        <time>2013-07-20T10:55:23Z</time>
      </trkpt>
      <trkpt lat="48.61445" lon="6.1994">
        <ele>260</ele>
        <time>2013-07-20T10:55:25Z</time>
      </trkpt>
      <trkpt lat="48.61451" lon="6.19951">
        <ele>263</ele>
        <time>2013-07-20T10:55:26Z</time>
      </trkpt>
      <trkpt lat="48.61456" lon="6.19961">
        <ele>259</ele>
        <time>2013-07-20T10:55:28Z</time>
      </trkpt>
      <trkpt lat="48.61461" lon="6.1997">
        <ele>260</ele>
        <time>2013-07-20T10:55:30Z</time>
      </trkpt>
      <trkpt lat="48.61469" lon="6.19982">
        <ele>255</ele>
        <time>2013-07-20T10:55:32Z</time>
      </trkpt>
      <trkpt lat="48.61476" lon="6.19995">
        <ele>252</ele>
        <time>2013-07-20T10:55:34Z</time>
      </trkpt>
      <trkpt lat="48.61482" lon="6.20006">
        <ele>252</ele>
        <time>2013-07-20T10:55:36Z</time>
      </trkpt>
      <trkpt lat="48.61489" lon="6.20015">
        <ele>252</ele>
        <time>2013-07-20T10:55:38Z</time>
      </trkpt>
      <trkpt lat="48.61497" lon="6.20025">
        <ele>254</ele>
        <time>2013-07-20T10:55:41Z</time>
      </trkpt>
      <trkpt lat="48.61505" lon="6.20035">
        <ele>254</ele>
        <time>2013-07-20T10:55:43Z</time>
      </trkpt>
      <trkpt lat="48.61509" lon="6.20039">
        <ele>253</ele>
        <time>2013-07-20T10:55:44Z</time>
      </trkpt>
      <trkpt lat="48.61512" lon="6.20044">
        <ele>249</ele>
        <time>2013-07-20T10:55:45Z</time>
      </trkpt>
      <trkpt lat="48.61519" lon="6.20054">
        <ele>246</ele>
        <time>2013-07-20T10:55:46Z</time>
      </trkpt>
      <trkpt lat="48.61527" lon="6.20064">
        <ele>242</ele>
        <time>2013-07-20T10:55:49Z</time>
      </trkpt>
      <trkpt lat="48.61536" lon="6.20074">
        <ele>241</ele>
        <time>2013-07-20T10:55:50Z</time>
      </trkpt>
      <trkpt lat="48.61545" lon="6.20083">
        <ele>241</ele>
        <time>2013-07-20T10:55:52Z</time>
      </trkpt>
      <trkpt lat="48.61554" lon="6.20092">
        <ele>240</ele>
        <time>2013-07-20T10:55:54Z</time>
      </trkpt>
      <trkpt lat="48.61563" lon="6.20102">
        <ele>241</ele>
        <time>2013-07-20T10:55:57Z</time>
      </trkpt>
      <trkpt lat="48.61573" lon="6.20112">
        <ele>244</ele>
        <time>2013-07-20T10:55:59Z</time>
      </trkpt>
      <trkpt lat="48.61584" lon="6.20124">
        <ele>244</ele>
        <time>2013-07-20T10:56:00Z</time>
      </trkpt>
      <trkpt lat="48.61595" lon="6.20135">
        <ele>244</ele>
        <time>2013-07-20T10:56:03Z</time>
      </trkpt>
      <trkpt lat="48.61608" lon="6.20145">
        <ele>243</ele>
        <time>2013-07-20T10:56:05Z</time>
      </trkpt>
      <trkpt lat="48.6162" lon="6.20155">
        <ele>243</ele>
        <time>2013-07-20T10:56:06Z</time>
      </trkpt>
      <trkpt lat="48.61631" lon="6.20165">
        <ele>245</ele>
        <time>2013-07-20T10:56:08Z</time>
      </trkpt>
      <trkpt lat="48.61642" lon="6.20175">
        <ele>247</ele>
        <time>2013-07-20T10:56:10Z</time>
      </trkpt>
      <trkpt lat="48.61652" lon="6.20184">
        <ele>248</ele>
        <time>2013-07-20T10:56:13Z</time>
      </trkpt>
      <trkpt lat="48.61661" lon="6.20192">
        <ele>249</ele>
        <time>2013-07-20T10:56:15Z</time>
      </trkpt>
      <trkpt lat="48.6167" lon="6.20201">
        <ele>248</ele>
        <time>2013-07-20T10:56:16Z</time>
      </trkpt>
      <trkpt lat="48.6168" lon="6.20208">
        <ele>249</ele>
        <time>2013-07-20T10:56:18Z</time>
      </trkpt>
      <trkpt lat="48.61688" lon="6.20215">
        <ele>249</ele>
        <time>2013-07-20T10:56:20Z</time>
      </trkpt>
      <trkpt lat="48.61696" lon="6.20222">
        <ele>250</ele>
        <time>2013-07-20T10:56:23Z</time>
      </trkpt>
      <trkpt lat="48.61705" lon="6.20229">
        <ele>249</ele>
        <time>2013-07-20T10:56:25Z</time>
      </trkpt>
      <trkpt lat="48.61714" lon="6.20237">
        <ele>249</ele>
        <time>2013-07-20T10:56:26Z</time>
      </trkpt>
      <trkpt lat="48.61723" lon="6.20246">
        <ele>249</ele>
        <time>2013-07-20T10:56:29Z</time>
      </trkpt>
      <trkpt lat="48.61731" lon="6.20254">
        <ele>249</ele>
        <time>2013-07-20T10:56:31Z</time>
      </trkpt>
      <trkpt lat="48.6174" lon="6.20261">
        <ele>248</ele>
        <time>2013-07-20T10:56:33Z</time>
      </trkpt>
      <trkpt lat="48.61748" lon="6.20267">
        <ele>246</ele>
        <time>2013-07-20T10:56:35Z</time>
      </trkpt>
      <trkpt lat="48.61755" lon="6.20274">
        <ele>245</ele>
        <time>2013-07-20T10:56:37Z</time>
      </trkpt>
      <trkpt lat="48.61763" lon="6.20281">
        <ele>245</ele>
        <time>2013-07-20T10:56:38Z</time>
      </trkpt>
      <trkpt lat="48.6177" lon="6.20287">
        <ele>245</ele>
        <time>2013-07-20T10:56:40Z</time>
      </trkpt>
      <trkpt lat="48.61776" lon="6.20293">
        <ele>246</ele>
        <time>2013-07-20T10:56:42Z</time>
      </trkpt>
      <trkpt lat="48.61781" lon="6.20303">
        <ele>247</ele>
        <time>2013-07-20T10:56:45Z</time>
      </trkpt>
      <trkpt lat="48.61781" lon="6.20316">
        <ele>247</ele>
        <time>2013-07-20T10:56:46Z</time>
      </trkpt>
      <trkpt lat="48.61774" lon="6.20326">
        <ele>247</ele>
        <time>2013-07-20T10:56:49Z</time>
      </trkpt>
      <trkpt lat="48.61768" lon="6.20333">
        <ele>249</ele>
        <time>2013-07-20T10:56:51Z</time>
      </trkpt>
      <trkpt lat="48.6176" lon="6.2034">
        <ele>253</ele>
        <time>2013-07-20T10:56:52Z</time>
      </trkpt>
      <trkpt lat="48.61752" lon="6.20349">
        <ele>251</ele>
        <time>2013-07-20T10:56:54Z</time>
      </trkpt>
      <trkpt lat="48.61741" lon="6.20369">
        <ele>250</ele>
        <time>2013-07-20T10:56:58Z</time>
      </trkpt>
      <trkpt lat="48.61731" lon="6.2038">
        <ele>249</ele>
        <time>2013-07-20T10:57:00Z</time>
      </trkpt>
      <trkpt lat="48.6172" lon="6.20388">
        <ele>247</ele>
        <time>2013-07-20T10:57:03Z</time>
      </trkpt>
      <trkpt lat="48.6171" lon="6.2039">
        <ele>245</ele>
        <time>2013-07-20T10:57:05Z</time>
      </trkpt>
      <trkpt lat="48.617" lon="6.20392">
        <ele>244</ele>
        <time>2013-07-20T10:57:07Z</time>
      </trkpt>
      <trkpt lat="48.61687" lon="6.20394">
        <ele>243</ele>
        <time>2013-07-20T10:57:08Z</time>
      </trkpt>
      <trkpt lat="48.61675" lon="6.20397">
        <ele>243</ele>
        <time>2013-07-20T10:57:11Z</time>
      </trkpt>
      <trkpt lat="48.61664" lon="6.20395">
        <ele>243</ele>
        <time>2013-07-20T10:57:13Z</time>
      </trkpt>
      <trkpt lat="48.61651" lon="6.2039">
        <ele>241</ele>
        <time>2013-07-20T10:57:15Z</time>
      </trkpt>
      <trkpt lat="48.61638" lon="6.20382">
        <ele>239</ele>
        <time>2013-07-20T10:57:16Z</time>
      </trkpt>
      <trkpt lat="48.61626" lon="6.20373">
        <ele>238</ele>
        <time>2013-07-20T10:57:18Z</time>
      </trkpt>
      <trkpt lat="48.61615" lon="6.20364">
        <ele>239</ele>
        <time>2013-07-20T10:57:21Z</time>
      </trkpt>
      <trkpt lat="48.61604" lon="6.20355">
        <ele>239</ele>
        <time>2013-07-20T10:57:23Z</time>
      </trkpt>
      <trkpt lat="48.61593" lon="6.20345">
        <ele>239</ele>
        <time>2013-07-20T10:57:24Z</time>
      </trkpt>
      <trkpt lat="48.61582" lon="6.20336">
        <ele>240</ele>
        <time>2013-07-20T10:57:26Z</time>
      </trkpt>
      <trkpt lat="48.61571" lon="6.20328">
        <ele>241</ele>
        <time>2013-07-20T10:57:29Z</time>
      </trkpt>
      <trkpt lat="48.6156" lon="6.20318">
        <ele>240</ele>
        <time>2013-07-20T10:57:31Z</time>
      </trkpt>
      <trkpt lat="48.61548" lon="6.20308">
        <ele>240</ele>
        <time>2013-07-20T10:57:33Z</time>
      </trkpt>
      <trkpt lat="48.61536" lon="6.20297">
        <ele>239</ele>
        <time>2013-07-20T10:57:35Z</time>
      </trkpt>
      <trkpt lat="48.61523" lon="6.20287">
        <ele>238</ele>
        <time>2013-07-20T10:57:36Z</time>
      </trkpt>
      <trkpt lat="48.61511" lon="6.20279">
        <ele>239</ele>
        <time>2013-07-20T10:57:39Z</time>
      </trkpt>
      <trkpt lat="48.61496" lon="6.20283">
        <ele>237</ele>
        <time>2013-07-20T10:57:41Z</time>
      </trkpt>
      <trkpt lat="48.61485" lon="6.20295">
        <ele>240</ele>
        <time>2013-07-20T10:57:43Z</time>
      </trkpt>
      <trkpt lat="48.61478" lon="6.20312">
        <ele>241</ele>
        <time>2013-07-20T10:57:45Z</time>
      </trkpt>
      <trkpt lat="48.61472" lon="6.20331">
        <ele>240</ele>
        <time>2013-07-20T10:57:47Z</time>
      </trkpt>
      <trkpt lat="48.61467" lon="6.2035">
        <ele>241</ele>
        <time>2013-07-20T10:57:49Z</time>
      </trkpt>
      <trkpt lat="48.61462" lon="6.2037">
        <ele>237</ele>
        <time>2013-07-20T10:57:51Z</time>
      </trkpt>
      <trkpt lat="48.61457" lon="6.20389">
        <ele>236</ele>
        <time>2013-07-20T10:57:53Z</time>
      </trkpt>
      <trkpt lat="48.61453" lon="6.20409">
        <ele>236</ele>
        <time>2013-07-20T10:57:55Z</time>
      </trkpt>
      <trkpt lat="48.6145" lon="6.20427">
        <ele>239</ele>
        <time>2013-07-20T10:57:57Z</time>
      </trkpt>
      <trkpt lat="48.61444" lon="6.20446">
        <ele>237</ele>
        <time>2013-07-20T10:57:59Z</time>
      </trkpt>
      <trkpt lat="48.61437" lon="6.20463">
        <ele>238</ele>
        <time>2013-07-20T10:58:01Z</time>
      </trkpt>
      <trkpt lat="48.61429" lon="6.2048">
        <ele>238</ele>
        <time>2013-07-20T10:58:03Z</time>
      </trkpt>
      <trkpt lat="48.6142" lon="6.20494">
        <ele>238</ele>
        <time>2013-07-20T10:58:05Z</time>
      </trkpt>
      <trkpt lat="48.61412" lon="6.20505">
        <ele>240</ele>
        <time>2013-07-20T10:58:07Z</time>
      </trkpt>
      <trkpt lat="48.61404" lon="6.20515">
        <ele>243</ele>
        <time>2013-07-20T10:58:09Z</time>
      </trkpt>
      <trkpt lat="48.61394" lon="6.20527">
        <ele>245</ele>
        <time>2013-07-20T10:58:11Z</time>
      </trkpt>
      <trkpt lat="48.61382" lon="6.2054">
        <ele>244</ele>
        <time>2013-07-20T10:58:13Z</time>
      </trkpt>
      <trkpt lat="48.61369" lon="6.20554">
        <ele>241</ele>
        <time>2013-07-20T10:58:15Z</time>
      </trkpt>
      <trkpt lat="48.61356" lon="6.20565">
        <ele>242</ele>
        <time>2013-07-20T10:58:17Z</time>
      </trkpt>
      <trkpt lat="48.61345" lon="6.20576">
        <ele>240</ele>
        <time>2013-07-20T10:58:18Z</time>
      </trkpt>
      <trkpt lat="48.61337" lon="6.20579">
        <ele>238</ele>
        <time>2013-07-20T10:58:21Z</time>
      </trkpt>
      <trkpt lat="48.61324" lon="6.20566">
        <ele>237</ele>
        <time>2013-07-20T10:58:23Z</time>
      </trkpt>
      <trkpt lat="48.61315" lon="6.20552">
        <ele>238</ele>
        <time>2013-07-20T10:58:25Z</time>
      </trkpt>
      <trkpt lat="48.61308" lon="6.20542">
        <ele>240</ele>
        <time>2013-07-20T10:58:26Z</time>
      </trkpt>
      <trkpt lat="48.61301" lon="6.20533">
        <ele>239</ele>
        <time>2013-07-20T10:58:29Z</time>
      </trkpt>
      <trkpt lat="48.61295" lon="6.20524">
        <ele>239</ele>
        <time>2013-07-20T10:58:31Z</time>
      </trkpt>
      <trkpt lat="48.6129" lon="6.20516">
        <ele>237</ele>
        <time>2013-07-20T10:58:33Z</time>
      </trkpt>
      <trkpt lat="48.61285" lon="6.20509">
        <ele>238</ele>
        <time>2013-07-20T10:58:35Z</time>
      </trkpt>
      <trkpt lat="48.61279" lon="6.20499">
        <ele>239</ele>
        <time>2013-07-20T10:58:36Z</time>
      </trkpt>
      <trkpt lat="48.61274" lon="6.2049">
        <ele>239</ele>
        <time>2013-07-20T10:58:39Z</time>
      </trkpt>
      <trkpt lat="48.61268" lon="6.20481">
        <ele>239</ele>
        <time>2013-07-20T10:58:41Z</time>
      </trkpt>
      <trkpt lat="48.61262" lon="6.20472">
        <ele>239</ele>
        <time>2013-07-20T10:58:43Z</time>
      </trkpt>
      <trkpt lat="48.61256" lon="6.20463">
        <ele>240</ele>
        <time>2013-07-20T10:58:45Z</time>
      </trkpt>
      <trkpt lat="48.6125" lon="6.20454">
        <ele>241</ele>
        <time>2013-07-20T10:58:47Z</time>
      </trkpt>
      <trkpt lat="48.61244" lon="6.20446">
        <ele>240</ele>
        <time>2013-07-20T10:58:49Z</time>
      </trkpt>
      <trkpt lat="48.61237" lon="6.20437">
        <ele>241</ele>
        <time>2013-07-20T10:58:51Z</time>
      </trkpt>
      <trkpt lat="48.61231" lon="6.20428">
        <ele>241</ele>
        <time>2013-07-20T10:58:53Z</time>
      </trkpt>
      <trkpt lat="48.61226" lon="6.20419">
        <ele>241</ele>
        <time>2013-07-20T10:58:55Z</time>
      </trkpt>
      <trkpt lat="48.61219" lon="6.20408">
        <ele>241</ele>
        <time>2013-07-20T10:58:56Z</time>
      </trkpt>
      <trkpt lat="48.61216" lon="6.204">
        <ele>242</ele>
        <time>2013-07-20T10:58:59Z</time>
      </trkpt>
      <trkpt lat="48.6121" lon="6.2039">
        <ele>241</ele>
        <time>2013-07-20T10:59:00Z</time>
      </trkpt>
      <trkpt lat="48.61204" lon="6.2038">
        <ele>240</ele>
        <time>2013-07-20T10:59:03Z</time>
      </trkpt>
      <trkpt lat="48.61198" lon="6.2037">
        <ele>241</ele>
        <time>2013-07-20T10:59:04Z</time>
      </trkpt>
      <trkpt lat="48.61192" lon="6.20362">
        <ele>241</ele>
        <time>2013-07-20T10:59:06Z</time>
      </trkpt>
      <trkpt lat="48.61185" lon="6.20353">
        <ele>241</ele>
        <time>2013-07-20T10:59:09Z</time>
      </trkpt>
      <trkpt lat="48.61179" lon="6.20344">
        <ele>243</ele>
        <time>2013-07-20T10:59:11Z</time>
      </trkpt>
      <trkpt lat="48.61173" lon="6.20335">
        <ele>243</ele>
        <time>2013-07-20T10:59:13Z</time>
      </trkpt>
      <trkpt lat="48.61167" lon="6.20326">
        <ele>243</ele>
        <time>2013-07-20T10:59:15Z</time>
      </trkpt>
      <trkpt lat="48.61161" lon="6.20317">
        <ele>243</ele>
        <time>2013-07-20T10:59:16Z</time>
      </trkpt>
      <trkpt lat="48.61155" lon="6.20307">
        <ele>243</ele>
        <time>2013-07-20T10:59:18Z</time>
      </trkpt>
      <trkpt lat="48.6115" lon="6.20297">
        <ele>243</ele>
        <time>2013-07-20T10:59:21Z</time>
      </trkpt>
      <trkpt lat="48.61148" lon="6.20284">
        <ele>243</ele>
        <time>2013-07-20T10:59:23Z</time>
      </trkpt>
      <trkpt lat="48.61147" lon="6.20271">
        <ele>244</ele>
        <time>2013-07-20T10:59:25Z</time>
      </trkpt>
      <trkpt lat="48.61141" lon="6.20261">
        <ele>243</ele>
        <time>2013-07-20T10:59:26Z</time>
      </trkpt>
      <trkpt lat="48.61133" lon="6.20258">
        <ele>244</ele>
        <time>2013-07-20T10:59:28Z</time>
      </trkpt>
      <trkpt lat="48.61126" lon="6.20258">
        <ele>245</ele>
        <time>2013-07-20T10:59:31Z</time>
      </trkpt>
      <trkpt lat="48.61116" lon="6.20262">
        <ele>247</ele>
        <time>2013-07-20T10:59:33Z</time>
      </trkpt>
      <trkpt lat="48.61107" lon="6.20267">
        <ele>248</ele>
        <time>2013-07-20T10:59:35Z</time>
      </trkpt>
      <trkpt lat="48.61099" lon="6.20274">
        <ele>249</ele>
        <time>2013-07-20T10:59:37Z</time>
      </trkpt>
      <trkpt lat="48.61092" lon="6.20281">
        <ele>253</ele>
        <time>2013-07-20T10:59:39Z</time>
      </trkpt>
      <trkpt lat="48.61085" lon="6.20288">
        <ele>254</ele>
        <time>2013-07-20T10:59:41Z</time>
      </trkpt>
      <trkpt lat="48.61079" lon="6.20295">
        <ele>257</ele>
        <time>2013-07-20T10:59:43Z</time>
      </trkpt>
      <trkpt lat="48.61072" lon="6.20301">
        <ele>261</ele>
        <time>2013-07-20T10:59:45Z</time>
      </trkpt>
      <trkpt lat="48.61065" lon="6.20307">
        <ele>259</ele>
        <time>2013-07-20T10:59:47Z</time>
      </trkpt>
      <trkpt lat="48.61057" lon="6.20305">
        <ele>254</ele>
        <time>2013-07-20T10:59:49Z</time>
      </trkpt>
      <trkpt lat="48.61051" lon="6.20302">
        <ele>248</ele>
        <time>2013-07-20T10:59:51Z</time>
      </trkpt>
      <trkpt lat="48.61046" lon="6.20295">
        <ele>248</ele>
        <time>2013-07-20T10:59:53Z</time>
      </trkpt>
      <trkpt lat="48.61042" lon="6.20289">
        <ele>248</ele>
        <time>2013-07-20T10:59:55Z</time>
      </trkpt>
      <trkpt lat="48.61039" lon="6.20283">
        <ele>250</ele>
        <time>2013-07-20T10:59:57Z</time>
      </trkpt>
      <trkpt lat="48.61035" lon="6.20276">
        <ele>249</ele>
        <time>2013-07-20T10:59:59Z</time>
      </trkpt>
      <trkpt lat="48.61033" lon="6.20271">
        <ele>251</ele>
        <time>2013-07-20T11:00:01Z</time>
      </trkpt>
      <trkpt lat="48.61032" lon="6.20264">
        <ele>254</ele>
        <time>2013-07-20T11:00:03Z</time>
      </trkpt>
      <trkpt lat="48.61029" lon="6.20256">
        <ele>253</ele>
        <time>2013-07-20T11:00:05Z</time>
      </trkpt>
      <trkpt lat="48.61025" lon="6.20249">
        <ele>257</ele>
        <time>2013-07-20T11:00:06Z</time>
      </trkpt>
      <trkpt lat="48.6102" lon="6.2024">
        <ele>261</ele>
        <time>2013-07-20T11:00:09Z</time>
      </trkpt>
      <trkpt lat="48.61017" lon="6.20231">
        <ele>259</ele>
        <time>2013-07-20T11:00:11Z</time>
      </trkpt>
      <trkpt lat="48.61013" lon="6.2022">
        <ele>259</ele>
        <time>2013-07-20T11:00:13Z</time>
      </trkpt>
      <trkpt lat="48.61009" lon="6.20213">
        <ele>258</ele>
        <time>2013-07-20T11:00:15Z</time>
      </trkpt>
      <trkpt lat="48.61004" lon="6.20205">
        <ele>258</ele>
        <time>2013-07-20T11:00:16Z</time>
      </trkpt>
      <trkpt lat="48.60999" lon="6.20197">
        <ele>258</ele>
        <time>2013-07-20T11:00:19Z</time>
      </trkpt>
      <trkpt lat="48.60994" lon="6.20188">
        <ele>252</ele>
        <time>2013-07-20T11:00:20Z</time>
      </trkpt>
      <trkpt lat="48.60986" lon="6.20183">
        <ele>249</ele>
        <time>2013-07-20T11:00:23Z</time>
      </trkpt>
      <trkpt lat="48.60981" lon="6.20186">
        <ele>248</ele>
        <time>2013-07-20T11:00:25Z</time>
      </trkpt>
      <trkpt lat="48.60975" lon="6.20191">
        <ele>249</ele>
        <time>2013-07-20T11:00:27Z</time>
      </trkpt>
      <trkpt lat="48.60968" lon="6.20197">
        <ele>249</ele>
        <time>2013-07-20T11:00:29Z</time>
      </trkpt>
      <trkpt lat="48.60962" lon="6.20203">
        <ele>249</ele>
        <time>2013-07-20T11:00:31Z</time>
      </trkpt>
      <trkpt lat="48.60955" lon="6.20211">
        <ele>247</ele>
        <time>2013-07-20T11:00:33Z</time>
      </trkpt>
      <trkpt lat="48.60946" lon="6.20219">
        <ele>247</ele>
        <time>2013-07-20T11:00:35Z</time>
      </trkpt>
      <trkpt lat="48.60938" lon="6.20226">
        <ele>248</ele>
        <time>2013-07-20T11:00:37Z</time>
      </trkpt>
      <trkpt lat="48.60928" lon="6.20236">
        <ele>246</ele>
        <time>2013-07-20T11:00:39Z</time>
      </trkpt>
      <trkpt lat="48.60918" lon="6.20246">
        <ele>244</ele>
        <time>2013-07-20T11:00:41Z</time>
      </trkpt>
      <trkpt lat="48.6091" lon="6.20255">
        <ele>243</ele>
        <time>2013-07-20T11:00:43Z</time>
      </trkpt>
      <trkpt lat="48.60901" lon="6.20267">
        <ele>244</ele>
        <time>2013-07-20T11:00:45Z</time>
      </trkpt>
      <trkpt lat="48.60893" lon="6.20286">
        <ele>243</ele>
        <time>2013-07-20T11:00:47Z</time>
      </trkpt>
      <trkpt lat="48.60885" lon="6.20305">
        <ele>243</ele>
        <time>2013-07-20T11:00:49Z</time>
      </trkpt>
      <trkpt lat="48.60878" lon="6.20326">
        <ele>239</ele>
        <time>2013-07-20T11:00:51Z</time>
      </trkpt>
      <trkpt lat="48.6087" lon="6.20348">
        <ele>237</ele>
        <time>2013-07-20T11:00:53Z</time>
      </trkpt>
      <trkpt lat="48.60861" lon="6.2037">
        <ele>236</ele>
        <time>2013-07-20T11:00:55Z</time>
      </trkpt>
      <trkpt lat="48.60851" lon="6.2039">
        <ele>235</ele>
        <time>2013-07-20T11:00:57Z</time>
      </trkpt>
      <trkpt lat="48.60838" lon="6.20409">
        <ele>234</ele>
        <time>2013-07-20T11:00:59Z</time>
      </trkpt>
      <trkpt lat="48.60825" lon="6.20426">
        <ele>233</ele>
        <time>2013-07-20T11:01:01Z</time>
      </trkpt>
      <trkpt lat="48.60812" lon="6.20441">
        <ele>236</ele>
        <time>2013-07-20T11:01:03Z</time>
      </trkpt>
      <trkpt lat="48.60798" lon="6.20452">
        <ele>234</ele>
        <time>2013-07-20T11:01:05Z</time>
      </trkpt>
      <trkpt lat="48.60786" lon="6.20462">
        <ele>233</ele>
        <time>2013-07-20T11:01:07Z</time>
      </trkpt>
      <trkpt lat="48.60778" lon="6.20471">
        <ele>231</ele>
        <time>2013-07-20T11:01:09Z</time>
      </trkpt>
      <trkpt lat="48.60774" lon="6.20478">
        <ele>230</ele>
        <time>2013-07-20T11:01:11Z</time>
      </trkpt>
      <trkpt lat="48.6077" lon="6.20485">
        <ele>232</ele>
        <time>2013-07-20T11:01:13Z</time>
      </trkpt>
      <trkpt lat="48.60762" lon="6.20495">
        <ele>234</ele>
        <time>2013-07-20T11:01:17Z</time>
      </trkpt>
      <trkpt lat="48.60757" lon="6.205">
        <ele>235</ele>
        <time>2013-07-20T11:01:19Z</time>
      </trkpt>
      <trkpt lat="48.60754" lon="6.20504">
        <ele>236</ele>
        <time>2013-07-20T11:01:21Z</time>
      </trkpt>
      <trkpt lat="48.60751" lon="6.20509">
        <ele>239</ele>
        <time>2013-07-20T11:01:23Z</time>
      </trkpt>
      <trkpt lat="48.60746" lon="6.20515">
        <ele>238</ele>
        <time>2013-07-20T11:01:25Z</time>
      </trkpt>
      <trkpt lat="48.60741" lon="6.20523">
        <ele>232</ele>
        <time>2013-07-20T11:01:27Z</time>
      </trkpt>
      <trkpt lat="48.60737" lon="6.20529">
        <ele>234</ele>
        <time>2013-07-20T11:01:29Z</time>
      </trkpt>
      <trkpt lat="48.60733" lon="6.20535">
        <ele>235</ele>
        <time>2013-07-20T11:01:31Z</time>
      </trkpt>
      <trkpt lat="48.60729" lon="6.20541">
        <ele>237</ele>
        <time>2013-07-20T11:01:33Z</time>
      </trkpt>
      <trkpt lat="48.60724" lon="6.20548">
        <ele>238</ele>
        <time>2013-07-20T11:01:35Z</time>
      </trkpt>
      <trkpt lat="48.60719" lon="6.20553">
        <ele>241</ele>
        <time>2013-07-20T11:01:37Z</time>
      </trkpt>
      <trkpt lat="48.60716" lon="6.20558">
        <ele>244</ele>
        <time>2013-07-20T11:01:39Z</time>
      </trkpt>
      <trkpt lat="48.60712" lon="6.20564">
        <ele>244</ele>
        <time>2013-07-20T11:01:41Z</time>
      </trkpt>
      <trkpt lat="48.60708" lon="6.2057">
        <ele>244</ele>
        <time>2013-07-20T11:01:43Z</time>
      </trkpt>
      <trkpt lat="48.60704" lon="6.20576">
        <ele>245</ele>
        <time>2013-07-20T11:01:45Z</time>
      </trkpt>
      <trkpt lat="48.60701" lon="6.20583">
        <ele>245</ele>
        <time>2013-07-20T11:01:47Z</time>
      </trkpt>
      <trkpt lat="48.60698" lon="6.20589">
        <ele>246</ele>
        <time>2013-07-20T11:01:49Z</time>
      </trkpt>
      <trkpt lat="48.60694" lon="6.20595">
        <ele>249</ele>
        <time>2013-07-20T11:01:51Z</time>
      </trkpt>
      <trkpt lat="48.6069" lon="6.20602">
        <ele>250</ele>
        <time>2013-07-20T11:01:53Z</time>
      </trkpt>
      <trkpt lat="48.60687" lon="6.20608">
        <ele>251</ele>
        <time>2013-07-20T11:01:55Z</time>
      </trkpt>
      <trkpt lat="48.60682" lon="6.20615">
        <ele>250</ele>
        <time>2013-07-20T11:01:57Z</time>
      </trkpt>
      <trkpt lat="48.60678" lon="6.20621">
        <ele>250</ele>
        <time>2013-07-20T11:01:59Z</time>
      </trkpt>
      <trkpt lat="48.60674" lon="6.20628">
        <ele>250</ele>
        <time>2013-07-20T11:02:01Z</time>
      </trkpt>
      <trkpt lat="48.60668" lon="6.20641">
        <ele>254</ele>
        <time>2013-07-20T11:02:05Z</time>
      </trkpt>
      <trkpt lat="48.60664" lon="6.20648">
        <ele>254</ele>
        <time>2013-07-20T11:02:07Z</time>
      </trkpt>
      <trkpt lat="48.60661" lon="6.20656">
        <ele>255</ele>
        <time>2013-07-20T11:02:09Z</time>
      </trkpt>
      <trkpt lat="48.60657" lon="6.20664">
        <ele>256</ele>
        <time>2013-07-20T11:02:11Z</time>
      </trkpt>
      <trkpt lat="48.60653" lon="6.20672">
        <ele>255</ele>
        <time>2013-07-20T11:02:13Z</time>
      </trkpt>
      <trkpt lat="48.60649" lon="6.20681">
        <ele>254</ele>
        <time>2013-07-20T11:02:15Z</time>
      </trkpt>
      <trkpt lat="48.60645" lon="6.20689">
        <ele>254</ele>
        <time>2013-07-20T11:02:17Z</time>
      </trkpt>
      <trkpt lat="48.6064" lon="6.20697">
        <ele>254</ele>
        <time>2013-07-20T11:02:19Z</time>
      </trkpt>
      <trkpt lat="48.60636" lon="6.20705">
        <ele>253</ele>
        <time>2013-07-20T11:02:21Z</time>
      </trkpt>
      <trkpt lat="48.60632" lon="6.20712">
        <ele>257</ele>
        <time>2013-07-20T11:02:23Z</time>
      </trkpt>
      <trkpt lat="48.60629" lon="6.20719">
        <ele>258</ele>
        <time>2013-07-20T11:02:25Z</time>
      </trkpt>
      <trkpt lat="48.60624" lon="6.20726">
        <ele>258</ele>
        <time>2013-07-20T11:02:27Z</time>
      </trkpt>
      <trkpt lat="48.6062" lon="6.20734">
        <ele>257</ele>
        <time>2013-07-20T11:02:29Z</time>
      </trkpt>
      <trkpt lat="48.60616" lon="6.20741">
        <ele>258</ele>
        <time>2013-07-20T11:02:31Z</time>
      </trkpt>
      <trkpt lat="48.60612" lon="6.20749">
        <ele>260</ele>
        <time>2013-07-20T11:02:33Z</time>
      </trkpt>
      <trkpt lat="48.60606" lon="6.20758">
        <ele>260</ele>
        <time>2013-07-20T11:02:35Z</time>
      </trkpt>
      <trkpt lat="48.60601" lon="6.20767">
        <ele>260</ele>
        <time>2013-07-20T11:02:37Z</time>
      </trkpt>
      <trkpt lat="48.60595" lon="6.20777">
        <ele>259</ele>
        <time>2013-07-20T11:02:39Z</time>
      </trkpt>
      <trkpt lat="48.60591" lon="6.20785">
        <ele>260</ele>
        <time>2013-07-20T11:02:41Z</time>
      </trkpt>
      <trkpt lat="48.60586" lon="6.20795">
        <ele>259</ele>
        <time>2013-07-20T11:02:43Z</time>
      </trkpt>
      <trkpt lat="48.60582" lon="6.20803">
        <ele>260</ele>
        <time>2013-07-20T11:02:45Z</time>
      </trkpt>
      <trkpt lat="48.60578" lon="6.20813">
        <ele>260</ele>
        <time>2013-07-20T11:02:47Z</time>
      </trkpt>
      <trkpt lat="48.60573" lon="6.20824">
        <ele>260</ele>
        <time>2013-07-20T11:02:49Z</time>
      </trkpt>
      <trkpt lat="48.60567" lon="6.20835">
        <ele>260</ele>
        <time>2013-07-20T11:02:51Z</time>
      </trkpt>
      <trkpt lat="48.60563" lon="6.20845">
        <ele>260</ele>
        <time>2013-07-20T11:02:53Z</time>
      </trkpt>
      <trkpt lat="48.60558" lon="6.20855">
        <ele>258</ele>
        <time>2013-07-20T11:02:55Z</time>
      </trkpt>
      <trkpt lat="48.60556" lon="6.20869">
        <ele>258</ele>
        <time>2013-07-20T11:02:57Z</time>
      </trkpt>
      <trkpt lat="48.60554" lon="6.20886">
        <ele>254</ele>
        <time>2013-07-20T11:02:59Z</time>
      </trkpt>
      <trkpt lat="48.60553" lon="6.20903">
        <ele>253</ele>
        <time>2013-07-20T11:03:01Z</time>
      </trkpt>
      <trkpt lat="48.60552" lon="6.20919">
        <ele>251</ele>
        <time>2013-07-20T11:03:03Z</time>
      </trkpt>
      <trkpt lat="48.60548" lon="6.20932">
        <ele>249</ele>
        <time>2013-07-20T11:03:05Z</time>
      </trkpt>
      <trkpt lat="48.60541" lon="6.20945">
        <ele>251</ele>
        <time>2013-07-20T11:03:07Z</time>
      </trkpt>
      <trkpt lat="48.60534" lon="6.20956">
        <ele>251</ele>
        <time>2013-07-20T11:03:09Z</time>
      </trkpt>
      <trkpt lat="48.60527" lon="6.20965">
        <ele>250</ele>
        <time>2013-07-20T11:03:11Z</time>
      </trkpt>
      <trkpt lat="48.60518" lon="6.20975">
        <ele>248</ele>
        <time>2013-07-20T11:03:13Z</time>
      </trkpt>
      <trkpt lat="48.60512" lon="6.20987">
        <ele>247</ele>
        <time>2013-07-20T11:03:15Z</time>
      </trkpt>
      <trkpt lat="48.60512" lon="6.21003">
        <ele>247</ele>
        <time>2013-07-20T11:03:17Z</time>
      </trkpt>
      <trkpt lat="48.60516" lon="6.21018">
        <ele>246</ele>
        <time>2013-07-20T11:03:19Z</time>
      </trkpt>
      <trkpt lat="48.60524" lon="6.21032">
        <ele>247</ele>
        <time>2013-07-20T11:03:21Z</time>
      </trkpt>
      <trkpt lat="48.60534" lon="6.21045">
        <ele>247</ele>
        <time>2013-07-20T11:03:23Z</time>
      </trkpt>
      <trkpt lat="48.60543" lon="6.21058">
        <ele>247</ele>
        <time>2013-07-20T11:03:25Z</time>
      </trkpt>
      <trkpt lat="48.60553" lon="6.21071">
        <ele>248</ele>
        <time>2013-07-20T11:03:27Z</time>
      </trkpt>
      <trkpt lat="48.60563" lon="6.21085">
        <ele>248</ele>
        <time>2013-07-20T11:03:29Z</time>
      </trkpt>
      <trkpt lat="48.60572" lon="6.21098">
        <ele>247</ele>
        <time>2013-07-20T11:03:31Z</time>
      </trkpt>
      <trkpt lat="48.60582" lon="6.21112">
        <ele>247</ele>
        <time>2013-07-20T11:03:33Z</time>
      </trkpt>
      <trkpt lat="48.60591" lon="6.21126">
        <ele>246</ele>
        <time>2013-07-20T11:03:35Z</time>
      </trkpt>
      <trkpt lat="48.60601" lon="6.2114">
        <ele>246</ele>
        <time>2013-07-20T11:03:37Z</time>
      </trkpt>
      <trkpt lat="48.60609" lon="6.21154">
        <ele>246</ele>
        <time>2013-07-20T11:03:39Z</time>
      </trkpt>
      <trkpt lat="48.60619" lon="6.21167">
        <ele>246</ele>
        <time>2013-07-20T11:03:41Z</time>
      </trkpt>
      <trkpt lat="48.60629" lon="6.2118">
        <ele>246</ele>
        <time>2013-07-20T11:03:43Z</time>
      </trkpt>
      <trkpt lat="48.60638" lon="6.21193">
        <ele>245</ele>
        <time>2013-07-20T11:03:45Z</time>
      </trkpt>
      <trkpt lat="48.60647" lon="6.21206">
        <ele>246</ele>
        <time>2013-07-20T11:03:47Z</time>
      </trkpt>
      <trkpt lat="48.60658" lon="6.21219">
        <ele>244</ele>
        <time>2013-07-20T11:03:49Z</time>
      </trkpt>
      <trkpt lat="48.60667" lon="6.21231">
        <ele>243</ele>
        <time>2013-07-20T11:03:51Z</time>
      </trkpt>
      <trkpt lat="48.60677" lon="6.21243">
        <ele>244</ele>
        <time>2013-07-20T11:03:53Z</time>
      </trkpt>
      <trkpt lat="48.60685" lon="6.21254">
        <ele>243</ele>
        <time>2013-07-20T11:03:55Z</time>
      </trkpt>
      <trkpt lat="48.60695" lon="6.21266">
        <ele>243</ele>
        <time>2013-07-20T11:03:57Z</time>
      </trkpt>
      <trkpt lat="48.60704" lon="6.21278">
        <ele>242</ele>
        <time>2013-07-20T11:03:59Z</time>
      </trkpt>
      <trkpt lat="48.60713" lon="6.21289">
        <ele>242</ele>
        <time>2013-07-20T11:04:01Z</time>
      </trkpt>
      <trkpt lat="48.60723" lon="6.21301">
        <ele>241</ele>
        <time>2013-07-20T11:04:03Z</time>
      </trkpt>
      <trkpt lat="48.60732" lon="6.21312">
        <ele>242</ele>
        <time>2013-07-20T11:04:05Z</time>
      </trkpt>
      <trkpt lat="48.60737" lon="6.21326">
        <ele>242</ele>
        <time>2013-07-20T11:04:07Z</time>
      </trkpt>
      <trkpt lat="48.6074" lon="6.21346">
        <ele>242</ele>
        <time>2013-07-20T11:04:09Z</time>
      </trkpt>
      <trkpt lat="48.6074" lon="6.21367">
        <ele>241</ele>
        <time>2013-07-20T11:04:11Z</time>
      </trkpt>
      <trkpt lat="48.6074" lon="6.21389">
        <ele>239</ele>
        <time>2013-07-20T11:04:13Z</time>
      </trkpt>
      <trkpt lat="48.6074" lon="6.2141">
        <ele>239</ele>
        <time>2013-07-20T11:04:15Z</time>
      </trkpt>
      <trkpt lat="48.6074" lon="6.21431">
        <ele>239</ele>
        <time>2013-07-20T11:04:17Z</time>
      </trkpt>
      <trkpt lat="48.60741" lon="6.21452">
        <ele>238</ele>
        <time>2013-07-20T11:04:19Z</time>
      </trkpt>
      <trkpt lat="48.60744" lon="6.21473">
        <ele>237</ele>
        <time>2013-07-20T11:04:21Z</time>
      </trkpt>
      <trkpt lat="48.60748" lon="6.21492">
        <ele>237</ele>
        <time>2013-07-20T11:04:23Z</time>
      </trkpt>
      <trkpt lat="48.60754" lon="6.21511">
        <ele>237</ele>
        <time>2013-07-20T11:04:25Z</time>
      </trkpt>
      <trkpt lat="48.60758" lon="6.2153">
        <ele>238</ele>
        <time>2013-07-20T11:04:27Z</time>
      </trkpt>
      <trkpt lat="48.60761" lon="6.21551">
        <ele>238</ele>
        <time>2013-07-20T11:04:29Z</time>
      </trkpt>
      <trkpt lat="48.60761" lon="6.21571">
        <ele>238</ele>
        <time>2013-07-20T11:04:31Z</time>
      </trkpt>
      <trkpt lat="48.60761" lon="6.2159">
        <ele>237</ele>
        <time>2013-07-20T11:04:33Z</time>
      </trkpt>
      <trkpt lat="48.60759" lon="6.21608">
        <ele>238</ele>
        <time>2013-07-20T11:04:35Z</time>
      </trkpt>
      <trkpt lat="48.60757" lon="6.21627">
        <ele>239</ele>
        <time>2013-07-20T11:04:37Z</time>
      </trkpt>
      <trkpt lat="48.60754" lon="6.21647">
        <ele>238</ele>
        <time>2013-07-20T11:04:39Z</time>
      </trkpt>
      <trkpt lat="48.60752" lon="6.21665">
        <ele>239</ele>
        <time>2013-07-20T11:04:41Z</time>
      </trkpt>
      <trkpt lat="48.6075" lon="6.21684">
        <ele>237</ele>
        <time>2013-07-20T11:04:43Z</time>
      </trkpt>
      <trkpt lat="48.60749" lon="6.21702">
        <ele>238</ele>
        <time>2013-07-20T11:04:45Z</time>
      </trkpt>
      <trkpt lat="48.60749" lon="6.2172">
        <ele>238</ele>
        <time>2013-07-20T11:04:47Z</time>
      </trkpt>
      <trkpt lat="48.60751" lon="6.21738">
        <ele>238</ele>
        <time>2013-07-20T11:04:49Z</time>
      </trkpt>
      <trkpt lat="48.60755" lon="6.21756">
        <ele>236</ele>
        <time>2013-07-20T11:04:51Z</time>
      </trkpt>
      <trkpt lat="48.60761" lon="6.21773">
        <ele>235</ele>
        <time>2013-07-20T11:04:53Z</time>
      </trkpt>
      <trkpt lat="48.60767" lon="6.21789">
        <ele>235</ele>
        <time>2013-07-20T11:04:55Z</time>
      </trkpt>
      <trkpt lat="48.60775" lon="6.21803">
        <ele>235</ele>
        <time>2013-07-20T11:04:57Z</time>
      </trkpt>
      <trkpt lat="48.60783" lon="6.21817">
        <ele>234</ele>
        <time>2013-07-20T11:04:59Z</time>
      </trkpt>
      <trkpt lat="48.60792" lon="6.21829">
        <ele>235</ele>
        <time>2013-07-20T11:05:01Z</time>
      </trkpt>
      <trkpt lat="48.60801" lon="6.2184">
        <ele>235</ele>
        <time>2013-07-20T11:05:03Z</time>
      </trkpt>
      <trkpt lat="48.60811" lon="6.21848">
        <ele>237</ele>
        <time>2013-07-20T11:05:05Z</time>
      </trkpt>
      <trkpt lat="48.60822" lon="6.21856">
        <ele>238</ele>
        <time>2013-07-20T11:05:07Z</time>
      </trkpt>
      <trkpt lat="48.60832" lon="6.21863">
        <ele>236</ele>
        <time>2013-07-20T11:05:09Z</time>
      </trkpt>
      <trkpt lat="48.60842" lon="6.2187">
        <ele>231</ele>
        <time>2013-07-20T11:05:11Z</time>
      </trkpt>
      <trkpt lat="48.60851" lon="6.21876">
        <ele>233</ele>
        <time>2013-07-20T11:05:13Z</time>
      </trkpt>
      <trkpt lat="48.60862" lon="6.21884">
        <ele>233</ele>
        <time>2013-07-20T11:05:15Z</time>
      </trkpt>
      <trkpt lat="48.6087" lon="6.21894">
        <ele>226</ele>
        <time>2013-07-20T11:05:17Z</time>
      </trkpt>
      <trkpt lat="48.60878" lon="6.21903">
        <ele>228</ele>
        <time>2013-07-20T11:05:19Z</time>
      </trkpt>
      <trkpt lat="48.60885" lon="6.21912">
        <ele>231</ele>
        <time>2013-07-20T11:05:20Z</time>
      </trkpt>
      <trkpt lat="48.60891" lon="6.21921">
        <ele>231</ele>
        <time>2013-07-20T11:05:23Z</time>
      </trkpt>
      <trkpt lat="48.60897" lon="6.21931">
        <ele>232</ele>
        <time>2013-07-20T11:05:25Z</time>
      </trkpt>
      <trkpt lat="48.60902" lon="6.2194">
        <ele>234</ele>
        <time>2013-07-20T11:05:27Z</time>
      </trkpt>
      <trkpt lat="48.60908" lon="6.21949">
        <ele>235</ele>
        <time>2013-07-20T11:05:29Z</time>
      </trkpt>
      <trkpt lat="48.60914" lon="6.21958">
        <ele>235</ele>
        <time>2013-07-20T11:05:31Z</time>
      </trkpt>
      <trkpt lat="48.6092" lon="6.21969">
        <ele>235</ele>
        <time>2013-07-20T11:05:33Z</time>
      </trkpt>
      <trkpt lat="48.60925" lon="6.21978">
        <ele>235</ele>
        <time>2013-07-20T11:05:35Z</time>
      </trkpt>
      <trkpt lat="48.60931" lon="6.21988">
        <ele>234</ele>
        <time>2013-07-20T11:05:37Z</time>
      </trkpt>
      <trkpt lat="48.60938" lon="6.21998">
        <ele>233</ele>
        <time>2013-07-20T11:05:39Z</time>
      </trkpt>
      <trkpt lat="48.60944" lon="6.22008">
        <ele>232</ele>
        <time>2013-07-20T11:05:41Z</time>
      </trkpt>
      <trkpt lat="48.60949" lon="6.22017">
        <ele>233</ele>
        <time>2013-07-20T11:05:43Z</time>
      </trkpt>
      <trkpt lat="48.60952" lon="6.22025">
        <ele>236</ele>
        <time>2013-07-20T11:05:45Z</time>
      </trkpt>
      <trkpt lat="48.60956" lon="6.22034">
        <ele>237</ele>
        <time>2013-07-20T11:05:47Z</time>
      </trkpt>
      <trkpt lat="48.60959" lon="6.22042">
        <ele>238</ele>
        <time>2013-07-20T11:05:49Z</time>
      </trkpt>
      <trkpt lat="48.60963" lon="6.22051">
        <ele>238</ele>
        <time>2013-07-20T11:05:51Z</time>
      </trkpt>
      <trkpt lat="48.60966" lon="6.2206">
        <ele>237</ele>
        <time>2013-07-20T11:05:53Z</time>
      </trkpt>
      <trkpt lat="48.60969" lon="6.22069">
        <ele>237</ele>
        <time>2013-07-20T11:05:55Z</time>
      </trkpt>
      <trkpt lat="48.60972" lon="6.22078">
        <ele>237</ele>
        <time>2013-07-20T11:05:57Z</time>
      </trkpt>
      <trkpt lat="48.60975" lon="6.22087">
        <ele>238</ele>
        <time>2013-07-20T11:05:59Z</time>
      </trkpt>
      <trkpt lat="48.60978" lon="6.22097">
        <ele>239</ele>
        <time>2013-07-20T11:06:01Z</time>
      </trkpt>
      <trkpt lat="48.6098" lon="6.22107">
        <ele>240</ele>
        <time>2013-07-20T11:06:03Z</time>
      </trkpt>
      <trkpt lat="48.60981" lon="6.22116">
        <ele>240</ele>
        <time>2013-07-20T11:06:05Z</time>
      </trkpt>
      <trkpt lat="48.60982" lon="6.22126">
        <ele>241</ele>
        <time>2013-07-20T11:06:06Z</time>
      </trkpt>
      <trkpt lat="48.60983" lon="6.22135">
        <ele>241</ele>
        <time>2013-07-20T11:06:09Z</time>
      </trkpt>
      <trkpt lat="48.60984" lon="6.22145">
        <ele>242</ele>
        <time>2013-07-20T11:06:11Z</time>
      </trkpt>
      <trkpt lat="48.60985" lon="6.22155">
        <ele>242</ele>
        <time>2013-07-20T11:06:13Z</time>
      </trkpt>
      <trkpt lat="48.60986" lon="6.22165">
        <ele>242</ele>
        <time>2013-07-20T11:06:15Z</time>
      </trkpt>
      <trkpt lat="48.60988" lon="6.22175">
        <ele>242</ele>
        <time>2013-07-20T11:06:17Z</time>
      </trkpt>
      <trkpt lat="48.60989" lon="6.22185">
        <ele>242</ele>
        <time>2013-07-20T11:06:19Z</time>
      </trkpt>
      <trkpt lat="48.60991" lon="6.22194">
        <ele>244</ele>
        <time>2013-07-20T11:06:21Z</time>
      </trkpt>
      <trkpt lat="48.60993" lon="6.22202">
        <ele>246</ele>
        <time>2013-07-20T11:06:23Z</time>
      </trkpt>
      <trkpt lat="48.60994" lon="6.22211">
        <ele>248</ele>
        <time>2013-07-20T11:06:25Z</time>
      </trkpt>
      <trkpt lat="48.60995" lon="6.22221">
        <ele>249</ele>
        <time>2013-07-20T11:06:27Z</time>
      </trkpt>
      <trkpt lat="48.60996" lon="6.22232">
        <ele>248</ele>
        <time>2013-07-20T11:06:29Z</time>
      </trkpt>
      <trkpt lat="48.60997" lon="6.22243">
        <ele>247</ele>
        <time>2013-07-20T11:06:31Z</time>
      </trkpt>
      <trkpt lat="48.60997" lon="6.22253">
        <ele>246</ele>
        <time>2013-07-20T11:06:33Z</time>
      </trkpt>
      <trkpt lat="48.60999" lon="6.22263">
        <ele>248</ele>
        <time>2013-07-20T11:06:35Z</time>
      </trkpt>
      <trkpt lat="48.60999" lon="6.22273">
        <ele>249</ele>
        <time>2013-07-20T11:06:37Z</time>
      </trkpt>
      <trkpt lat="48.60999" lon="6.22283">
        <ele>249</ele>
        <time>2013-07-20T11:06:39Z</time>
      </trkpt>
      <trkpt lat="48.61" lon="6.22293">
        <ele>249</ele>
        <time>2013-07-20T11:06:41Z</time>
      </trkpt>
      <trkpt lat="48.61" lon="6.22303">
        <ele>249</ele>
        <time>2013-07-20T11:06:43Z</time>
      </trkpt>
      <trkpt lat="48.61001" lon="6.22312">
        <ele>249</ele>
        <time>2013-07-20T11:06:45Z</time>
      </trkpt>
      <trkpt lat="48.61001" lon="6.22322">
        <ele>248</ele>
        <time>2013-07-20T11:06:47Z</time>
      </trkpt>
      <trkpt lat="48.61002" lon="6.22342">
        <ele>248</ele>
        <time>2013-07-20T11:06:51Z</time>
      </trkpt>
      <trkpt lat="48.61002" lon="6.22351">
        <ele>248</ele>
        <time>2013-07-20T11:06:53Z</time>
      </trkpt>
      <trkpt lat="48.61001" lon="6.22361">
        <ele>249</ele>
        <time>2013-07-20T11:06:55Z</time>
      </trkpt>
      <trkpt lat="48.61" lon="6.22371">
        <ele>249</ele>
        <time>2013-07-20T11:06:57Z</time>
      </trkpt>
      <trkpt lat="48.61" lon="6.22381">
        <ele>249</ele>
        <time>2013-07-20T11:06:59Z</time>
      </trkpt>
      <trkpt lat="48.61" lon="6.22391">
        <ele>249</ele>
        <time>2013-07-20T11:07:01Z</time>
      </trkpt>
      <trkpt lat="48.61" lon="6.224">
        <ele>249</ele>
        <time>2013-07-20T11:07:03Z</time>
      </trkpt>
      <trkpt lat="48.61" lon="6.22411">
        <ele>250</ele>
        <time>2013-07-20T11:07:05Z</time>
      </trkpt>
      <trkpt lat="48.61" lon="6.22421">
        <ele>251</ele>
        <time>2013-07-20T11:07:07Z</time>
      </trkpt>
      <trkpt lat="48.61" lon="6.22432">
        <ele>251</ele>
        <time>2013-07-20T11:07:09Z</time>
      </trkpt>
      <trkpt lat="48.61" lon="6.22442">
        <ele>250</ele>
        <time>2013-07-20T11:07:11Z</time>
      </trkpt>
      <trkpt lat="48.61" lon="6.22452">
        <ele>250</ele>
        <time>2013-07-20T11:07:13Z</time>
      </trkpt>
      <trkpt lat="48.61001" lon="6.22462">
        <ele>251</ele>
        <time>2013-07-20T11:07:15Z</time>
      </trkpt>
      <trkpt lat="48.61002" lon="6.22473">
        <ele>250</ele>
        <time>2013-07-20T11:07:17Z</time>
      </trkpt>
      <trkpt lat="48.61002" lon="6.22483">
        <ele>251</ele>
        <time>2013-07-20T11:07:19Z</time>
      </trkpt>
      <trkpt lat="48.61003" lon="6.22493">
        <ele>251</ele>
        <time>2013-07-20T11:07:21Z</time>
      </trkpt>
      <trkpt lat="48.61004" lon="6.22503">
        <ele>251</ele>
        <time>2013-07-20T11:07:23Z</time>
      </trkpt>
      <trkpt lat="48.61004" lon="6.22512">
        <ele>253</ele>
        <time>2013-07-20T11:07:25Z</time>
      </trkpt>
      <trkpt lat="48.61005" lon="6.22522">
        <ele>253</ele>
        <time>2013-07-20T11:07:27Z</time>
      </trkpt>
      <trkpt lat="48.61006" lon="6.22533">
        <ele>253</ele>
        <time>2013-07-20T11:07:29Z</time>
      </trkpt>
      <trkpt lat="48.61007" lon="6.22543">
        <ele>253</ele>
        <time>2013-07-20T11:07:31Z</time>
      </trkpt>
      <trkpt lat="48.61008" lon="6.22555">
        <ele>253</ele>
        <time>2013-07-20T11:07:33Z</time>
      </trkpt>
      <trkpt lat="48.61009" lon="6.22566">
        <ele>253</ele>
        <time>2013-07-20T11:07:35Z</time>
      </trkpt>
      <trkpt lat="48.6101" lon="6.22578">
        <ele>252</ele>
        <time>2013-07-20T11:07:37Z</time>
      </trkpt>
      <trkpt lat="48.61012" lon="6.22588">
        <ele>253</ele>
        <time>2013-07-20T11:07:39Z</time>
      </trkpt>
      <trkpt lat="48.61013" lon="6.22599">
        <ele>253</ele>
        <time>2013-07-20T11:07:41Z</time>
      </trkpt>
      <trkpt lat="48.61015" lon="6.22611">
        <ele>252</ele>
        <time>2013-07-20T11:07:43Z</time>
      </trkpt>
      <trkpt lat="48.61016" lon="6.22622">
        <ele>252</ele>
        <time>2013-07-20T11:07:45Z</time>
      </trkpt>
      <trkpt lat="48.61017" lon="6.22633">
        <ele>253</ele>
        <time>2013-07-20T11:07:47Z</time>
      </trkpt>
      <trkpt lat="48.6102" lon="6.22644">
        <ele>253</ele>
        <time>2013-07-20T11:07:49Z</time>
      </trkpt>
      <trkpt lat="48.61021" lon="6.22656">
        <ele>253</ele>
        <time>2013-07-20T11:07:51Z</time>
      </trkpt>
      <trkpt lat="48.61023" lon="6.22666">
        <ele>253</ele>
        <time>2013-07-20T11:07:53Z</time>
      </trkpt>
      <trkpt lat="48.61025" lon="6.22677">
        <ele>253</ele>
        <time>2013-07-20T11:07:55Z</time>
      </trkpt>
      <trkpt lat="48.61027" lon="6.22689">
        <ele>252</ele>
        <time>2013-07-20T11:07:57Z</time>
      </trkpt>
      <trkpt lat="48.61029" lon="6.22701">
        <ele>255</ele>
        <time>2013-07-20T11:07:59Z</time>
      </trkpt>
      <trkpt lat="48.61031" lon="6.22713">
        <ele>255</ele>
        <time>2013-07-20T11:08:01Z</time>
      </trkpt>
      <trkpt lat="48.61034" lon="6.22724">
        <ele>255</ele>
        <time>2013-07-20T11:08:03Z</time>
      </trkpt>
      <trkpt lat="48.61036" lon="6.22738">
        <ele>254</ele>
        <time>2013-07-20T11:08:05Z</time>
      </trkpt>
      <trkpt lat="48.61037" lon="6.22751">
        <ele>256</ele>
        <time>2013-07-20T11:08:07Z</time>
      </trkpt>
      <trkpt lat="48.61037" lon="6.22765">
        <ele>256</ele>
        <time>2013-07-20T11:08:09Z</time>
      </trkpt>
      <trkpt lat="48.61038" lon="6.22779">
        <ele>255</ele>
        <time>2013-07-20T11:08:11Z</time>
      </trkpt>
      <trkpt lat="48.61039" lon="6.22792">
        <ele>255</ele>
        <time>2013-07-20T11:08:13Z</time>
      </trkpt>
      <trkpt lat="48.61039" lon="6.22805">
        <ele>254</ele>
        <time>2013-07-20T11:08:15Z</time>
      </trkpt>
      <trkpt lat="48.6104" lon="6.22819">
        <ele>254</ele>
        <time>2013-07-20T11:08:17Z</time>
      </trkpt>
      <trkpt lat="48.61041" lon="6.22832">
        <ele>254</ele>
        <time>2013-07-20T11:08:19Z</time>
      </trkpt>
      <trkpt lat="48.61041" lon="6.22846">
        <ele>254</ele>
        <time>2013-07-20T11:08:21Z</time>
      </trkpt>
      <trkpt lat="48.61042" lon="6.2286">
        <ele>254</ele>
        <time>2013-07-20T11:08:23Z</time>
      </trkpt>
      <trkpt lat="48.61043" lon="6.22874">
        <ele>254</ele>
        <time>2013-07-20T11:08:25Z</time>
      </trkpt>
      <trkpt lat="48.61044" lon="6.22888">
        <ele>254</ele>
        <time>2013-07-20T11:08:27Z</time>
      </trkpt>
      <trkpt lat="48.61045" lon="6.22903">
        <ele>255</ele>
        <time>2013-07-20T11:08:29Z</time>
      </trkpt>
      <trkpt lat="48.61045" lon="6.22918">
        <ele>253</ele>
        <time>2013-07-20T11:08:30Z</time>
      </trkpt>
      <trkpt lat="48.61044" lon="6.22934">
        <ele>253</ele>
        <time>2013-07-20T11:08:33Z</time>
      </trkpt>
      <trkpt lat="48.61042" lon="6.2295">
        <ele>254</ele>
        <time>2013-07-20T11:08:35Z</time>
      </trkpt>
      <trkpt lat="48.61039" lon="6.22967">
        <ele>253</ele>
        <time>2013-07-20T11:08:37Z</time>
      </trkpt>
      <trkpt lat="48.61035" lon="6.22985">
        <ele>252</ele>
        <time>2013-07-20T11:08:39Z</time>
      </trkpt>
      <trkpt lat="48.61031" lon="6.23003">
        <ele>253</ele>
        <time>2013-07-20T11:08:41Z</time>
      </trkpt>
      <trkpt lat="48.61027" lon="6.23023">
        <ele>251</ele>
        <time>2013-07-20T11:08:43Z</time>
      </trkpt>
      <trkpt lat="48.61022" lon="6.23044">
        <ele>251</ele>
        <time>2013-07-20T11:08:45Z</time>
      </trkpt>
      <trkpt lat="48.61018" lon="6.23065">
        <ele>250</ele>
        <time>2013-07-20T11:08:47Z</time>
      </trkpt>
      <trkpt lat="48.61013" lon="6.23086">
        <ele>251</ele>
        <time>2013-07-20T11:08:49Z</time>
      </trkpt>
      <trkpt lat="48.6101" lon="6.23108">
        <ele>250</ele>
        <time>2013-07-20T11:08:51Z</time>
      </trkpt>
      <trkpt lat="48.61007" lon="6.23128">
        <ele>251</ele>
        <time>2013-07-20T11:08:53Z</time>
      </trkpt>
      <trkpt lat="48.61003" lon="6.23151">
        <ele>250</ele>
        <time>2013-07-20T11:08:55Z</time>
      </trkpt>
      <trkpt lat="48.60997" lon="6.23172">
        <ele>254</ele>
        <time>2013-07-20T11:08:57Z</time>
      </trkpt>
      <trkpt lat="48.6099" lon="6.2319">
        <ele>253</ele>
        <time>2013-07-20T11:08:59Z</time>
      </trkpt>
      <trkpt lat="48.60981" lon="6.23207">
        <ele>247</ele>
        <time>2013-07-20T11:09:01Z</time>
      </trkpt>
      <trkpt lat="48.60971" lon="6.23225">
        <ele>242</ele>
        <time>2013-07-20T11:09:03Z</time>
      </trkpt>
      <trkpt lat="48.60964" lon="6.23241">
        <ele>241</ele>
        <time>2013-07-20T11:09:05Z</time>
      </trkpt>
      <trkpt lat="48.60962" lon="6.2326">
        <ele>238</ele>
        <time>2013-07-20T11:09:07Z</time>
      </trkpt>
      <trkpt lat="48.60968" lon="6.23273">
        <ele>240</ele>
        <time>2013-07-20T11:09:09Z</time>
      </trkpt>
      <trkpt lat="48.60977" lon="6.23282">
        <ele>242</ele>
        <time>2013-07-20T11:09:11Z</time>
      </trkpt>
      <trkpt lat="48.60988" lon="6.2329">
        <ele>241</ele>
        <time>2013-07-20T11:09:13Z</time>
      </trkpt>
      <trkpt lat="48.60998" lon="6.23298">
        <ele>240</ele>
        <time>2013-07-20T11:09:15Z</time>
      </trkpt>
      <trkpt lat="48.61008" lon="6.23304">
        <ele>237</ele>
        <time>2013-07-20T11:09:17Z</time>
      </trkpt>
      <trkpt lat="48.61018" lon="6.2331">
        <ele>237</ele>
        <time>2013-07-20T11:09:19Z</time>
      </trkpt>
      <trkpt lat="48.61027" lon="6.23319">
        <ele>235</ele>
        <time>2013-07-20T11:09:21Z</time>
      </trkpt>
      <trkpt lat="48.61033" lon="6.23333">
        <ele>235</ele>
        <time>2013-07-20T11:09:23Z</time>
      </trkpt>
      <trkpt lat="48.61031" lon="6.2335">
        <ele>236</ele>
        <time>2013-07-20T11:09:25Z</time>
      </trkpt>
      <trkpt lat="48.61026" lon="6.23363">
        <ele>235</ele>
        <time>2013-07-20T11:09:27Z</time>
      </trkpt>
      <trkpt lat="48.61021" lon="6.23375">
        <ele>236</ele>
        <time>2013-07-20T11:09:29Z</time>
      </trkpt>
      <trkpt lat="48.61016" lon="6.23387">
        <ele>238</ele>
        <time>2013-07-20T11:09:31Z</time>
      </trkpt>
      <trkpt lat="48.61011" lon="6.23396">
        <ele>238</ele>
        <time>2013-07-20T11:09:33Z</time>
      </trkpt>
      <trkpt lat="48.61005" lon="6.23407">
        <ele>236</ele>
        <time>2013-07-20T11:09:35Z</time>
      </trkpt>
      <trkpt lat="48.60999" lon="6.23418">
        <ele>236</ele>
        <time>2013-07-20T11:09:37Z</time>
      </trkpt>
      <trkpt lat="48.60994" lon="6.23428">
        <ele>237</ele>
        <time>2013-07-20T11:09:39Z</time>
      </trkpt>
      <trkpt lat="48.60989" lon="6.23437">
        <ele>236</ele>
        <time>2013-07-20T11:09:41Z</time>
      </trkpt>
      <trkpt lat="48.60985" lon="6.23445">
        <ele>237</ele>
        <time>2013-07-20T11:09:43Z</time>
      </trkpt>
      <trkpt lat="48.60986" lon="6.23454">
        <ele>238</ele>
        <time>2013-07-20T11:09:45Z</time>
      </trkpt>
      <trkpt lat="48.60988" lon="6.23464">
        <ele>237</ele>
        <time>2013-07-20T11:09:47Z</time>
      </trkpt>
      <trkpt lat="48.60993" lon="6.23472">
        <ele>239</ele>
        <time>2013-07-20T11:09:49Z</time>
      </trkpt>
      <trkpt lat="48.61" lon="6.23482">
        <ele>239</ele>
        <time>2013-07-20T11:09:51Z</time>
      </trkpt>
      <trkpt lat="48.61007" lon="6.23494">
        <ele>238</ele>
        <time>2013-07-20T11:09:53Z</time>
      </trkpt>
      <trkpt lat="48.61015" lon="6.23505">
        <ele>238</ele>
        <time>2013-07-20T11:09:55Z</time>
      </trkpt>
      <trkpt lat="48.61023" lon="6.23514">
        <ele>240</ele>
        <time>2013-07-20T11:09:57Z</time>
      </trkpt>
      <trkpt lat="48.61031" lon="6.23523">
        <ele>241</ele>
        <time>2013-07-20T11:09:59Z</time>
      </trkpt>
      <trkpt lat="48.61038" lon="6.23531">
        <ele>243</ele>
        <time>2013-07-20T11:10:01Z</time>
      </trkpt>
      <trkpt lat="48.61045" lon="6.2354">
        <ele>244</ele>
        <time>2013-07-20T11:10:03Z</time>
      </trkpt>
      <trkpt lat="48.61051" lon="6.23547">
        <ele>241</ele>
        <time>2013-07-20T11:10:05Z</time>
      </trkpt>
      <trkpt lat="48.61057" lon="6.23554">
        <ele>239</ele>
        <time>2013-07-20T11:10:07Z</time>
      </trkpt>
      <trkpt lat="48.61062" lon="6.23561">
        <ele>240</ele>
        <time>2013-07-20T11:10:09Z</time>
      </trkpt>
      <trkpt lat="48.61066" lon="6.23566">
        <ele>243</ele>
        <time>2013-07-20T11:10:11Z</time>
      </trkpt>
      <trkpt lat="48.6107" lon="6.23571">
        <ele>243</ele>
        <time>2013-07-20T11:10:13Z</time>
      </trkpt>
      <trkpt lat="48.61074" lon="6.23572">
        <ele>245</ele>
        <time>2013-07-20T11:10:15Z</time>
      </trkpt>
      <trkpt lat="48.61078" lon="6.23578">
        <ele>238</ele>
        <time>2013-07-20T11:12:47Z</time>
      </trkpt>
      <trkpt lat="48.61079" lon="6.23579">
        <ele>237</ele>
        <time>2013-07-20T11:12:49Z</time>
      </trkpt>
      <trkpt lat="48.61083" lon="6.23582">
        <ele>239</ele>
        <time>2013-07-20T11:12:51Z</time>
      </trkpt>
      <trkpt lat="48.61087" lon="6.23588">
        <ele>240</ele>
        <time>2013-07-20T11:12:53Z</time>
      </trkpt>
      <trkpt lat="48.61092" lon="6.23594">
        <ele>240</ele>
        <time>2013-07-20T11:12:55Z</time>
      </trkpt>
      <trkpt lat="48.61103" lon="6.23597">
        <ele>236</ele>
        <time>2013-07-20T11:12:57Z</time>
      </trkpt>
      <trkpt lat="48.61116" lon="6.23595">
        <ele>236</ele>
        <time>2013-07-20T11:12:59Z</time>
      </trkpt>
      <trkpt lat="48.61131" lon="6.23593">
        <ele>236</ele>
        <time>2013-07-20T11:13:01Z</time>
      </trkpt>
      <trkpt lat="48.61144" lon="6.23591">
        <ele>238</ele>
        <time>2013-07-20T11:13:03Z</time>
      </trkpt>
      <trkpt lat="48.61159" lon="6.23583">
        <ele>234</ele>
        <time>2013-07-20T11:13:05Z</time>
      </trkpt>
      <trkpt lat="48.61172" lon="6.23565">
        <ele>237</ele>
        <time>2013-07-20T11:13:07Z</time>
      </trkpt>
      <trkpt lat="48.6118" lon="6.23545">
        <ele>240</ele>
        <time>2013-07-20T11:13:09Z</time>
      </trkpt>
      <trkpt lat="48.61187" lon="6.23526">
        <ele>239</ele>
        <time>2013-07-20T11:13:11Z</time>
      </trkpt>
      <trkpt lat="48.61195" lon="6.23507">
        <ele>237</ele>
        <time>2013-07-20T11:13:13Z</time>
      </trkpt>
      <trkpt lat="48.61201" lon="6.23493">
        <ele>239</ele>
        <time>2013-07-20T11:13:15Z</time>
      </trkpt>
      <trkpt lat="48.61208" lon="6.23484">
        <ele>238</ele>
        <time>2013-07-20T11:13:17Z</time>
      </trkpt>
      <trkpt lat="48.61213" lon="6.23477">
        <ele>238</ele>
        <time>2013-07-20T11:13:18Z</time>
      </trkpt>
      <trkpt lat="48.61218" lon="6.23471">
        <ele>238</ele>
        <time>2013-07-20T11:13:21Z</time>
      </trkpt>
      <trkpt lat="48.61224" lon="6.23464">
        <ele>241</ele>
        <time>2013-07-20T11:13:23Z</time>
      </trkpt>
      <trkpt lat="48.61229" lon="6.23459">
        <ele>243</ele>
        <time>2013-07-20T11:13:25Z</time>
      </trkpt>
      <trkpt lat="48.61235" lon="6.23453">
        <ele>240</ele>
        <time>2013-07-20T11:13:27Z</time>
      </trkpt>
      <trkpt lat="48.6124" lon="6.23446">
        <ele>239</ele>
        <time>2013-07-20T11:13:29Z</time>
      </trkpt>
      <trkpt lat="48.61245" lon="6.2344">
        <ele>243</ele>
        <time>2013-07-20T11:13:31Z</time>
      </trkpt>
      <trkpt lat="48.6125" lon="6.23433">
        <ele>244</ele>
        <time>2013-07-20T11:13:33Z</time>
      </trkpt>
      <trkpt lat="48.61255" lon="6.23426">
        <ele>244</ele>
        <time>2013-07-20T11:13:35Z</time>
      </trkpt>
      <trkpt lat="48.6126" lon="6.23417">
        <ele>244</ele>
        <time>2013-07-20T11:13:37Z</time>
      </trkpt>
      <trkpt lat="48.61266" lon="6.23409">
        <ele>242</ele>
        <time>2013-07-20T11:13:39Z</time>
      </trkpt>
      <trkpt lat="48.61272" lon="6.23401">
        <ele>241</ele>
        <time>2013-07-20T11:13:41Z</time>
      </trkpt>
      <trkpt lat="48.61279" lon="6.23394">
        <ele>244</ele>
        <time>2013-07-20T11:13:43Z</time>
      </trkpt>
      <trkpt lat="48.61286" lon="6.23386">
        <ele>247</ele>
        <time>2013-07-20T11:13:45Z</time>
      </trkpt>
      <trkpt lat="48.61293" lon="6.23379">
        <ele>245</ele>
        <time>2013-07-20T11:13:47Z</time>
      </trkpt>
      <trkpt lat="48.613" lon="6.23371">
        <ele>242</ele>
        <time>2013-07-20T11:13:49Z</time>
      </trkpt>
      <trkpt lat="48.61307" lon="6.23363">
        <ele>241</ele>
        <time>2013-07-20T11:13:51Z</time>
      </trkpt>
      <trkpt lat="48.61314" lon="6.23353">
        <ele>242</ele>
        <time>2013-07-20T11:13:53Z</time>
      </trkpt>
      <trkpt lat="48.6132" lon="6.23342">
        <ele>243</ele>
        <time>2013-07-20T11:13:55Z</time>
      </trkpt>
      <trkpt lat="48.61326" lon="6.2333">
        <ele>242</ele>
        <time>2013-07-20T11:13:57Z</time>
      </trkpt>
      <trkpt lat="48.61332" lon="6.23318">
        <ele>242</ele>
        <time>2013-07-20T11:13:59Z</time>
      </trkpt>
      <trkpt lat="48.61338" lon="6.23307">
        <ele>242</ele>
        <time>2013-07-20T11:14:01Z</time>
      </trkpt>
      <trkpt lat="48.61344" lon="6.23295">
        <ele>242</ele>
        <time>2013-07-20T11:14:03Z</time>
      </trkpt>
      <trkpt lat="48.6135" lon="6.23283">
        <ele>243</ele>
        <time>2013-07-20T11:14:05Z</time>
      </trkpt>
      <trkpt lat="48.61355" lon="6.23271">
        <ele>243</ele>
        <time>2013-07-20T11:14:07Z</time>
      </trkpt>
      <trkpt lat="48.61361" lon="6.23259">
        <ele>243</ele>
        <time>2013-07-20T11:14:09Z</time>
      </trkpt>
      <trkpt lat="48.61366" lon="6.23247">
        <ele>244</ele>
        <time>2013-07-20T11:14:11Z</time>
      </trkpt>
      <trkpt lat="48.6137" lon="6.23234">
        <ele>244</ele>
        <time>2013-07-20T11:14:13Z</time>
      </trkpt>
      <trkpt lat="48.61375" lon="6.23223">
        <ele>244</ele>
        <time>2013-07-20T11:14:15Z</time>
      </trkpt>
      <trkpt lat="48.61379" lon="6.23212">
        <ele>245</ele>
        <time>2013-07-20T11:14:17Z</time>
      </trkpt>
      <trkpt lat="48.61383" lon="6.23202">
        <ele>244</ele>
        <time>2013-07-20T11:14:18Z</time>
      </trkpt>
      <trkpt lat="48.61388" lon="6.2319">
        <ele>244</ele>
        <time>2013-07-20T11:14:21Z</time>
      </trkpt>
      <trkpt lat="48.61392" lon="6.23178">
        <ele>244</ele>
        <time>2013-07-20T11:14:23Z</time>
      </trkpt>
      <trkpt lat="48.61396" lon="6.23166">
        <ele>246</ele>
        <time>2013-07-20T11:14:25Z</time>
      </trkpt>
      <trkpt lat="48.61401" lon="6.23154">
        <ele>246</ele>
        <time>2013-07-20T11:14:27Z</time>
      </trkpt>
      <trkpt lat="48.61406" lon="6.23142">
        <ele>247</ele>
        <time>2013-07-20T11:14:29Z</time>
      </trkpt>
      <trkpt lat="48.6141" lon="6.23132">
        <ele>246</ele>
        <time>2013-07-20T11:14:31Z</time>
      </trkpt>
      <trkpt lat="48.61415" lon="6.23123">
        <ele>246</ele>
        <time>2013-07-20T11:14:33Z</time>
      </trkpt>
      <trkpt lat="48.61419" lon="6.23114">
        <ele>246</ele>
        <time>2013-07-20T11:14:35Z</time>
      </trkpt>
      <trkpt lat="48.61423" lon="6.23107">
        <ele>247</ele>
        <time>2013-07-20T11:14:37Z</time>
      </trkpt>
      <trkpt lat="48.61428" lon="6.23099">
        <ele>247</ele>
        <time>2013-07-20T11:14:39Z</time>
      </trkpt>
      <trkpt lat="48.61432" lon="6.2309">
        <ele>248</ele>
        <time>2013-07-20T11:14:41Z</time>
      </trkpt>
      <trkpt lat="48.61436" lon="6.23081">
        <ele>248</ele>
        <time>2013-07-20T11:14:43Z</time>
      </trkpt>
      <trkpt lat="48.6144" lon="6.23072">
        <ele>249</ele>
        <time>2013-07-20T11:14:45Z</time>
      </trkpt>
      <trkpt lat="48.61443" lon="6.23063">
        <ele>251</ele>
        <time>2013-07-20T11:14:47Z</time>
      </trkpt>
      <trkpt lat="48.61448" lon="6.23053">
        <ele>248</ele>
        <time>2013-07-20T11:14:48Z</time>
      </trkpt>
      <trkpt lat="48.61453" lon="6.23043">
        <ele>245</ele>
        <time>2013-07-20T11:14:51Z</time>
      </trkpt>
      <trkpt lat="48.61459" lon="6.23034">
        <ele>244</ele>
        <time>2013-07-20T11:14:53Z</time>
      </trkpt>
      <trkpt lat="48.61466" lon="6.23025">
        <ele>244</ele>
        <time>2013-07-20T11:14:55Z</time>
      </trkpt>
      <trkpt lat="48.61474" lon="6.23016">
        <ele>243</ele>
        <time>2013-07-20T11:14:57Z</time>
      </trkpt>
      <trkpt lat="48.61482" lon="6.23008">
        <ele>243</ele>
        <time>2013-07-20T11:14:59Z</time>
      </trkpt>
      <trkpt lat="48.6149" lon="6.23001">
        <ele>244</ele>
        <time>2013-07-20T11:15:01Z</time>
      </trkpt>
      <trkpt lat="48.61499" lon="6.22994">
        <ele>244</ele>
        <time>2013-07-20T11:15:03Z</time>
      </trkpt>
      <trkpt lat="48.61509" lon="6.22987">
        <ele>244</ele>
        <time>2013-07-20T11:15:04Z</time>
      </trkpt>
      <trkpt lat="48.61518" lon="6.2298">
        <ele>243</ele>
        <time>2013-07-20T11:15:07Z</time>
      </trkpt>
      <trkpt lat="48.61529" lon="6.22973">
        <ele>242</ele>
        <time>2013-07-20T11:15:09Z</time>
      </trkpt>
      <trkpt lat="48.6154" lon="6.22965">
        <ele>242</ele>
        <time>2013-07-20T11:15:11Z</time>
      </trkpt>
      <trkpt lat="48.61552" lon="6.22956">
        <ele>241</ele>
        <time>2013-07-20T11:15:13Z</time>
      </trkpt>
      <trkpt lat="48.61564" lon="6.22947">
        <ele>242</ele>
        <time>2013-07-20T11:15:15Z</time>
      </trkpt>
      <trkpt lat="48.61577" lon="6.22938">
        <ele>241</ele>
        <time>2013-07-20T11:15:17Z</time>
      </trkpt>
      <trkpt lat="48.6159" lon="6.2293">
        <ele>240</ele>
        <time>2013-07-20T11:15:19Z</time>
      </trkpt>
      <trkpt lat="48.61603" lon="6.22921">
        <ele>240</ele>
        <time>2013-07-20T11:15:21Z</time>
      </trkpt>
      <trkpt lat="48.61616" lon="6.22913">
        <ele>239</ele>
        <time>2013-07-20T11:15:23Z</time>
      </trkpt>
      <trkpt lat="48.61627" lon="6.22904">
        <ele>237</ele>
        <time>2013-07-20T11:15:25Z</time>
      </trkpt>
      <trkpt lat="48.61638" lon="6.22896">
        <ele>239</ele>
        <time>2013-07-20T11:15:27Z</time>
      </trkpt>
      <trkpt lat="48.61644" lon="6.22892">
        <ele>238</ele>
        <time>2013-07-20T11:15:28Z</time>
      </trkpt>
      <trkpt lat="48.6166" lon="6.22881">
        <ele>238</ele>
        <time>2013-07-20T11:15:31Z</time>
      </trkpt>
      <trkpt lat="48.61671" lon="6.22874">
        <ele>238</ele>
        <time>2013-07-20T11:15:33Z</time>
      </trkpt>
      <trkpt lat="48.61683" lon="6.22865">
        <ele>236</ele>
        <time>2013-07-20T11:15:35Z</time>
      </trkpt>
      <trkpt lat="48.61696" lon="6.22856">
        <ele>236</ele>
        <time>2013-07-20T11:15:37Z</time>
      </trkpt>
      <trkpt lat="48.61709" lon="6.22847">
        <ele>238</ele>
        <time>2013-07-20T11:15:39Z</time>
      </trkpt>
      <trkpt lat="48.61723" lon="6.22838">
        <ele>236</ele>
        <time>2013-07-20T11:15:41Z</time>
      </trkpt>
      <trkpt lat="48.61737" lon="6.2283">
        <ele>236</ele>
        <time>2013-07-20T11:15:43Z</time>
      </trkpt>
      <trkpt lat="48.61753" lon="6.22822">
        <ele>237</ele>
        <time>2013-07-20T11:15:45Z</time>
      </trkpt>
      <trkpt lat="48.6177" lon="6.22817">
        <ele>236</ele>
        <time>2013-07-20T11:15:47Z</time>
      </trkpt>
      <trkpt lat="48.61787" lon="6.22813">
        <ele>236</ele>
        <time>2013-07-20T11:15:49Z</time>
      </trkpt>
      <trkpt lat="48.61806" lon="6.22811">
        <ele>236</ele>
        <time>2013-07-20T11:15:51Z</time>
      </trkpt>
      <trkpt lat="48.61824" lon="6.22809">
        <ele>232</ele>
        <time>2013-07-20T11:15:53Z</time>
      </trkpt>
      <trkpt lat="48.61843" lon="6.2281">
        <ele>233</ele>
        <time>2013-07-20T11:15:55Z</time>
      </trkpt>
      <trkpt lat="48.61857" lon="6.22816">
        <ele>239</ele>
        <time>2013-07-20T11:15:57Z</time>
      </trkpt>
      <trkpt lat="48.61874" lon="6.22816">
        <ele>238</ele>
        <time>2013-07-20T11:15:59Z</time>
      </trkpt>
      <trkpt lat="48.61891" lon="6.22817">
        <ele>235</ele>
        <time>2013-07-20T11:16:01Z</time>
      </trkpt>
      <trkpt lat="48.61908" lon="6.22818">
        <ele>234</ele>
        <time>2013-07-20T11:16:03Z</time>
      </trkpt>
      <trkpt lat="48.61923" lon="6.22818">
        <ele>234</ele>
        <time>2013-07-20T11:16:05Z</time>
      </trkpt>
      <trkpt lat="48.61939" lon="6.22819">
        <ele>235</ele>
        <time>2013-07-20T11:16:06Z</time>
      </trkpt>
      <trkpt lat="48.61955" lon="6.2282">
        <ele>233</ele>
        <time>2013-07-20T11:16:08Z</time>
      </trkpt>
      <trkpt lat="48.61972" lon="6.22822">
        <ele>232</ele>
        <time>2013-07-20T11:16:10Z</time>
      </trkpt>
      <trkpt lat="48.61991" lon="6.22822">
        <ele>230</ele>
        <time>2013-07-20T11:16:12Z</time>
      </trkpt>
      <trkpt lat="48.6201" lon="6.22821">
        <ele>230</ele>
        <time>2013-07-20T11:16:14Z</time>
      </trkpt>
      <trkpt lat="48.6203" lon="6.22816">
        <ele>227</ele>
        <time>2013-07-20T11:16:16Z</time>
      </trkpt>
      <trkpt lat="48.62049" lon="6.22807">
        <ele>225</ele>
        <time>2013-07-20T11:16:18Z</time>
      </trkpt>
      <trkpt lat="48.62066" lon="6.2279">
        <ele>225</ele>
        <time>2013-07-20T11:16:20Z</time>
      </trkpt>
      <trkpt lat="48.62082" lon="6.22769">
        <ele>222</ele>
        <time>2013-07-20T11:16:22Z</time>
      </trkpt>
      <trkpt lat="48.62095" lon="6.2275">
        <ele>225</ele>
        <time>2013-07-20T11:16:24Z</time>
      </trkpt>
      <trkpt lat="48.62106" lon="6.22731">
        <ele>222</ele>
        <time>2013-07-20T11:16:26Z</time>
      </trkpt>
      <trkpt lat="48.62115" lon="6.22713">
        <ele>220</ele>
        <time>2013-07-20T11:16:28Z</time>
      </trkpt>
      <trkpt lat="48.62123" lon="6.22698">
        <ele>219</ele>
        <time>2013-07-20T11:16:31Z</time>
      </trkpt>
      <trkpt lat="48.62129" lon="6.22685">
        <ele>220</ele>
        <time>2013-07-20T11:16:33Z</time>
      </trkpt>
      <trkpt lat="48.62134" lon="6.22675">
        <ele>221</ele>
        <time>2013-07-20T11:16:35Z</time>
      </trkpt>
      <trkpt lat="48.62139" lon="6.22665">
        <ele>222</ele>
        <time>2013-07-20T11:16:36Z</time>
      </trkpt>
      <trkpt lat="48.62144" lon="6.22655">
        <ele>222</ele>
        <time>2013-07-20T11:16:38Z</time>
      </trkpt>
      <trkpt lat="48.62149" lon="6.22644">
        <ele>223</ele>
        <time>2013-07-20T11:16:40Z</time>
      </trkpt>
      <trkpt lat="48.62154" lon="6.22634">
        <ele>224</ele>
        <time>2013-07-20T11:16:42Z</time>
      </trkpt>
      <trkpt lat="48.6216" lon="6.22623">
        <ele>225</ele>
        <time>2013-07-20T11:16:44Z</time>
      </trkpt>
      <trkpt lat="48.62166" lon="6.22612">
        <ele>225</ele>
        <time>2013-07-20T11:16:46Z</time>
      </trkpt>
      <trkpt lat="48.62172" lon="6.22601">
        <ele>226</ele>
        <time>2013-07-20T11:16:48Z</time>
      </trkpt>
      <trkpt lat="48.62178" lon="6.2259">
        <ele>227</ele>
        <time>2013-07-20T11:16:50Z</time>
      </trkpt>
      <trkpt lat="48.62184" lon="6.22579">
        <ele>229</ele>
        <time>2013-07-20T11:16:52Z</time>
      </trkpt>
      <trkpt lat="48.6219" lon="6.22568">
        <ele>230</ele>
        <time>2013-07-20T11:16:54Z</time>
      </trkpt>
      <trkpt lat="48.62197" lon="6.22557">
        <ele>230</ele>
        <time>2013-07-20T11:16:56Z</time>
      </trkpt>
      <trkpt lat="48.62203" lon="6.22546">
        <ele>231</ele>
        <time>2013-07-20T11:16:58Z</time>
      </trkpt>
      <trkpt lat="48.6221" lon="6.22535">
        <ele>231</ele>
        <time>2013-07-20T11:17:01Z</time>
      </trkpt>
      <trkpt lat="48.62217" lon="6.22524">
        <ele>231</ele>
        <time>2013-07-20T11:17:03Z</time>
      </trkpt>
      <trkpt lat="48.62224" lon="6.22514">
        <ele>231</ele>
        <time>2013-07-20T11:17:05Z</time>
      </trkpt>
      <trkpt lat="48.62231" lon="6.22504">
        <ele>231</ele>
        <time>2013-07-20T11:17:06Z</time>
      </trkpt>
      <trkpt lat="48.6224" lon="6.22493">
        <ele>230</ele>
        <time>2013-07-20T11:17:08Z</time>
      </trkpt>
      <trkpt lat="48.62248" lon="6.22483">
        <ele>230</ele>
        <time>2013-07-20T11:17:10Z</time>
      </trkpt>
      <trkpt lat="48.62257" lon="6.22472">
        <ele>230</ele>
        <time>2013-07-20T11:17:12Z</time>
      </trkpt>
      <trkpt lat="48.62266" lon="6.22462">
        <ele>229</ele>
        <time>2013-07-20T11:17:15Z</time>
      </trkpt>
      <trkpt lat="48.62275" lon="6.22451">
        <ele>229</ele>
        <time>2013-07-20T11:17:16Z</time>
      </trkpt>
      <trkpt lat="48.62284" lon="6.22441">
        <ele>228</ele>
        <time>2013-07-20T11:17:18Z</time>
      </trkpt>
      <trkpt lat="48.62293" lon="6.2243">
        <ele>229</ele>
        <time>2013-07-20T11:17:20Z</time>
      </trkpt>
      <trkpt lat="48.62302" lon="6.22419">
        <ele>229</ele>
        <time>2013-07-20T11:17:22Z</time>
      </trkpt>
      <trkpt lat="48.62311" lon="6.22409">
        <ele>229</ele>
        <time>2013-07-20T11:17:24Z</time>
      </trkpt>
      <trkpt lat="48.6232" lon="6.22398">
        <ele>229</ele>
        <time>2013-07-20T11:17:26Z</time>
      </trkpt>
      <trkpt lat="48.62328" lon="6.22388">
        <ele>229</ele>
        <time>2013-07-20T11:17:28Z</time>
      </trkpt>
      <trkpt lat="48.62338" lon="6.22377">
        <ele>229</ele>
        <time>2013-07-20T11:17:31Z</time>
      </trkpt>
      <trkpt lat="48.62347" lon="6.22366">
        <ele>229</ele>
        <time>2013-07-20T11:17:33Z</time>
      </trkpt>
      <trkpt lat="48.62357" lon="6.22355">
        <ele>228</ele>
        <time>2013-07-20T11:17:35Z</time>
      </trkpt>
      <trkpt lat="48.62367" lon="6.22343">
        <ele>228</ele>
        <time>2013-07-20T11:17:36Z</time>
      </trkpt>
      <trkpt lat="48.62376" lon="6.22332">
        <ele>227</ele>
        <time>2013-07-20T11:17:38Z</time>
      </trkpt>
      <trkpt lat="48.62386" lon="6.2232">
        <ele>227</ele>
        <time>2013-07-20T11:17:40Z</time>
      </trkpt>
      <trkpt lat="48.62396" lon="6.22309">
        <ele>227</ele>
        <time>2013-07-20T11:17:42Z</time>
      </trkpt>
      <trkpt lat="48.62405" lon="6.22298">
        <ele>227</ele>
        <time>2013-07-20T11:17:44Z</time>
      </trkpt>
      <trkpt lat="48.62415" lon="6.22287">
        <ele>227</ele>
        <time>2013-07-20T11:17:46Z</time>
      </trkpt>
      <trkpt lat="48.62424" lon="6.22277">
        <ele>227</ele>
        <time>2013-07-20T11:17:48Z</time>
      </trkpt>
      <trkpt lat="48.62433" lon="6.22267">
        <ele>227</ele>
        <time>2013-07-20T11:17:50Z</time>
      </trkpt>
      <trkpt lat="48.62442" lon="6.22257">
        <ele>226</ele>
        <time>2013-07-20T11:17:52Z</time>
      </trkpt>
      <trkpt lat="48.62451" lon="6.22246">
        <ele>227</ele>
        <time>2013-07-20T11:17:54Z</time>
      </trkpt>
      <trkpt lat="48.6246" lon="6.22236">
        <ele>226</ele>
        <time>2013-07-20T11:17:56Z</time>
      </trkpt>
      <trkpt lat="48.62468" lon="6.22226">
        <ele>226</ele>
        <time>2013-07-20T11:17:58Z</time>
      </trkpt>
      <trkpt lat="48.62477" lon="6.22215">
        <ele>226</ele>
        <time>2013-07-20T11:18:00Z</time>
      </trkpt>
      <trkpt lat="48.62485" lon="6.22205">
        <ele>227</ele>
        <time>2013-07-20T11:18:03Z</time>
      </trkpt>
      <trkpt lat="48.62493" lon="6.22194">
        <ele>226</ele>
        <time>2013-07-20T11:18:05Z</time>
      </trkpt>
      <trkpt lat="48.62501" lon="6.22182">
        <ele>226</ele>
        <time>2013-07-20T11:18:07Z</time>
      </trkpt>
      <trkpt lat="48.62509" lon="6.22169">
        <ele>226</ele>
        <time>2013-07-20T11:18:08Z</time>
      </trkpt>
      <trkpt lat="48.62516" lon="6.22155">
        <ele>226</ele>
        <time>2013-07-20T11:18:11Z</time>
      </trkpt>
      <trkpt lat="48.62523" lon="6.22141">
        <ele>226</ele>
        <time>2013-07-20T11:18:13Z</time>
      </trkpt>
      <trkpt lat="48.62529" lon="6.22125">
        <ele>225</ele>
        <time>2013-07-20T11:18:15Z</time>
      </trkpt>
      <trkpt lat="48.62535" lon="6.2211">
        <ele>225</ele>
        <time>2013-07-20T11:18:16Z</time>
      </trkpt>
      <trkpt lat="48.62541" lon="6.22095">
        <ele>226</ele>
        <time>2013-07-20T11:18:18Z</time>
      </trkpt>
      <trkpt lat="48.62547" lon="6.2208">
        <ele>225</ele>
        <time>2013-07-20T11:18:20Z</time>
      </trkpt>
      <trkpt lat="48.62552" lon="6.22067">
        <ele>229</ele>
        <time>2013-07-20T11:18:23Z</time>
      </trkpt>
      <trkpt lat="48.62558" lon="6.22053">
        <ele>228</ele>
        <time>2013-07-20T11:18:24Z</time>
      </trkpt>
      <trkpt lat="48.62564" lon="6.22037">
        <ele>227</ele>
        <time>2013-07-20T11:18:26Z</time>
      </trkpt>
      <trkpt lat="48.6257" lon="6.22021">
        <ele>225</ele>
        <time>2013-07-20T11:18:28Z</time>
      </trkpt>
      <trkpt lat="48.62577" lon="6.22003">
        <ele>225</ele>
        <time>2013-07-20T11:18:31Z</time>
      </trkpt>
      <trkpt lat="48.62583" lon="6.21984">
        <ele>224</ele>
        <time>2013-07-20T11:18:32Z</time>
      </trkpt>
      <trkpt lat="48.62589" lon="6.21964">
        <ele>223</ele>
        <time>2013-07-20T11:18:34Z</time>
      </trkpt>
      <trkpt lat="48.62595" lon="6.21941">
        <ele>222</ele>
        <time>2013-07-20T11:18:36Z</time>
      </trkpt>
      <trkpt lat="48.626" lon="6.21918">
        <ele>221</ele>
        <time>2013-07-20T11:18:38Z</time>
      </trkpt>
      <trkpt lat="48.62605" lon="6.21896">
        <ele>221</ele>
        <time>2013-07-20T11:18:41Z</time>
      </trkpt>
      <trkpt lat="48.62609" lon="6.21878">
        <ele>222</ele>
        <time>2013-07-20T11:18:42Z</time>
      </trkpt>
      <trkpt lat="48.62612" lon="6.21862">
        <ele>222</ele>
        <time>2013-07-20T11:18:44Z</time>
      </trkpt>
      <trkpt lat="48.62615" lon="6.21849">
        <ele>223</ele>
        <time>2013-07-20T11:18:46Z</time>
      </trkpt>
      <trkpt lat="48.62618" lon="6.21835">
        <ele>223</ele>
        <time>2013-07-20T11:18:48Z</time>
      </trkpt>
      <trkpt lat="48.62622" lon="6.21818">
        <ele>222</ele>
        <time>2013-07-20T11:18:50Z</time>
      </trkpt>
      <trkpt lat="48.62626" lon="6.21801">
        <ele>222</ele>
        <time>2013-07-20T11:18:52Z</time>
      </trkpt>
      <trkpt lat="48.62631" lon="6.21782">
        <ele>221</ele>
        <time>2013-07-20T11:18:55Z</time>
      </trkpt>
      <trkpt lat="48.62636" lon="6.21764">
        <ele>222</ele>
        <time>2013-07-20T11:18:56Z</time>
      </trkpt>
      <trkpt lat="48.62641" lon="6.21747">
        <ele>222</ele>
        <time>2013-07-20T11:18:58Z</time>
      </trkpt>
      <trkpt lat="48.62645" lon="6.21734">
        <ele>221</ele>
        <time>2013-07-20T11:19:00Z</time>
      </trkpt>
      <trkpt lat="48.62648" lon="6.21724">
        <ele>222</ele>
        <time>2013-07-20T11:19:02Z</time>
      </trkpt>
      <trkpt lat="48.6265" lon="6.21715">
        <ele>222</ele>
        <time>2013-07-20T11:19:05Z</time>
      </trkpt>
      <trkpt lat="48.62653" lon="6.21706">
        <ele>222</ele>
        <time>2013-07-20T11:19:06Z</time>
      </trkpt>
      <trkpt lat="48.62655" lon="6.21697">
        <ele>222</ele>
        <time>2013-07-20T11:19:08Z</time>
      </trkpt>
      <trkpt lat="48.62658" lon="6.21688">
        <ele>222</ele>
        <time>2013-07-20T11:19:10Z</time>
      </trkpt>
      <trkpt lat="48.62661" lon="6.21679">
        <ele>223</ele>
        <time>2013-07-20T11:19:13Z</time>
      </trkpt>
      <trkpt lat="48.62663" lon="6.21669">
        <ele>224</ele>
        <time>2013-07-20T11:19:15Z</time>
      </trkpt>
      <trkpt lat="48.62667" lon="6.2166">
        <ele>225</ele>
        <time>2013-07-20T11:19:16Z</time>
      </trkpt>
      <trkpt lat="48.62671" lon="6.2165">
        <ele>225</ele>
        <time>2013-07-20T11:19:19Z</time>
      </trkpt>
      <trkpt lat="48.62674" lon="6.21641">
        <ele>226</ele>
        <time>2013-07-20T11:19:20Z</time>
      </trkpt>
      <trkpt lat="48.62676" lon="6.21631">
        <ele>226</ele>
        <time>2013-07-20T11:19:22Z</time>
      </trkpt>
      <trkpt lat="48.6268" lon="6.21622">
        <ele>225</ele>
        <time>2013-07-20T11:19:24Z</time>
      </trkpt>
      <trkpt lat="48.62683" lon="6.21612">
        <ele>225</ele>
        <time>2013-07-20T11:19:27Z</time>
      </trkpt>
      <trkpt lat="48.62687" lon="6.21601">
        <ele>227</ele>
        <time>2013-07-20T11:19:28Z</time>
      </trkpt>
      <trkpt lat="48.6269" lon="6.21591">
        <ele>226</ele>
        <time>2013-07-20T11:19:30Z</time>
      </trkpt>
      <trkpt lat="48.62693" lon="6.2158">
        <ele>226</ele>
        <time>2013-07-20T11:19:32Z</time>
      </trkpt>
      <trkpt lat="48.62696" lon="6.21568">
        <ele>226</ele>
        <time>2013-07-20T11:19:34Z</time>
      </trkpt>
      <trkpt lat="48.627" lon="6.21556">
        <ele>225</ele>
        <time>2013-07-20T11:19:36Z</time>
      </trkpt>
      <trkpt lat="48.62705" lon="6.21542">
        <ele>225</ele>
        <time>2013-07-20T11:19:38Z</time>
      </trkpt>
      <trkpt lat="48.6271" lon="6.21528">
        <ele>224</ele>
        <time>2013-07-20T11:19:41Z</time>
      </trkpt>
      <trkpt lat="48.62715" lon="6.21512">
        <ele>224</ele>
        <time>2013-07-20T11:19:43Z</time>
      </trkpt>
      <trkpt lat="48.6272" lon="6.21496">
        <ele>224</ele>
        <time>2013-07-20T11:19:45Z</time>
      </trkpt>
      <trkpt lat="48.62726" lon="6.21479">
        <ele>224</ele>
        <time>2013-07-20T11:19:46Z</time>
      </trkpt>
      <trkpt lat="48.62731" lon="6.21462">
        <ele>224</ele>
        <time>2013-07-20T11:19:48Z</time>
      </trkpt>
      <trkpt lat="48.62737" lon="6.21445">
        <ele>224</ele>
        <time>2013-07-20T11:19:50Z</time>
      </trkpt>
      <trkpt lat="48.62743" lon="6.21427">
        <ele>224</ele>
        <time>2013-07-20T11:19:53Z</time>
      </trkpt>
      <trkpt lat="48.62749" lon="6.2141">
        <ele>225</ele>
        <time>2013-07-20T11:19:55Z</time>
      </trkpt>
      <trkpt lat="48.62755" lon="6.21391">
        <ele>225</ele>
        <time>2013-07-20T11:19:56Z</time>
      </trkpt>
      <trkpt lat="48.62761" lon="6.21373">
        <ele>225</ele>
        <time>2013-07-20T11:19:59Z</time>
      </trkpt>
      <trkpt lat="48.62767" lon="6.21353">
        <ele>224</ele>
        <time>2013-07-20T11:20:01Z</time>
      </trkpt>
      <trkpt lat="48.62774" lon="6.21334">
        <ele>224</ele>
        <time>2013-07-20T11:20:03Z</time>
      </trkpt>
      <trkpt lat="48.62779" lon="6.21316">
        <ele>226</ele>
        <time>2013-07-20T11:20:04Z</time>
      </trkpt>
      <trkpt lat="48.62784" lon="6.21297">
        <ele>225</ele>
        <time>2013-07-20T11:20:06Z</time>
      </trkpt>
      <trkpt lat="48.62788" lon="6.2128">
        <ele>224</ele>
        <time>2013-07-20T11:20:09Z</time>
      </trkpt>
      <trkpt lat="48.62791" lon="6.21263">
        <ele>225</ele>
        <time>2013-07-20T11:20:11Z</time>
      </trkpt>
      <trkpt lat="48.62795" lon="6.21246">
        <ele>225</ele>
        <time>2013-07-20T11:20:12Z</time>
      </trkpt>
      <trkpt lat="48.62798" lon="6.2123">
        <ele>225</ele>
        <time>2013-07-20T11:20:15Z</time>
      </trkpt>
      <trkpt lat="48.62801" lon="6.21214">
        <ele>225</ele>
        <time>2013-07-20T11:20:16Z</time>
      </trkpt>
      <trkpt lat="48.62803" lon="6.21198">
        <ele>226</ele>
        <time>2013-07-20T11:20:18Z</time>
      </trkpt>
      <trkpt lat="48.62805" lon="6.21183">
        <ele>226</ele>
        <time>2013-07-20T11:20:20Z</time>
      </trkpt>
      <trkpt lat="48.62808" lon="6.21169">
        <ele>224</ele>
        <time>2013-07-20T11:20:23Z</time>
      </trkpt>
      <trkpt lat="48.62809" lon="6.21157">
        <ele>227</ele>
        <time>2013-07-20T11:20:24Z</time>
      </trkpt>
      <trkpt lat="48.62814" lon="6.21146">
        <ele>227</ele>
        <time>2013-07-20T11:20:26Z</time>
      </trkpt>
      <trkpt lat="48.62822" lon="6.21139">
        <ele>227</ele>
        <time>2013-07-20T11:20:29Z</time>
      </trkpt>
      <trkpt lat="48.62832" lon="6.21135">
        <ele>225</ele>
        <time>2013-07-20T11:20:30Z</time>
      </trkpt>
      <trkpt lat="48.62843" lon="6.21131">
        <ele>224</ele>
        <time>2013-07-20T11:20:33Z</time>
      </trkpt>
      <trkpt lat="48.62855" lon="6.21126">
        <ele>226</ele>
        <time>2013-07-20T11:20:35Z</time>
      </trkpt>
      <trkpt lat="48.62868" lon="6.21122">
        <ele>225</ele>
        <time>2013-07-20T11:20:37Z</time>
      </trkpt>
      <trkpt lat="48.62882" lon="6.21118">
        <ele>224</ele>
        <time>2013-07-20T11:20:39Z</time>
      </trkpt>
      <trkpt lat="48.62895" lon="6.21113">
        <ele>223</ele>
        <time>2013-07-20T11:20:41Z</time>
      </trkpt>
      <trkpt lat="48.62908" lon="6.21108">
        <ele>222</ele>
        <time>2013-07-20T11:20:43Z</time>
      </trkpt>
      <trkpt lat="48.62923" lon="6.21103">
        <ele>223</ele>
        <time>2013-07-20T11:20:45Z</time>
      </trkpt>
      <trkpt lat="48.62938" lon="6.21097">
        <ele>223</ele>
        <time>2013-07-20T11:20:46Z</time>
      </trkpt>
      <trkpt lat="48.62952" lon="6.21092">
        <ele>222</ele>
        <time>2013-07-20T11:20:48Z</time>
      </trkpt>
      <trkpt lat="48.62967" lon="6.21087">
        <ele>222</ele>
        <time>2013-07-20T11:20:50Z</time>
      </trkpt>
      <trkpt lat="48.62981" lon="6.21082">
        <ele>222</ele>
        <time>2013-07-20T11:20:52Z</time>
      </trkpt>
      <trkpt lat="48.62996" lon="6.21077">
        <ele>220</ele>
        <time>2013-07-20T11:20:54Z</time>
      </trkpt>
      <trkpt lat="48.63019" lon="6.21068">
        <ele>217</ele>
        <time>2013-07-20T11:20:58Z</time>
      </trkpt>
      <trkpt lat="48.63026" lon="6.21065">
        <ele>219</ele>
        <time>2013-07-20T11:20:58Z</time>
      </trkpt>
      <trkpt lat="48.63041" lon="6.21059">
        <ele>220</ele>
        <time>2013-07-20T11:21:01Z</time>
      </trkpt>
      <trkpt lat="48.63056" lon="6.21051">
        <ele>220</ele>
        <time>2013-07-20T11:21:03Z</time>
      </trkpt>
      <trkpt lat="48.63072" lon="6.21044">
        <ele>219</ele>
        <time>2013-07-20T11:21:05Z</time>
      </trkpt>
      <trkpt lat="48.6309" lon="6.21037">
        <ele>217</ele>
        <time>2013-07-20T11:21:06Z</time>
      </trkpt>
      <trkpt lat="48.63104" lon="6.21032">
        <ele>214</ele>
        <time>2013-07-20T11:21:09Z</time>
      </trkpt>
      <trkpt lat="48.63112" lon="6.21025">
        <ele>215</ele>
        <time>2013-07-20T11:21:10Z</time>
      </trkpt>
      <trkpt lat="48.63117" lon="6.21015">
        <ele>218</ele>
        <time>2013-07-20T11:21:12Z</time>
      </trkpt>
      <trkpt lat="48.63132" lon="6.21">
        <ele>219</ele>
        <time>2013-07-20T11:21:18Z</time>
      </trkpt>
      <trkpt lat="48.63142" lon="6.21003">
        <ele>218</ele>
        <time>2013-07-20T11:21:20Z</time>
      </trkpt>
      <trkpt lat="48.63155" lon="6.21005">
        <ele>218</ele>
        <time>2013-07-20T11:21:23Z</time>
      </trkpt>
      <trkpt lat="48.63167" lon="6.21006">
        <ele>216</ele>
        <time>2013-07-20T11:21:25Z</time>
      </trkpt>
      <trkpt lat="48.63182" lon="6.21009">
        <ele>213</ele>
        <time>2013-07-20T11:21:26Z</time>
      </trkpt>
      <trkpt lat="48.63199" lon="6.21012">
        <ele>212</ele>
        <time>2013-07-20T11:21:29Z</time>
      </trkpt>
      <trkpt lat="48.63215" lon="6.21014">
        <ele>212</ele>
        <time>2013-07-20T11:21:31Z</time>
      </trkpt>
      <trkpt lat="48.6323" lon="6.21017">
        <ele>211</ele>
        <time>2013-07-20T11:21:33Z</time>
      </trkpt>
      <trkpt lat="48.63245" lon="6.2102">
        <ele>211</ele>
        <time>2013-07-20T11:21:35Z</time>
      </trkpt>
      <trkpt lat="48.63259" lon="6.21023">
        <ele>212</ele>
        <time>2013-07-20T11:21:36Z</time>
      </trkpt>
      <trkpt lat="48.63273" lon="6.21026">
        <ele>212</ele>
        <time>2013-07-20T11:21:39Z</time>
      </trkpt>
      <trkpt lat="48.63287" lon="6.21029">
        <ele>212</ele>
        <time>2013-07-20T11:21:41Z</time>
      </trkpt>
      <trkpt lat="48.63301" lon="6.21031">
        <ele>212</ele>
        <time>2013-07-20T11:21:42Z</time>
      </trkpt>
      <trkpt lat="48.63315" lon="6.21034">
        <ele>210</ele>
        <time>2013-07-20T11:21:45Z</time>
      </trkpt>
      <trkpt lat="48.63329" lon="6.21037">
        <ele>209</ele>
        <time>2013-07-20T11:21:47Z</time>
      </trkpt>
      <trkpt lat="48.63343" lon="6.21039">
        <ele>209</ele>
        <time>2013-07-20T11:21:49Z</time>
      </trkpt>
      <trkpt lat="48.63356" lon="6.21041">
        <ele>209</ele>
        <time>2013-07-20T11:21:51Z</time>
      </trkpt>
      <trkpt lat="48.63369" lon="6.21043">
        <ele>211</ele>
        <time>2013-07-20T11:21:53Z</time>
      </trkpt>
      <trkpt lat="48.6338" lon="6.21045">
        <ele>213</ele>
        <time>2013-07-20T11:21:55Z</time>
      </trkpt>
      <trkpt lat="48.63393" lon="6.21046">
        <ele>213</ele>
        <time>2013-07-20T11:21:56Z</time>
      </trkpt>
      <trkpt lat="48.63405" lon="6.21048">
        <ele>212</ele>
        <time>2013-07-20T11:21:59Z</time>
      </trkpt>
      <trkpt lat="48.63417" lon="6.2105">
        <ele>212</ele>
        <time>2013-07-20T11:22:01Z</time>
      </trkpt>
      <trkpt lat="48.63429" lon="6.21052">
        <ele>212</ele>
        <time>2013-07-20T11:22:03Z</time>
      </trkpt>
      <trkpt lat="48.63442" lon="6.21055">
        <ele>211</ele>
        <time>2013-07-20T11:22:05Z</time>
      </trkpt>
      <trkpt lat="48.63453" lon="6.21056">
        <ele>212</ele>
        <time>2013-07-20T11:22:06Z</time>
      </trkpt>
      <trkpt lat="48.63466" lon="6.21058">
        <ele>212</ele>
        <time>2013-07-20T11:22:08Z</time>
      </trkpt>
      <trkpt lat="48.63478" lon="6.2106">
        <ele>211</ele>
        <time>2013-07-20T11:22:11Z</time>
      </trkpt>
      <trkpt lat="48.6349" lon="6.21062">
        <ele>213</ele>
        <time>2013-07-20T11:22:13Z</time>
      </trkpt>
      <trkpt lat="48.63503" lon="6.21064">
        <ele>214</ele>
        <time>2013-07-20T11:22:15Z</time>
      </trkpt>
      <trkpt lat="48.63516" lon="6.21066">
        <ele>215</ele>
        <time>2013-07-20T11:22:16Z</time>
      </trkpt>
      <trkpt lat="48.6353" lon="6.21068">
        <ele>214</ele>
        <time>2013-07-20T11:22:19Z</time>
      </trkpt>
      <trkpt lat="48.63544" lon="6.2107">
        <ele>213</ele>
        <time>2013-07-20T11:22:21Z</time>
      </trkpt>
      <trkpt lat="48.63558" lon="6.21073">
        <ele>213</ele>
        <time>2013-07-20T11:22:23Z</time>
      </trkpt>
      <trkpt lat="48.6357" lon="6.21076">
        <ele>212</ele>
        <time>2013-07-20T11:22:25Z</time>
      </trkpt>
      <trkpt lat="48.63584" lon="6.2108">
        <ele>210</ele>
        <time>2013-07-20T11:22:26Z</time>
      </trkpt>
      <trkpt lat="48.63598" lon="6.21083">
        <ele>210</ele>
        <time>2013-07-20T11:22:29Z</time>
      </trkpt>
      <trkpt lat="48.63613" lon="6.21086">
        <ele>209</ele>
        <time>2013-07-20T11:22:31Z</time>
      </trkpt>
      <trkpt lat="48.63628" lon="6.21087">
        <ele>209</ele>
        <time>2013-07-20T11:22:33Z</time>
      </trkpt>
      <trkpt lat="48.63642" lon="6.21089">
        <ele>210</ele>
        <time>2013-07-20T11:22:35Z</time>
      </trkpt>
      <trkpt lat="48.63655" lon="6.21091">
        <ele>212</ele>
        <time>2013-07-20T11:22:36Z</time>
      </trkpt>
      <trkpt lat="48.63669" lon="6.21093">
        <ele>211</ele>
        <time>2013-07-20T11:22:39Z</time>
      </trkpt>
      <trkpt lat="48.63683" lon="6.21095">
        <ele>212</ele>
        <time>2013-07-20T11:22:41Z</time>
      </trkpt>
      <trkpt lat="48.63697" lon="6.21096">
        <ele>212</ele>
        <time>2013-07-20T11:22:43Z</time>
      </trkpt>
      <trkpt lat="48.6371" lon="6.21098">
        <ele>213</ele>
        <time>2013-07-20T11:22:45Z</time>
      </trkpt>
      <trkpt lat="48.63724" lon="6.21101">
        <ele>212</ele>
        <time>2013-07-20T11:22:46Z</time>
      </trkpt>
      <trkpt lat="48.63737" lon="6.21103">
        <ele>211</ele>
        <time>2013-07-20T11:22:48Z</time>
      </trkpt>
      <trkpt lat="48.6375" lon="6.21105">
        <ele>211</ele>
        <time>2013-07-20T11:22:51Z</time>
      </trkpt>
      <trkpt lat="48.63763" lon="6.21107">
        <ele>210</ele>
        <time>2013-07-20T11:22:53Z</time>
      </trkpt>
      <trkpt lat="48.63777" lon="6.21109">
        <ele>210</ele>
        <time>2013-07-20T11:22:55Z</time>
      </trkpt>
      <trkpt lat="48.6379" lon="6.21111">
        <ele>210</ele>
        <time>2013-07-20T11:22:56Z</time>
      </trkpt>
      <trkpt lat="48.63802" lon="6.21113">
        <ele>211</ele>
        <time>2013-07-20T11:22:59Z</time>
      </trkpt>
      <trkpt lat="48.63815" lon="6.21115">
        <ele>212</ele>
        <time>2013-07-20T11:23:01Z</time>
      </trkpt>
      <trkpt lat="48.63828" lon="6.21117">
        <ele>210</ele>
        <time>2013-07-20T11:23:03Z</time>
      </trkpt>
      <trkpt lat="48.63834" lon="6.21118">
        <ele>210</ele>
        <time>2013-07-20T11:23:04Z</time>
      </trkpt>
      <trkpt lat="48.63841" lon="6.21119">
        <ele>209</ele>
        <time>2013-07-20T11:23:04Z</time>
      </trkpt>
      <trkpt lat="48.63853" lon="6.21121">
        <ele>209</ele>
        <time>2013-07-20T11:23:06Z</time>
      </trkpt>
      <trkpt lat="48.63866" lon="6.21124">
        <ele>209</ele>
        <time>2013-07-20T11:23:09Z</time>
      </trkpt>
      <trkpt lat="48.63879" lon="6.21126">
        <ele>210</ele>
        <time>2013-07-20T11:23:11Z</time>
      </trkpt>
      <trkpt lat="48.63893" lon="6.21129">
        <ele>211</ele>
        <time>2013-07-20T11:23:13Z</time>
      </trkpt>
      <trkpt lat="48.63907" lon="6.21131">
        <ele>212</ele>
        <time>2013-07-20T11:23:15Z</time>
      </trkpt>
      <trkpt lat="48.63921" lon="6.21133">
        <ele>212</ele>
        <time>2013-07-20T11:23:16Z</time>
      </trkpt>
      <trkpt lat="48.63935" lon="6.21135">
        <ele>211</ele>
        <time>2013-07-20T11:23:19Z</time>
      </trkpt>
      <trkpt lat="48.6395" lon="6.21137">
        <ele>211</ele>
        <time>2013-07-20T11:23:21Z</time>
      </trkpt>
      <trkpt lat="48.63964" lon="6.21139">
        <ele>211</ele>
        <time>2013-07-20T11:23:23Z</time>
      </trkpt>
      <trkpt lat="48.63978" lon="6.2114">
        <ele>210</ele>
        <time>2013-07-20T11:23:25Z</time>
      </trkpt>
      <trkpt lat="48.63991" lon="6.2114">
        <ele>212</ele>
        <time>2013-07-20T11:23:26Z</time>
      </trkpt>
      <trkpt lat="48.64005" lon="6.21137">
        <ele>212</ele>
        <time>2013-07-20T11:23:28Z</time>
      </trkpt>
      <trkpt lat="48.64021" lon="6.21133">
        <ele>210</ele>
        <time>2013-07-20T11:23:31Z</time>
      </trkpt>
      <trkpt lat="48.64035" lon="6.21128">
        <ele>209</ele>
        <time>2013-07-20T11:23:33Z</time>
      </trkpt>
      <trkpt lat="48.64049" lon="6.21123">
        <ele>211</ele>
        <time>2013-07-20T11:23:35Z</time>
      </trkpt>
      <trkpt lat="48.64064" lon="6.21119">
        <ele>209</ele>
        <time>2013-07-20T11:23:37Z</time>
      </trkpt>
      <trkpt lat="48.64078" lon="6.21115">
        <ele>210</ele>
        <time>2013-07-20T11:23:39Z</time>
      </trkpt>
      <trkpt lat="48.64092" lon="6.2111">
        <ele>210</ele>
        <time>2013-07-20T11:23:41Z</time>
      </trkpt>
      <trkpt lat="48.64105" lon="6.21107">
        <ele>212</ele>
        <time>2013-07-20T11:23:43Z</time>
      </trkpt>
      <trkpt lat="48.64119" lon="6.21103">
        <ele>211</ele>
        <time>2013-07-20T11:23:45Z</time>
      </trkpt>
      <trkpt lat="48.64132" lon="6.21099">
        <ele>212</ele>
        <time>2013-07-20T11:23:47Z</time>
      </trkpt>
      <trkpt lat="48.64144" lon="6.21096">
        <ele>212</ele>
        <time>2013-07-20T11:23:49Z</time>
      </trkpt>
      <trkpt lat="48.64156" lon="6.21092">
        <ele>210</ele>
        <time>2013-07-20T11:23:51Z</time>
      </trkpt>
      <trkpt lat="48.64166" lon="6.21089">
        <ele>213</ele>
        <time>2013-07-20T11:23:53Z</time>
      </trkpt>
      <trkpt lat="48.64175" lon="6.21086">
        <ele>214</ele>
        <time>2013-07-20T11:23:55Z</time>
      </trkpt>
      <trkpt lat="48.6418" lon="6.21085">
        <ele>216</ele>
        <time>2013-07-20T11:23:56Z</time>
      </trkpt>
      <trkpt lat="48.64185" lon="6.21084">
        <ele>215</ele>
        <time>2013-07-20T11:23:57Z</time>
      </trkpt>
      <trkpt lat="48.64194" lon="6.21081">
        <ele>215</ele>
        <time>2013-07-20T11:23:59Z</time>
      </trkpt>
      <trkpt lat="48.64203" lon="6.21078">
        <ele>216</ele>
        <time>2013-07-20T11:24:01Z</time>
      </trkpt>
      <trkpt lat="48.64212" lon="6.21076">
        <ele>216</ele>
        <time>2013-07-20T11:24:03Z</time>
      </trkpt>
      <trkpt lat="48.64221" lon="6.21074">
        <ele>217</ele>
        <time>2013-07-20T11:24:05Z</time>
      </trkpt>
      <trkpt lat="48.6423" lon="6.21072">
        <ele>217</ele>
        <time>2013-07-20T11:24:07Z</time>
      </trkpt>
      <trkpt lat="48.6424" lon="6.2107">
        <ele>214</ele>
        <time>2013-07-20T11:24:09Z</time>
      </trkpt>
      <trkpt lat="48.6425" lon="6.21069">
        <ele>215</ele>
        <time>2013-07-20T11:24:11Z</time>
      </trkpt>
      <trkpt lat="48.64259" lon="6.21068">
        <ele>216</ele>
        <time>2013-07-20T11:24:13Z</time>
      </trkpt>
      <trkpt lat="48.64267" lon="6.21066">
        <ele>217</ele>
        <time>2013-07-20T11:24:15Z</time>
      </trkpt>
      <trkpt lat="48.64276" lon="6.21064">
        <ele>212</ele>
        <time>2013-07-20T11:24:16Z</time>
      </trkpt>
      <trkpt lat="48.64285" lon="6.21061">
        <ele>213</ele>
        <time>2013-07-20T11:24:19Z</time>
      </trkpt>
      <trkpt lat="48.64294" lon="6.21059">
        <ele>212</ele>
        <time>2013-07-20T11:24:21Z</time>
      </trkpt>
      <trkpt lat="48.64301" lon="6.21056">
        <ele>216</ele>
        <time>2013-07-20T11:24:23Z</time>
      </trkpt>
      <trkpt lat="48.64308" lon="6.21053">
        <ele>214</ele>
        <time>2013-07-20T11:24:25Z</time>
      </trkpt>
      <trkpt lat="48.6432" lon="6.21046">
        <ele>219</ele>
        <time>2013-07-20T11:24:28Z</time>
      </trkpt>
      <trkpt lat="48.64326" lon="6.21043">
        <ele>217</ele>
        <time>2013-07-20T11:24:31Z</time>
      </trkpt>
      <trkpt lat="48.64333" lon="6.2104">
        <ele>218</ele>
        <time>2013-07-20T11:24:33Z</time>
      </trkpt>
      <trkpt lat="48.64342" lon="6.21039">
        <ele>217</ele>
        <time>2013-07-20T11:24:35Z</time>
      </trkpt>
      <trkpt lat="48.64351" lon="6.2104">
        <ele>217</ele>
        <time>2013-07-20T11:24:37Z</time>
      </trkpt>
      <trkpt lat="48.6436" lon="6.21041">
        <ele>217</ele>
        <time>2013-07-20T11:24:39Z</time>
      </trkpt>
      <trkpt lat="48.64368" lon="6.2104">
        <ele>219</ele>
        <time>2013-07-20T11:24:41Z</time>
      </trkpt>
      <trkpt lat="48.64376" lon="6.21037">
        <ele>221</ele>
        <time>2013-07-20T11:24:43Z</time>
      </trkpt>
      <trkpt lat="48.64383" lon="6.21031">
        <ele>222</ele>
        <time>2013-07-20T11:24:44Z</time>
      </trkpt>
      <trkpt lat="48.6439" lon="6.21026">
        <ele>221</ele>
        <time>2013-07-20T11:24:46Z</time>
      </trkpt>
      <trkpt lat="48.64397" lon="6.21022">
        <ele>221</ele>
        <time>2013-07-20T11:24:48Z</time>
      </trkpt>
      <trkpt lat="48.64405" lon="6.21018">
        <ele>220</ele>
        <time>2013-07-20T11:24:51Z</time>
      </trkpt>
      <trkpt lat="48.64413" lon="6.21014">
        <ele>219</ele>
        <time>2013-07-20T11:24:53Z</time>
      </trkpt>
      <trkpt lat="48.6442" lon="6.2101">
        <ele>218</ele>
        <time>2013-07-20T11:24:55Z</time>
      </trkpt>
      <trkpt lat="48.64428" lon="6.21006">
        <ele>220</ele>
        <time>2013-07-20T11:24:57Z</time>
      </trkpt>
      <trkpt lat="48.64435" lon="6.21003">
        <ele>221</ele>
        <time>2013-07-20T11:24:58Z</time>
      </trkpt>
      <trkpt lat="48.64442" lon="6.20999">
        <ele>222</ele>
        <time>2013-07-20T11:25:01Z</time>
      </trkpt>
      <trkpt lat="48.64449" lon="6.20997">
        <ele>223</ele>
        <time>2013-07-20T11:25:03Z</time>
      </trkpt>
      <trkpt lat="48.64455" lon="6.20995">
        <ele>221</ele>
        <time>2013-07-20T11:25:05Z</time>
      </trkpt>
      <trkpt lat="48.64462" lon="6.20993">
        <ele>223</ele>
        <time>2013-07-20T11:25:06Z</time>
      </trkpt>
      <trkpt lat="48.64467" lon="6.2099">
        <ele>227</ele>
        <time>2013-07-20T11:25:08Z</time>
      </trkpt>
      <trkpt lat="48.64472" lon="6.20988">
        <ele>226</ele>
        <time>2013-07-20T11:25:11Z</time>
      </trkpt>
      <trkpt lat="48.64476" lon="6.20986">
        <ele>226</ele>
        <time>2013-07-20T11:25:13Z</time>
      </trkpt>
      <trkpt lat="48.6448" lon="6.20984">
        <ele>227</ele>
        <time>2013-07-20T11:25:14Z</time>
      </trkpt>
      <trkpt lat="48.64484" lon="6.20982">
        <ele>227</ele>
        <time>2013-07-20T11:25:16Z</time>
      </trkpt>
      <trkpt lat="48.64489" lon="6.2098">
        <ele>227</ele>
        <time>2013-07-20T11:25:19Z</time>
      </trkpt>
      <trkpt lat="48.64494" lon="6.20978">
        <ele>228</ele>
        <time>2013-07-20T11:25:21Z</time>
      </trkpt>
      <trkpt lat="48.64499" lon="6.20975">
        <ele>228</ele>
        <time>2013-07-20T11:25:22Z</time>
      </trkpt>
      <trkpt lat="48.64503" lon="6.20972">
        <ele>231</ele>
        <time>2013-07-20T11:25:25Z</time>
      </trkpt>
      <trkpt lat="48.64508" lon="6.20968">
        <ele>230</ele>
        <time>2013-07-20T11:25:27Z</time>
      </trkpt>
      <trkpt lat="48.64512" lon="6.20965">
        <ele>230</ele>
        <time>2013-07-20T11:25:29Z</time>
      </trkpt>
      <trkpt lat="48.64515" lon="6.20962">
        <ele>233</ele>
        <time>2013-07-20T11:25:31Z</time>
      </trkpt>
      <trkpt lat="48.64518" lon="6.20961">
        <ele>234</ele>
        <time>2013-07-20T11:25:33Z</time>
      </trkpt>
      <trkpt lat="48.64522" lon="6.20959">
        <ele>234</ele>
        <time>2013-07-20T11:25:35Z</time>
      </trkpt>
      <trkpt lat="48.64526" lon="6.20957">
        <ele>241</ele>
        <time>2013-07-20T11:25:36Z</time>
      </trkpt>
      <trkpt lat="48.64531" lon="6.20955">
        <ele>239</ele>
        <time>2013-07-20T11:25:39Z</time>
      </trkpt>
      <trkpt lat="48.64536" lon="6.20953">
        <ele>239</ele>
        <time>2013-07-20T11:25:41Z</time>
      </trkpt>
      <trkpt lat="48.64542" lon="6.20951">
        <ele>236</ele>
        <time>2013-07-20T11:25:43Z</time>
      </trkpt>
      <trkpt lat="48.64547" lon="6.20949">
        <ele>232</ele>
        <time>2013-07-20T11:25:45Z</time>
      </trkpt>
      <trkpt lat="48.64551" lon="6.20948">
        <ele>233</ele>
        <time>2013-07-20T11:25:46Z</time>
      </trkpt>
      <trkpt lat="48.64556" lon="6.20945">
        <ele>232</ele>
        <time>2013-07-20T11:25:48Z</time>
      </trkpt>
      <trkpt lat="48.64561" lon="6.20942">
        <ele>231</ele>
        <time>2013-07-20T11:25:51Z</time>
      </trkpt>
      <trkpt lat="48.64566" lon="6.20938">
        <ele>235</ele>
        <time>2013-07-20T11:25:53Z</time>
      </trkpt>
      <trkpt lat="48.64571" lon="6.20935">
        <ele>239</ele>
        <time>2013-07-20T11:25:55Z</time>
      </trkpt>
      <trkpt lat="48.64576" lon="6.20933">
        <ele>242</ele>
        <time>2013-07-20T11:25:56Z</time>
      </trkpt>
      <trkpt lat="48.64581" lon="6.20931">
        <ele>239</ele>
        <time>2013-07-20T11:25:59Z</time>
      </trkpt>
      <trkpt lat="48.64585" lon="6.2093">
        <ele>238</ele>
        <time>2013-07-20T11:26:01Z</time>
      </trkpt>
      <trkpt lat="48.64591" lon="6.20928">
        <ele>240</ele>
        <time>2013-07-20T11:26:03Z</time>
      </trkpt>
      <trkpt lat="48.64597" lon="6.20927">
        <ele>240</ele>
        <time>2013-07-20T11:26:04Z</time>
      </trkpt>
      <trkpt lat="48.64602" lon="6.20925">
        <ele>241</ele>
        <time>2013-07-20T11:26:07Z</time>
      </trkpt>
      <trkpt lat="48.64609" lon="6.20922">
        <ele>237</ele>
        <time>2013-07-20T11:26:09Z</time>
      </trkpt>
      <trkpt lat="48.64618" lon="6.20919">
        <ele>232</ele>
        <time>2013-07-20T11:26:11Z</time>
      </trkpt>
      <trkpt lat="48.64627" lon="6.20916">
        <ele>232</ele>
        <time>2013-07-20T11:26:13Z</time>
      </trkpt>
      <trkpt lat="48.64636" lon="6.20914">
        <ele>234</ele>
        <time>2013-07-20T11:26:15Z</time>
      </trkpt>
      <trkpt lat="48.64645" lon="6.20911">
        <ele>233</ele>
        <time>2013-07-20T11:26:17Z</time>
      </trkpt>
      <trkpt lat="48.64655" lon="6.20908">
        <ele>233</ele>
        <time>2013-07-20T11:26:19Z</time>
      </trkpt>
      <trkpt lat="48.64665" lon="6.20906">
        <ele>234</ele>
        <time>2013-07-20T11:26:21Z</time>
      </trkpt>
      <trkpt lat="48.64675" lon="6.20903">
        <ele>231</ele>
        <time>2013-07-20T11:26:23Z</time>
      </trkpt>
      <trkpt lat="48.64685" lon="6.20901">
        <ele>232</ele>
        <time>2013-07-20T11:26:25Z</time>
      </trkpt>
      <trkpt lat="48.64695" lon="6.20899">
        <ele>230</ele>
        <time>2013-07-20T11:26:26Z</time>
      </trkpt>
      <trkpt lat="48.64705" lon="6.20897">
        <ele>226</ele>
        <time>2013-07-20T11:26:29Z</time>
      </trkpt>
      <trkpt lat="48.64716" lon="6.20895">
        <ele>229</ele>
        <time>2013-07-20T11:26:31Z</time>
      </trkpt>
      <trkpt lat="48.64728" lon="6.20892">
        <ele>233</ele>
        <time>2013-07-20T11:26:33Z</time>
      </trkpt>
      <trkpt lat="48.6474" lon="6.20888">
        <ele>231</ele>
        <time>2013-07-20T11:26:35Z</time>
      </trkpt>
      <trkpt lat="48.64752" lon="6.20884">
        <ele>231</ele>
        <time>2013-07-20T11:26:36Z</time>
      </trkpt>
      <trkpt lat="48.64764" lon="6.2088">
        <ele>232</ele>
        <time>2013-07-20T11:26:39Z</time>
      </trkpt>
      <trkpt lat="48.64776" lon="6.20876">
        <ele>230</ele>
        <time>2013-07-20T11:26:41Z</time>
      </trkpt>
      <trkpt lat="48.64787" lon="6.20871">
        <ele>230</ele>
        <time>2013-07-20T11:26:43Z</time>
      </trkpt>
      <trkpt lat="48.64797" lon="6.20867">
        <ele>230</ele>
        <time>2013-07-20T11:26:45Z</time>
      </trkpt>
      <trkpt lat="48.64809" lon="6.20864">
        <ele>229</ele>
        <time>2013-07-20T11:26:46Z</time>
      </trkpt>
      <trkpt lat="48.64821" lon="6.20861">
        <ele>234</ele>
        <time>2013-07-20T11:26:49Z</time>
      </trkpt>
      <trkpt lat="48.64831" lon="6.20859">
        <ele>234</ele>
        <time>2013-07-20T11:26:51Z</time>
      </trkpt>
      <trkpt lat="48.64842" lon="6.20856">
        <ele>234</ele>
        <time>2013-07-20T11:26:53Z</time>
      </trkpt>
      <trkpt lat="48.64854" lon="6.20852">
        <ele>235</ele>
        <time>2013-07-20T11:26:55Z</time>
      </trkpt>
      <trkpt lat="48.64866" lon="6.20849">
        <ele>233</ele>
        <time>2013-07-20T11:26:57Z</time>
      </trkpt>
      <trkpt lat="48.64878" lon="6.20846">
        <ele>231</ele>
        <time>2013-07-20T11:26:59Z</time>
      </trkpt>
      <trkpt lat="48.6489" lon="6.20843">
        <ele>230</ele>
        <time>2013-07-20T11:27:01Z</time>
      </trkpt>
      <trkpt lat="48.64902" lon="6.2084">
        <ele>230</ele>
        <time>2013-07-20T11:27:03Z</time>
      </trkpt>
      <trkpt lat="48.64914" lon="6.20837">
        <ele>229</ele>
        <time>2013-07-20T11:27:05Z</time>
      </trkpt>
      <trkpt lat="48.64927" lon="6.20834">
        <ele>230</ele>
        <time>2013-07-20T11:27:06Z</time>
      </trkpt>
      <trkpt lat="48.64938" lon="6.2083">
        <ele>232</ele>
        <time>2013-07-20T11:27:08Z</time>
      </trkpt>
      <trkpt lat="48.64949" lon="6.20827">
        <ele>233</ele>
        <time>2013-07-20T11:27:11Z</time>
      </trkpt>
      <trkpt lat="48.6496" lon="6.20823">
        <ele>230</ele>
        <time>2013-07-20T11:27:13Z</time>
      </trkpt>
      <trkpt lat="48.6497" lon="6.2082">
        <ele>234</ele>
        <time>2013-07-20T11:27:15Z</time>
      </trkpt>
      <trkpt lat="48.6498" lon="6.20818">
        <ele>234</ele>
        <time>2013-07-20T11:27:17Z</time>
      </trkpt>
      <trkpt lat="48.6499" lon="6.20816">
        <ele>236</ele>
        <time>2013-07-20T11:27:19Z</time>
      </trkpt>
      <trkpt lat="48.64999" lon="6.20813">
        <ele>236</ele>
        <time>2013-07-20T11:27:21Z</time>
      </trkpt>
      <trkpt lat="48.65008" lon="6.20811">
        <ele>236</ele>
        <time>2013-07-20T11:27:23Z</time>
      </trkpt>
      <trkpt lat="48.65016" lon="6.20809">
        <ele>236</ele>
        <time>2013-07-20T11:27:24Z</time>
      </trkpt>
      <trkpt lat="48.65025" lon="6.20807">
        <ele>236</ele>
        <time>2013-07-20T11:27:26Z</time>
      </trkpt>
      <trkpt lat="48.65034" lon="6.20804">
        <ele>236</ele>
        <time>2013-07-20T11:27:29Z</time>
      </trkpt>
      <trkpt lat="48.65044" lon="6.20801">
        <ele>234</ele>
        <time>2013-07-20T11:27:31Z</time>
      </trkpt>
      <trkpt lat="48.65052" lon="6.20799">
        <ele>232</ele>
        <time>2013-07-20T11:27:33Z</time>
      </trkpt>
      <trkpt lat="48.65062" lon="6.20796">
        <ele>237</ele>
        <time>2013-07-20T11:27:35Z</time>
      </trkpt>
      <trkpt lat="48.65072" lon="6.20794">
        <ele>236</ele>
        <time>2013-07-20T11:27:37Z</time>
      </trkpt>
      <trkpt lat="48.65082" lon="6.20792">
        <ele>234</ele>
        <time>2013-07-20T11:27:39Z</time>
      </trkpt>
      <trkpt lat="48.65093" lon="6.20789">
        <ele>233</ele>
        <time>2013-07-20T11:27:41Z</time>
      </trkpt>
      <trkpt lat="48.65102" lon="6.20786">
        <ele>233</ele>
        <time>2013-07-20T11:27:42Z</time>
      </trkpt>
      <trkpt lat="48.65112" lon="6.20785">
        <ele>235</ele>
        <time>2013-07-20T11:27:45Z</time>
      </trkpt>
      <trkpt lat="48.65122" lon="6.20783">
        <ele>235</ele>
        <time>2013-07-20T11:27:47Z</time>
      </trkpt>
      <trkpt lat="48.65132" lon="6.2078">
        <ele>233</ele>
        <time>2013-07-20T11:27:49Z</time>
      </trkpt>
      <trkpt lat="48.65142" lon="6.20777">
        <ele>234</ele>
        <time>2013-07-20T11:27:51Z</time>
      </trkpt>
      <trkpt lat="48.65153" lon="6.20774">
        <ele>236</ele>
        <time>2013-07-20T11:27:53Z</time>
      </trkpt>
      <trkpt lat="48.65163" lon="6.20771">
        <ele>236</ele>
        <time>2013-07-20T11:27:55Z</time>
      </trkpt>
      <trkpt lat="48.65172" lon="6.20769">
        <ele>238</ele>
        <time>2013-07-20T11:27:57Z</time>
      </trkpt>
      <trkpt lat="48.65182" lon="6.20765">
        <ele>238</ele>
        <time>2013-07-20T11:27:59Z</time>
      </trkpt>
      <trkpt lat="48.65192" lon="6.20762">
        <ele>239</ele>
        <time>2013-07-20T11:28:01Z</time>
      </trkpt>
      <trkpt lat="48.652" lon="6.20757">
        <ele>242</ele>
        <time>2013-07-20T11:28:03Z</time>
      </trkpt>
      <trkpt lat="48.65209" lon="6.20756">
        <ele>245</ele>
        <time>2013-07-20T11:28:05Z</time>
      </trkpt>
      <trkpt lat="48.65217" lon="6.20752">
        <ele>249</ele>
        <time>2013-07-20T11:28:06Z</time>
      </trkpt>
      <trkpt lat="48.65226" lon="6.2075">
        <ele>249</ele>
        <time>2013-07-20T11:28:09Z</time>
      </trkpt>
      <trkpt lat="48.65237" lon="6.20749">
        <ele>242</ele>
        <time>2013-07-20T11:28:11Z</time>
      </trkpt>
      <trkpt lat="48.65249" lon="6.20748">
        <ele>237</ele>
        <time>2013-07-20T11:28:13Z</time>
      </trkpt>
      <trkpt lat="48.6526" lon="6.20746">
        <ele>235</ele>
        <time>2013-07-20T11:28:15Z</time>
      </trkpt>
      <trkpt lat="48.65271" lon="6.20743">
        <ele>236</ele>
        <time>2013-07-20T11:28:17Z</time>
      </trkpt>
      <trkpt lat="48.65282" lon="6.20738">
        <ele>234</ele>
        <time>2013-07-20T11:28:19Z</time>
      </trkpt>
      <trkpt lat="48.65294" lon="6.2073">
        <ele>231</ele>
        <time>2013-07-20T11:28:21Z</time>
      </trkpt>
      <trkpt lat="48.65303" lon="6.20722">
        <ele>230</ele>
        <time>2013-07-20T11:28:22Z</time>
      </trkpt>
      <trkpt lat="48.65305" lon="6.20708">
        <ele>225</ele>
        <time>2013-07-20T11:28:25Z</time>
      </trkpt>
      <trkpt lat="48.65304" lon="6.20689">
        <ele>224</ele>
        <time>2013-07-20T11:28:27Z</time>
      </trkpt>
      <trkpt lat="48.65302" lon="6.20667">
        <ele>223</ele>
        <time>2013-07-20T11:28:29Z</time>
      </trkpt>
      <trkpt lat="48.653" lon="6.20646">
        <ele>222</ele>
        <time>2013-07-20T11:28:31Z</time>
      </trkpt>
      <trkpt lat="48.65297" lon="6.20623">
        <ele>222</ele>
        <time>2013-07-20T11:28:33Z</time>
      </trkpt>
      <trkpt lat="48.65294" lon="6.206">
        <ele>222</ele>
        <time>2013-07-20T11:28:35Z</time>
      </trkpt>
      <trkpt lat="48.65291" lon="6.20575">
        <ele>222</ele>
        <time>2013-07-20T11:28:36Z</time>
      </trkpt>
      <trkpt lat="48.65288" lon="6.20551">
        <ele>223</ele>
        <time>2013-07-20T11:28:39Z</time>
      </trkpt>
      <trkpt lat="48.65285" lon="6.20524">
        <ele>224</ele>
        <time>2013-07-20T11:28:41Z</time>
      </trkpt>
      <trkpt lat="48.65281" lon="6.20499">
        <ele>223</ele>
        <time>2013-07-20T11:28:43Z</time>
      </trkpt>
      <trkpt lat="48.65278" lon="6.20473">
        <ele>227</ele>
        <time>2013-07-20T11:28:45Z</time>
      </trkpt>
      <trkpt lat="48.65277" lon="6.20448">
        <ele>228</ele>
        <time>2013-07-20T11:28:46Z</time>
      </trkpt>
      <trkpt lat="48.65276" lon="6.20421">
        <ele>229</ele>
        <time>2013-07-20T11:28:49Z</time>
      </trkpt>
      <trkpt lat="48.65278" lon="6.204">
        <ele>228</ele>
        <time>2013-07-20T11:28:51Z</time>
      </trkpt>
      <trkpt lat="48.65283" lon="6.20378">
        <ele>225</ele>
        <time>2013-07-20T11:28:53Z</time>
      </trkpt>
      <trkpt lat="48.65291" lon="6.20359">
        <ele>222</ele>
        <time>2013-07-20T11:28:55Z</time>
      </trkpt>
      <trkpt lat="48.65299" lon="6.20342">
        <ele>226</ele>
        <time>2013-07-20T11:28:57Z</time>
      </trkpt>
      <trkpt lat="48.65307" lon="6.20328">
        <ele>225</ele>
        <time>2013-07-20T11:28:59Z</time>
      </trkpt>
      <trkpt lat="48.65315" lon="6.20319">
        <ele>223</ele>
        <time>2013-07-20T11:29:01Z</time>
      </trkpt>
      <trkpt lat="48.65324" lon="6.20309">
        <ele>225</ele>
        <time>2013-07-20T11:29:03Z</time>
      </trkpt>
      <trkpt lat="48.65334" lon="6.203">
        <ele>223</ele>
        <time>2013-07-20T11:29:05Z</time>
      </trkpt>
      <trkpt lat="48.65343" lon="6.20292">
        <ele>228</ele>
        <time>2013-07-20T11:29:07Z</time>
      </trkpt>
      <trkpt lat="48.65352" lon="6.20284">
        <ele>229</ele>
        <time>2013-07-20T11:29:09Z</time>
      </trkpt>
      <trkpt lat="48.65361" lon="6.20276">
        <ele>230</ele>
        <time>2013-07-20T11:29:11Z</time>
      </trkpt>
      <trkpt lat="48.65371" lon="6.20268">
        <ele>232</ele>
        <time>2013-07-20T11:29:13Z</time>
      </trkpt>
      <trkpt lat="48.6538" lon="6.20259">
        <ele>229</ele>
        <time>2013-07-20T11:29:15Z</time>
      </trkpt>
      <trkpt lat="48.65389" lon="6.20251">
        <ele>232</ele>
        <time>2013-07-20T11:29:17Z</time>
      </trkpt>
      <trkpt lat="48.65397" lon="6.20244">
        <ele>228</ele>
        <time>2013-07-20T11:29:19Z</time>
      </trkpt>
      <trkpt lat="48.65406" lon="6.20237">
        <ele>231</ele>
        <time>2013-07-20T11:29:21Z</time>
      </trkpt>
      <trkpt lat="48.65414" lon="6.20229">
        <ele>234</ele>
        <time>2013-07-20T11:29:23Z</time>
      </trkpt>
      <trkpt lat="48.65422" lon="6.20221">
        <ele>234</ele>
        <time>2013-07-20T11:29:25Z</time>
      </trkpt>
      <trkpt lat="48.6543" lon="6.20215">
        <ele>234</ele>
        <time>2013-07-20T11:29:27Z</time>
      </trkpt>
      <trkpt lat="48.65439" lon="6.20207">
        <ele>233</ele>
        <time>2013-07-20T11:29:29Z</time>
      </trkpt>
      <trkpt lat="48.65447" lon="6.202">
        <ele>235</ele>
        <time>2013-07-20T11:29:31Z</time>
      </trkpt>
      <trkpt lat="48.65453" lon="6.20193">
        <ele>235</ele>
        <time>2013-07-20T11:29:33Z</time>
      </trkpt>
      <trkpt lat="48.65462" lon="6.20184">
        <ele>229</ele>
        <time>2013-07-20T11:29:35Z</time>
      </trkpt>
      <trkpt lat="48.65471" lon="6.20175">
        <ele>235</ele>
        <time>2013-07-20T11:29:36Z</time>
      </trkpt>
      <trkpt lat="48.6548" lon="6.20166">
        <ele>237</ele>
        <time>2013-07-20T11:29:39Z</time>
      </trkpt>
      <trkpt lat="48.65489" lon="6.20156">
        <ele>230</ele>
        <time>2013-07-20T11:29:41Z</time>
      </trkpt>
      <trkpt lat="48.65497" lon="6.20148">
        <ele>230</ele>
        <time>2013-07-20T11:29:42Z</time>
      </trkpt>
      <trkpt lat="48.65504" lon="6.20139">
        <ele>228</ele>
        <time>2013-07-20T11:29:45Z</time>
      </trkpt>
      <trkpt lat="48.65511" lon="6.20129">
        <ele>226</ele>
        <time>2013-07-20T11:29:47Z</time>
      </trkpt>
      <trkpt lat="48.65519" lon="6.20118">
        <ele>227</ele>
        <time>2013-07-20T11:29:49Z</time>
      </trkpt>
      <trkpt lat="48.65524" lon="6.2011">
        <ele>228</ele>
        <time>2013-07-20T11:29:51Z</time>
      </trkpt>
      <trkpt lat="48.65531" lon="6.20098">
        <ele>230</ele>
        <time>2013-07-20T11:29:53Z</time>
      </trkpt>
      <trkpt lat="48.65538" lon="6.20086">
        <ele>229</ele>
        <time>2013-07-20T11:29:55Z</time>
      </trkpt>
      <trkpt lat="48.65545" lon="6.20072">
        <ele>230</ele>
        <time>2013-07-20T11:29:57Z</time>
      </trkpt>
      <trkpt lat="48.65551" lon="6.2006">
        <ele>229</ele>
        <time>2013-07-20T11:29:59Z</time>
      </trkpt>
      <trkpt lat="48.65557" lon="6.20048">
        <ele>229</ele>
        <time>2013-07-20T11:30:01Z</time>
      </trkpt>
      <trkpt lat="48.65563" lon="6.20036">
        <ele>228</ele>
        <time>2013-07-20T11:30:03Z</time>
      </trkpt>
      <trkpt lat="48.6557" lon="6.20023">
        <ele>227</ele>
        <time>2013-07-20T11:30:05Z</time>
      </trkpt>
      <trkpt lat="48.65575" lon="6.20012">
        <ele>228</ele>
        <time>2013-07-20T11:30:07Z</time>
      </trkpt>
      <trkpt lat="48.65582" lon="6.2">
        <ele>231</ele>
        <time>2013-07-20T11:30:09Z</time>
      </trkpt>
      <trkpt lat="48.6559" lon="6.19988">
        <ele>229</ele>
        <time>2013-07-20T11:30:11Z</time>
      </trkpt>
      <trkpt lat="48.65598" lon="6.19975">
        <ele>229</ele>
        <time>2013-07-20T11:30:13Z</time>
      </trkpt>
      <trkpt lat="48.65606" lon="6.19962">
        <ele>227</ele>
        <time>2013-07-20T11:30:15Z</time>
      </trkpt>
      <trkpt lat="48.65614" lon="6.19952">
        <ele>224</ele>
        <time>2013-07-20T11:30:17Z</time>
      </trkpt>
      <trkpt lat="48.65623" lon="6.19941">
        <ele>227</ele>
        <time>2013-07-20T11:30:19Z</time>
      </trkpt>
      <trkpt lat="48.65633" lon="6.19931">
        <ele>223</ele>
        <time>2013-07-20T11:30:21Z</time>
      </trkpt>
      <trkpt lat="48.65643" lon="6.19921">
        <ele>223</ele>
        <time>2013-07-20T11:30:23Z</time>
      </trkpt>
      <trkpt lat="48.65654" lon="6.1991">
        <ele>227</ele>
        <time>2013-07-20T11:30:24Z</time>
      </trkpt>
      <trkpt lat="48.65665" lon="6.199">
        <ele>231</ele>
        <time>2013-07-20T11:30:27Z</time>
      </trkpt>
      <trkpt lat="48.65677" lon="6.19892">
        <ele>233</ele>
        <time>2013-07-20T11:30:29Z</time>
      </trkpt>
      <trkpt lat="48.65689" lon="6.19884">
        <ele>236</ele>
        <time>2013-07-20T11:30:31Z</time>
      </trkpt>
      <trkpt lat="48.65701" lon="6.19879">
        <ele>236</ele>
        <time>2013-07-20T11:30:33Z</time>
      </trkpt>
      <trkpt lat="48.65713" lon="6.19875">
        <ele>236</ele>
        <time>2013-07-20T11:30:35Z</time>
      </trkpt>
      <trkpt lat="48.65723" lon="6.19873">
        <ele>237</ele>
        <time>2013-07-20T11:30:37Z</time>
      </trkpt>
      <trkpt lat="48.65733" lon="6.1987">
        <ele>239</ele>
        <time>2013-07-20T11:30:39Z</time>
      </trkpt>
      <trkpt lat="48.65743" lon="6.19867">
        <ele>239</ele>
        <time>2013-07-20T11:30:41Z</time>
      </trkpt>
      <trkpt lat="48.6576" lon="6.19865">
        <ele>242</ele>
        <time>2013-07-20T11:30:45Z</time>
      </trkpt>
      <trkpt lat="48.6577" lon="6.19865">
        <ele>243</ele>
        <time>2013-07-20T11:30:47Z</time>
      </trkpt>
      <trkpt lat="48.65779" lon="6.19866">
        <ele>241</ele>
        <time>2013-07-20T11:30:49Z</time>
      </trkpt>
      <trkpt lat="48.65789" lon="6.19868">
        <ele>236</ele>
        <time>2013-07-20T11:30:50Z</time>
      </trkpt>
      <trkpt lat="48.65798" lon="6.19869">
        <ele>229</ele>
        <time>2013-07-20T11:30:53Z</time>
      </trkpt>
      <trkpt lat="48.65808" lon="6.1987">
        <ele>223</ele>
        <time>2013-07-20T11:30:55Z</time>
      </trkpt>
      <trkpt lat="48.65816" lon="6.19872">
        <ele>224</ele>
        <time>2013-07-20T11:30:56Z</time>
      </trkpt>
      <trkpt lat="48.65825" lon="6.19874">
        <ele>224</ele>
        <time>2013-07-20T11:30:59Z</time>
      </trkpt>
      <trkpt lat="48.65832" lon="6.19876">
        <ele>225</ele>
        <time>2013-07-20T11:31:01Z</time>
      </trkpt>
      <trkpt lat="48.65841" lon="6.19878">
        <ele>222</ele>
        <time>2013-07-20T11:31:03Z</time>
      </trkpt>
      <trkpt lat="48.6585" lon="6.1988">
        <ele>222</ele>
        <time>2013-07-20T11:31:04Z</time>
      </trkpt>
      <trkpt lat="48.65859" lon="6.19883">
        <ele>223</ele>
        <time>2013-07-20T11:31:07Z</time>
      </trkpt>
      <trkpt lat="48.65868" lon="6.19887">
        <ele>225</ele>
        <time>2013-07-20T11:31:09Z</time>
      </trkpt>
      <trkpt lat="48.65875" lon="6.1989">
        <ele>227</ele>
        <time>2013-07-20T11:31:11Z</time>
      </trkpt>
      <trkpt lat="48.65882" lon="6.19895">
        <ele>229</ele>
        <time>2013-07-20T11:31:13Z</time>
      </trkpt>
      <trkpt lat="48.65889" lon="6.19899">
        <ele>230</ele>
        <time>2013-07-20T11:31:14Z</time>
      </trkpt>
      <trkpt lat="48.65897" lon="6.19905">
        <ele>230</ele>
        <time>2013-07-20T11:31:17Z</time>
      </trkpt>
      <trkpt lat="48.65905" lon="6.19912">
        <ele>229</ele>
        <time>2013-07-20T11:31:19Z</time>
      </trkpt>
      <trkpt lat="48.65912" lon="6.19918">
        <ele>230</ele>
        <time>2013-07-20T11:31:21Z</time>
      </trkpt>
      <trkpt lat="48.6592" lon="6.19924">
        <ele>231</ele>
        <time>2013-07-20T11:31:23Z</time>
      </trkpt>
      <trkpt lat="48.65927" lon="6.1993">
        <ele>233</ele>
        <time>2013-07-20T11:31:25Z</time>
      </trkpt>
      <trkpt lat="48.65934" lon="6.19936">
        <ele>234</ele>
        <time>2013-07-20T11:31:27Z</time>
      </trkpt>
      <trkpt lat="48.65941" lon="6.19942">
        <ele>234</ele>
        <time>2013-07-20T11:31:29Z</time>
      </trkpt>
      <trkpt lat="48.65948" lon="6.19949">
        <ele>234</ele>
        <time>2013-07-20T11:31:31Z</time>
      </trkpt>
      <trkpt lat="48.65955" lon="6.19955">
        <ele>233</ele>
        <time>2013-07-20T11:31:33Z</time>
      </trkpt>
      <trkpt lat="48.65963" lon="6.19961">
        <ele>231</ele>
        <time>2013-07-20T11:31:35Z</time>
      </trkpt>
      <trkpt lat="48.6597" lon="6.19967">
        <ele>234</ele>
        <time>2013-07-20T11:31:37Z</time>
      </trkpt>
      <trkpt lat="48.65978" lon="6.19973">
        <ele>236</ele>
        <time>2013-07-20T11:31:39Z</time>
      </trkpt>
      <trkpt lat="48.65984" lon="6.19979">
        <ele>235</ele>
        <time>2013-07-20T11:31:41Z</time>
      </trkpt>
      <trkpt lat="48.65992" lon="6.19984">
        <ele>233</ele>
        <time>2013-07-20T11:31:43Z</time>
      </trkpt>
      <trkpt lat="48.66" lon="6.19989">
        <ele>231</ele>
        <time>2013-07-20T11:31:45Z</time>
      </trkpt>
      <trkpt lat="48.66008" lon="6.19993">
        <ele>230</ele>
        <time>2013-07-20T11:31:47Z</time>
      </trkpt>
      <trkpt lat="48.66016" lon="6.19998">
        <ele>230</ele>
        <time>2013-07-20T11:31:49Z</time>
      </trkpt>
      <trkpt lat="48.66023" lon="6.20002">
        <ele>230</ele>
        <time>2013-07-20T11:31:51Z</time>
      </trkpt>
      <trkpt lat="48.66031" lon="6.20006">
        <ele>230</ele>
        <time>2013-07-20T11:31:53Z</time>
      </trkpt>
      <trkpt lat="48.66039" lon="6.2001">
        <ele>230</ele>
        <time>2013-07-20T11:31:55Z</time>
      </trkpt>
      <trkpt lat="48.66047" lon="6.20013">
        <ele>230</ele>
        <time>2013-07-20T11:31:57Z</time>
      </trkpt>
      <trkpt lat="48.66055" lon="6.20015">
        <ele>231</ele>
        <time>2013-07-20T11:31:59Z</time>
      </trkpt>
      <trkpt lat="48.66062" lon="6.20017">
        <ele>231</ele>
        <time>2013-07-20T11:32:01Z</time>
      </trkpt>
      <trkpt lat="48.6607" lon="6.20019">
        <ele>232</ele>
        <time>2013-07-20T11:32:03Z</time>
      </trkpt>
      <trkpt lat="48.66079" lon="6.20022">
        <ele>232</ele>
        <time>2013-07-20T11:32:05Z</time>
      </trkpt>
      <trkpt lat="48.66086" lon="6.20024">
        <ele>233</ele>
        <time>2013-07-20T11:32:07Z</time>
      </trkpt>
      <trkpt lat="48.66093" lon="6.20025">
        <ele>235</ele>
        <time>2013-07-20T11:32:09Z</time>
      </trkpt>
      <trkpt lat="48.66102" lon="6.20026">
        <ele>236</ele>
        <time>2013-07-20T11:32:11Z</time>
      </trkpt>
      <trkpt lat="48.66111" lon="6.20026">
        <ele>234</ele>
        <time>2013-07-20T11:32:12Z</time>
      </trkpt>
      <trkpt lat="48.66121" lon="6.20026">
        <ele>232</ele>
        <time>2013-07-20T11:32:15Z</time>
      </trkpt>
      <trkpt lat="48.66131" lon="6.20025">
        <ele>233</ele>
        <time>2013-07-20T11:32:17Z</time>
      </trkpt>
      <trkpt lat="48.66142" lon="6.20023">
        <ele>231</ele>
        <time>2013-07-20T11:32:19Z</time>
      </trkpt>
      <trkpt lat="48.66152" lon="6.2002">
        <ele>231</ele>
        <time>2013-07-20T11:32:21Z</time>
      </trkpt>
      <trkpt lat="48.66162" lon="6.20017">
        <ele>232</ele>
        <time>2013-07-20T11:32:23Z</time>
      </trkpt>
      <trkpt lat="48.66174" lon="6.20013">
        <ele>232</ele>
        <time>2013-07-20T11:32:25Z</time>
      </trkpt>
      <trkpt lat="48.66185" lon="6.20009">
        <ele>235</ele>
        <time>2013-07-20T11:32:27Z</time>
      </trkpt>
      <trkpt lat="48.66197" lon="6.20004">
        <ele>235</ele>
        <time>2013-07-20T11:32:29Z</time>
      </trkpt>
      <trkpt lat="48.66209" lon="6.2">
        <ele>233</ele>
        <time>2013-07-20T11:32:31Z</time>
      </trkpt>
      <trkpt lat="48.66221" lon="6.19995">
        <ele>234</ele>
        <time>2013-07-20T11:32:33Z</time>
      </trkpt>
      <trkpt lat="48.66232" lon="6.19989">
        <ele>233</ele>
        <time>2013-07-20T11:32:35Z</time>
      </trkpt>
      <trkpt lat="48.66243" lon="6.19984">
        <ele>233</ele>
        <time>2013-07-20T11:32:37Z</time>
      </trkpt>
      <trkpt lat="48.66254" lon="6.19979">
        <ele>232</ele>
        <time>2013-07-20T11:32:39Z</time>
      </trkpt>
      <trkpt lat="48.66265" lon="6.19973">
        <ele>230</ele>
        <time>2013-07-20T11:32:41Z</time>
      </trkpt>
      <trkpt lat="48.66278" lon="6.19967">
        <ele>229</ele>
        <time>2013-07-20T11:32:43Z</time>
      </trkpt>
      <trkpt lat="48.66292" lon="6.19961">
        <ele>232</ele>
        <time>2013-07-20T11:32:45Z</time>
      </trkpt>
      <trkpt lat="48.66305" lon="6.19956">
        <ele>232</ele>
        <time>2013-07-20T11:32:47Z</time>
      </trkpt>
      <trkpt lat="48.66317" lon="6.1995">
        <ele>233</ele>
        <time>2013-07-20T11:32:49Z</time>
      </trkpt>
      <trkpt lat="48.66332" lon="6.19944">
        <ele>230</ele>
        <time>2013-07-20T11:32:50Z</time>
      </trkpt>
      <trkpt lat="48.66346" lon="6.19938">
        <ele>231</ele>
        <time>2013-07-20T11:32:53Z</time>
      </trkpt>
      <trkpt lat="48.66359" lon="6.1993">
        <ele>229</ele>
        <time>2013-07-20T11:32:55Z</time>
      </trkpt>
      <trkpt lat="48.66373" lon="6.19921">
        <ele>226</ele>
        <time>2013-07-20T11:32:57Z</time>
      </trkpt>
      <trkpt lat="48.66386" lon="6.19912">
        <ele>225</ele>
        <time>2013-07-20T11:32:59Z</time>
      </trkpt>
      <trkpt lat="48.66399" lon="6.19902">
        <ele>226</ele>
        <time>2013-07-20T11:33:01Z</time>
      </trkpt>
      <trkpt lat="48.66411" lon="6.19893">
        <ele>227</ele>
        <time>2013-07-20T11:33:03Z</time>
      </trkpt>
      <trkpt lat="48.66424" lon="6.19883">
        <ele>227</ele>
        <time>2013-07-20T11:33:05Z</time>
      </trkpt>
      <trkpt lat="48.66435" lon="6.19872">
        <ele>228</ele>
        <time>2013-07-20T11:33:07Z</time>
      </trkpt>
      <trkpt lat="48.66446" lon="6.19861">
        <ele>227</ele>
        <time>2013-07-20T11:33:09Z</time>
      </trkpt>
      <trkpt lat="48.66457" lon="6.19849">
        <ele>225</ele>
        <time>2013-07-20T11:33:11Z</time>
      </trkpt>
      <trkpt lat="48.66467" lon="6.19838">
        <ele>226</ele>
        <time>2013-07-20T11:33:13Z</time>
      </trkpt>
      <trkpt lat="48.66476" lon="6.19828">
        <ele>225</ele>
        <time>2013-07-20T11:33:15Z</time>
      </trkpt>
      <trkpt lat="48.66484" lon="6.19818">
        <ele>227</ele>
        <time>2013-07-20T11:33:16Z</time>
      </trkpt>
      <trkpt lat="48.66492" lon="6.19808">
        <ele>228</ele>
        <time>2013-07-20T11:33:19Z</time>
      </trkpt>
      <trkpt lat="48.66499" lon="6.19798">
        <ele>227</ele>
        <time>2013-07-20T11:33:20Z</time>
      </trkpt>
      <trkpt lat="48.66506" lon="6.19788">
        <ele>229</ele>
        <time>2013-07-20T11:33:23Z</time>
      </trkpt>
      <trkpt lat="48.66513" lon="6.1978">
        <ele>226</ele>
        <time>2013-07-20T11:33:25Z</time>
      </trkpt>
      <trkpt lat="48.6652" lon="6.19773">
        <ele>227</ele>
        <time>2013-07-20T11:33:27Z</time>
      </trkpt>
      <trkpt lat="48.66526" lon="6.19766">
        <ele>230</ele>
        <time>2013-07-20T11:33:29Z</time>
      </trkpt>
      <trkpt lat="48.66533" lon="6.19759">
        <ele>234</ele>
        <time>2013-07-20T11:33:31Z</time>
      </trkpt>
      <trkpt lat="48.66539" lon="6.19752">
        <ele>233</ele>
        <time>2013-07-20T11:33:33Z</time>
      </trkpt>
      <trkpt lat="48.66545" lon="6.19744">
        <ele>234</ele>
        <time>2013-07-20T11:33:35Z</time>
      </trkpt>
      <trkpt lat="48.66551" lon="6.19735">
        <ele>234</ele>
        <time>2013-07-20T11:33:36Z</time>
      </trkpt>
      <trkpt lat="48.66557" lon="6.19726">
        <ele>234</ele>
        <time>2013-07-20T11:33:39Z</time>
      </trkpt>
      <trkpt lat="48.66563" lon="6.19717">
        <ele>234</ele>
        <time>2013-07-20T11:33:41Z</time>
      </trkpt>
      <trkpt lat="48.6657" lon="6.19708">
        <ele>235</ele>
        <time>2013-07-20T11:33:43Z</time>
      </trkpt>
      <trkpt lat="48.66578" lon="6.19699">
        <ele>235</ele>
        <time>2013-07-20T11:33:45Z</time>
      </trkpt>
      <trkpt lat="48.66585" lon="6.19688">
        <ele>234</ele>
        <time>2013-07-20T11:33:46Z</time>
      </trkpt>
      <trkpt lat="48.66592" lon="6.19678">
        <ele>232</ele>
        <time>2013-07-20T11:33:49Z</time>
      </trkpt>
      <trkpt lat="48.66599" lon="6.19666">
        <ele>231</ele>
        <time>2013-07-20T11:33:50Z</time>
      </trkpt>
      <trkpt lat="48.66605" lon="6.19654">
        <ele>233</ele>
        <time>2013-07-20T11:33:53Z</time>
      </trkpt>
      <trkpt lat="48.66611" lon="6.19641">
        <ele>234</ele>
        <time>2013-07-20T11:33:54Z</time>
      </trkpt>
      <trkpt lat="48.66617" lon="6.19629">
        <ele>235</ele>
        <time>2013-07-20T11:33:57Z</time>
      </trkpt>
      <trkpt lat="48.66624" lon="6.19617">
        <ele>233</ele>
        <time>2013-07-20T11:33:59Z</time>
      </trkpt>
      <trkpt lat="48.66632" lon="6.19603">
        <ele>232</ele>
        <time>2013-07-20T11:34:01Z</time>
      </trkpt>
      <trkpt lat="48.66639" lon="6.19589">
        <ele>229</ele>
        <time>2013-07-20T11:34:03Z</time>
      </trkpt>
      <trkpt lat="48.66645" lon="6.19573">
        <ele>228</ele>
        <time>2013-07-20T11:34:05Z</time>
      </trkpt>
      <trkpt lat="48.6665" lon="6.19557">
        <ele>231</ele>
        <time>2013-07-20T11:34:07Z</time>
      </trkpt>
      <trkpt lat="48.66655" lon="6.19539">
        <ele>232</ele>
        <time>2013-07-20T11:34:09Z</time>
      </trkpt>
      <trkpt lat="48.66659" lon="6.19523">
        <ele>235</ele>
        <time>2013-07-20T11:34:11Z</time>
      </trkpt>
      <trkpt lat="48.66663" lon="6.19506">
        <ele>237</ele>
        <time>2013-07-20T11:34:13Z</time>
      </trkpt>
      <trkpt lat="48.66667" lon="6.19487">
        <ele>235</ele>
        <time>2013-07-20T11:34:15Z</time>
      </trkpt>
      <trkpt lat="48.66671" lon="6.19468">
        <ele>235</ele>
        <time>2013-07-20T11:34:17Z</time>
      </trkpt>
      <trkpt lat="48.66675" lon="6.19452">
        <ele>237</ele>
        <time>2013-07-20T11:34:19Z</time>
      </trkpt>
      <trkpt lat="48.66679" lon="6.19435">
        <ele>237</ele>
        <time>2013-07-20T11:34:21Z</time>
      </trkpt>
      <trkpt lat="48.66684" lon="6.19417">
        <ele>237</ele>
        <time>2013-07-20T11:34:23Z</time>
      </trkpt>
      <trkpt lat="48.66688" lon="6.194">
        <ele>237</ele>
        <time>2013-07-20T11:34:25Z</time>
      </trkpt>
      <trkpt lat="48.66692" lon="6.19384">
        <ele>239</ele>
        <time>2013-07-20T11:34:27Z</time>
      </trkpt>
      <trkpt lat="48.66696" lon="6.19366">
        <ele>237</ele>
        <time>2013-07-20T11:34:29Z</time>
      </trkpt>
      <trkpt lat="48.667" lon="6.19348">
        <ele>236</ele>
        <time>2013-07-20T11:34:31Z</time>
      </trkpt>
      <trkpt lat="48.66709" lon="6.19313">
        <ele>235</ele>
        <time>2013-07-20T11:34:35Z</time>
      </trkpt>
      <trkpt lat="48.66713" lon="6.19295">
        <ele>234</ele>
        <time>2013-07-20T11:34:36Z</time>
      </trkpt>
      <trkpt lat="48.66716" lon="6.19278">
        <ele>234</ele>
        <time>2013-07-20T11:34:39Z</time>
      </trkpt>
      <trkpt lat="48.66716" lon="6.1926">
        <ele>237</ele>
        <time>2013-07-20T11:34:41Z</time>
      </trkpt>
      <trkpt lat="48.66716" lon="6.1924">
        <ele>235</ele>
        <time>2013-07-20T11:34:43Z</time>
      </trkpt>
      <trkpt lat="48.66717" lon="6.19222">
        <ele>235</ele>
        <time>2013-07-20T11:34:45Z</time>
      </trkpt>
      <trkpt lat="48.66718" lon="6.19203">
        <ele>233</ele>
        <time>2013-07-20T11:34:47Z</time>
      </trkpt>
      <trkpt lat="48.66714" lon="6.19185">
        <ele>233</ele>
        <time>2013-07-20T11:34:49Z</time>
      </trkpt>
      <trkpt lat="48.66709" lon="6.19168">
        <ele>232</ele>
        <time>2013-07-20T11:34:51Z</time>
      </trkpt>
      <trkpt lat="48.66704" lon="6.19151">
        <ele>232</ele>
        <time>2013-07-20T11:34:53Z</time>
      </trkpt>
      <trkpt lat="48.66697" lon="6.19138">
        <ele>231</ele>
        <time>2013-07-20T11:34:55Z</time>
      </trkpt>
      <trkpt lat="48.6669" lon="6.19128">
        <ele>232</ele>
        <time>2013-07-20T11:34:57Z</time>
      </trkpt>
      <trkpt lat="48.66691" lon="6.19113">
        <ele>230</ele>
        <time>2013-07-20T11:34:59Z</time>
      </trkpt>
      <trkpt lat="48.66693" lon="6.191">
        <ele>229</ele>
        <time>2013-07-20T11:35:01Z</time>
      </trkpt>
      <trkpt lat="48.66694" lon="6.19085">
        <ele>227</ele>
        <time>2013-07-20T11:35:03Z</time>
      </trkpt>
      <trkpt lat="48.66696" lon="6.19068">
        <ele>227</ele>
        <time>2013-07-20T11:35:05Z</time>
      </trkpt>
      <trkpt lat="48.667" lon="6.19053">
        <ele>228</ele>
        <time>2013-07-20T11:35:07Z</time>
      </trkpt>
      <trkpt lat="48.66703" lon="6.19039">
        <ele>229</ele>
        <time>2013-07-20T11:35:09Z</time>
      </trkpt>
      <trkpt lat="48.66705" lon="6.19026">
        <ele>228</ele>
        <time>2013-07-20T11:35:11Z</time>
      </trkpt>
      <trkpt lat="48.66713" lon="6.19021">
        <ele>230</ele>
        <time>2013-07-20T11:35:13Z</time>
      </trkpt>
      <trkpt lat="48.66722" lon="6.19016">
        <ele>229</ele>
        <time>2013-07-20T11:35:15Z</time>
      </trkpt>
      <trkpt lat="48.6673" lon="6.19009">
        <ele>228</ele>
        <time>2013-07-20T11:35:16Z</time>
      </trkpt>
      <trkpt lat="48.66737" lon="6.19007">
        <ele>228</ele>
        <time>2013-07-20T11:35:19Z</time>
      </trkpt>
      <trkpt lat="48.6674" lon="6.19007">
        <ele>230</ele>
        <time>2013-07-20T11:35:21Z</time>
      </trkpt>
      <trkpt lat="48.66744" lon="6.19006">
        <ele>226</ele>
        <time>2013-07-20T11:35:23Z</time>
      </trkpt>
      <trkpt lat="48.66747" lon="6.19004">
        <ele>227</ele>
        <time>2013-07-20T11:35:25Z</time>
      </trkpt>
      <trkpt lat="48.66748" lon="6.19003">
        <ele>229</ele>
        <time>2013-07-20T11:35:27Z</time>
      </trkpt>
      <trkpt lat="48.6675" lon="6.19003">
        <ele>240</ele>
        <time>2013-07-20T11:35:43Z</time>
      </trkpt>
      <trkpt lat="48.66753" lon="6.18996">
        <ele>237</ele>
        <time>2013-07-20T11:35:45Z</time>
      </trkpt>
      <trkpt lat="48.66758" lon="6.18988">
        <ele>234</ele>
        <time>2013-07-20T11:35:47Z</time>
      </trkpt>
      <trkpt lat="48.66761" lon="6.18985">
        <ele>233</ele>
        <time>2013-07-20T11:35:47Z</time>
      </trkpt>
      <trkpt lat="48.66764" lon="6.18985">
        <ele>234</ele>
        <time>2013-07-20T11:35:48Z</time>
      </trkpt>
      <trkpt lat="48.66769" lon="6.18986">
        <ele>232</ele>
        <time>2013-07-20T11:35:50Z</time>
      </trkpt>
      <trkpt lat="48.66775" lon="6.18984">
        <ele>230</ele>
        <time>2013-07-20T11:35:52Z</time>
      </trkpt>
      <trkpt lat="48.66783" lon="6.18978">
        <ele>228</ele>
        <time>2013-07-20T11:35:55Z</time>
      </trkpt>
      <trkpt lat="48.66787" lon="6.18975">
        <ele>228</ele>
        <time>2013-07-20T11:35:55Z</time>
      </trkpt>
      <trkpt lat="48.66792" lon="6.18971">
        <ele>230</ele>
        <time>2013-07-20T11:35:56Z</time>
      </trkpt>
      <trkpt lat="48.66796" lon="6.18968">
        <ele>228</ele>
        <time>2013-07-20T11:35:58Z</time>
      </trkpt>
      <trkpt lat="48.66801" lon="6.18965">
        <ele>229</ele>
        <time>2013-07-20T11:35:59Z</time>
      </trkpt>
      <trkpt lat="48.6681" lon="6.18958">
        <ele>232</ele>
        <time>2013-07-20T11:36:01Z</time>
      </trkpt>
      <trkpt lat="48.66819" lon="6.1895">
        <ele>232</ele>
        <time>2013-07-20T11:36:03Z</time>
      </trkpt>
      <trkpt lat="48.66828" lon="6.18943">
        <ele>233</ele>
        <time>2013-07-20T11:36:05Z</time>
      </trkpt>
      <trkpt lat="48.66839" lon="6.18934">
        <ele>236</ele>
        <time>2013-07-20T11:36:07Z</time>
      </trkpt>
      <trkpt lat="48.66849" lon="6.18924">
        <ele>235</ele>
        <time>2013-07-20T11:36:09Z</time>
      </trkpt>
      <trkpt lat="48.6686" lon="6.18914">
        <ele>232</ele>
        <time>2013-07-20T11:36:11Z</time>
      </trkpt>
      <trkpt lat="48.66871" lon="6.18904">
        <ele>234</ele>
        <time>2013-07-20T11:36:13Z</time>
      </trkpt>
      <trkpt lat="48.66881" lon="6.18893">
        <ele>234</ele>
        <time>2013-07-20T11:36:15Z</time>
      </trkpt>
      <trkpt lat="48.66892" lon="6.18882">
        <ele>237</ele>
        <time>2013-07-20T11:36:17Z</time>
      </trkpt>
      <trkpt lat="48.66903" lon="6.1887">
        <ele>235</ele>
        <time>2013-07-20T11:36:19Z</time>
      </trkpt>
      <trkpt lat="48.66913" lon="6.18858">
        <ele>236</ele>
        <time>2013-07-20T11:36:21Z</time>
      </trkpt>
      <trkpt lat="48.66922" lon="6.18849">
        <ele>237</ele>
        <time>2013-07-20T11:36:23Z</time>
      </trkpt>
      <trkpt lat="48.66932" lon="6.18839">
        <ele>239</ele>
        <time>2013-07-20T11:36:25Z</time>
      </trkpt>
      <trkpt lat="48.66941" lon="6.18827">
        <ele>235</ele>
        <time>2013-07-20T11:36:26Z</time>
      </trkpt>
      <trkpt lat="48.6695" lon="6.18816">
        <ele>237</ele>
        <time>2013-07-20T11:36:29Z</time>
      </trkpt>
      <trkpt lat="48.6696" lon="6.18805">
        <ele>235</ele>
        <time>2013-07-20T11:36:31Z</time>
      </trkpt>
      <trkpt lat="48.6697" lon="6.18793">
        <ele>230</ele>
        <time>2013-07-20T11:36:33Z</time>
      </trkpt>
      <trkpt lat="48.6698" lon="6.18782">
        <ele>231</ele>
        <time>2013-07-20T11:36:35Z</time>
      </trkpt>
      <trkpt lat="48.66989" lon="6.18773">
        <ele>232</ele>
        <time>2013-07-20T11:36:37Z</time>
      </trkpt>
      <trkpt lat="48.66999" lon="6.18763">
        <ele>232</ele>
        <time>2013-07-20T11:36:39Z</time>
      </trkpt>
      <trkpt lat="48.67009" lon="6.18753">
        <ele>234</ele>
        <time>2013-07-20T11:36:41Z</time>
      </trkpt>
      <trkpt lat="48.67018" lon="6.18743">
        <ele>235</ele>
        <time>2013-07-20T11:36:43Z</time>
      </trkpt>
      <trkpt lat="48.67027" lon="6.18733">
        <ele>236</ele>
        <time>2013-07-20T11:36:45Z</time>
      </trkpt>
      <trkpt lat="48.67034" lon="6.18724">
        <ele>238</ele>
        <time>2013-07-20T11:36:47Z</time>
      </trkpt>
      <trkpt lat="48.67041" lon="6.18715">
        <ele>237</ele>
        <time>2013-07-20T11:36:49Z</time>
      </trkpt>
      <trkpt lat="48.67049" lon="6.18704">
        <ele>242</ele>
        <time>2013-07-20T11:36:51Z</time>
      </trkpt>
      <trkpt lat="48.67057" lon="6.18694">
        <ele>243</ele>
        <time>2013-07-20T11:36:53Z</time>
      </trkpt>
      <trkpt lat="48.67066" lon="6.18686">
        <ele>245</ele>
        <time>2013-07-20T11:36:55Z</time>
      </trkpt>
      <trkpt lat="48.67074" lon="6.18675">
        <ele>243</ele>
        <time>2013-07-20T11:36:57Z</time>
      </trkpt>
      <trkpt lat="48.67083" lon="6.18664">
        <ele>240</ele>
        <time>2013-07-20T11:36:59Z</time>
      </trkpt>
      <trkpt lat="48.67091" lon="6.18653">
        <ele>239</ele>
        <time>2013-07-20T11:37:01Z</time>
      </trkpt>
      <trkpt lat="48.671" lon="6.18641">
        <ele>240</ele>
        <time>2013-07-20T11:37:03Z</time>
      </trkpt>
      <trkpt lat="48.67109" lon="6.1863">
        <ele>239</ele>
        <time>2013-07-20T11:37:05Z</time>
      </trkpt>
      <trkpt lat="48.67117" lon="6.18619">
        <ele>240</ele>
        <time>2013-07-20T11:37:07Z</time>
      </trkpt>
      <trkpt lat="48.67126" lon="6.18609">
        <ele>239</ele>
        <time>2013-07-20T11:37:09Z</time>
      </trkpt>
      <trkpt lat="48.67134" lon="6.18599">
        <ele>241</ele>
        <time>2013-07-20T11:37:11Z</time>
      </trkpt>
      <trkpt lat="48.67143" lon="6.18588">
        <ele>246</ele>
        <time>2013-07-20T11:37:13Z</time>
      </trkpt>
      <trkpt lat="48.67151" lon="6.18576">
        <ele>240</ele>
        <time>2013-07-20T11:37:15Z</time>
      </trkpt>
      <trkpt lat="48.6716" lon="6.18565">
        <ele>236</ele>
        <time>2013-07-20T11:37:17Z</time>
      </trkpt>
      <trkpt lat="48.67169" lon="6.18552">
        <ele>236</ele>
        <time>2013-07-20T11:37:19Z</time>
      </trkpt>
      <trkpt lat="48.67179" lon="6.18539">
        <ele>238</ele>
        <time>2013-07-20T11:37:21Z</time>
      </trkpt>
      <trkpt lat="48.67221" lon="6.18487">
        <ele>227</ele>
        <time>2013-07-20T11:37:28Z</time>
      </trkpt>
      <trkpt lat="48.67226" lon="6.18481">
        <ele>227</ele>
        <time>2013-07-20T11:37:29Z</time>
      </trkpt>
      <trkpt lat="48.67236" lon="6.1847">
        <ele>228</ele>
        <time>2013-07-20T11:37:31Z</time>
      </trkpt>
      <trkpt lat="48.6724" lon="6.18464">
        <ele>228</ele>
        <time>2013-07-20T11:37:32Z</time>
      </trkpt>
      <trkpt lat="48.67256" lon="6.18445">
        <ele>227</ele>
        <time>2013-07-20T11:37:35Z</time>
      </trkpt>
      <trkpt lat="48.67267" lon="6.18431">
        <ele>225</ele>
        <time>2013-07-20T11:37:37Z</time>
      </trkpt>
      <trkpt lat="48.67276" lon="6.18419">
        <ele>229</ele>
        <time>2013-07-20T11:37:39Z</time>
      </trkpt>
      <trkpt lat="48.67286" lon="6.18407">
        <ele>226</ele>
        <time>2013-07-20T11:37:41Z</time>
      </trkpt>
      <trkpt lat="48.67295" lon="6.18393">
        <ele>229</ele>
        <time>2013-07-20T11:37:42Z</time>
      </trkpt>
      <trkpt lat="48.67304" lon="6.18381">
        <ele>233</ele>
        <time>2013-07-20T11:37:45Z</time>
      </trkpt>
      <trkpt lat="48.67314" lon="6.18368">
        <ele>234</ele>
        <time>2013-07-20T11:37:47Z</time>
      </trkpt>
      <trkpt lat="48.67325" lon="6.18355">
        <ele>230</ele>
        <time>2013-07-20T11:37:49Z</time>
      </trkpt>
      <trkpt lat="48.67335" lon="6.18343">
        <ele>230</ele>
        <time>2013-07-20T11:37:51Z</time>
      </trkpt>
      <trkpt lat="48.67342" lon="6.18331">
        <ele>229</ele>
        <time>2013-07-20T11:37:53Z</time>
      </trkpt>
      <trkpt lat="48.67345" lon="6.18318">
        <ele>227</ele>
        <time>2013-07-20T11:37:54Z</time>
      </trkpt>
      <trkpt lat="48.67336" lon="6.18293">
        <ele>226</ele>
        <time>2013-07-20T11:37:59Z</time>
      </trkpt>
      <trkpt lat="48.6733" lon="6.18283">
        <ele>228</ele>
        <time>2013-07-20T11:38:01Z</time>
      </trkpt>
      <trkpt lat="48.67323" lon="6.18274">
        <ele>228</ele>
        <time>2013-07-20T11:38:03Z</time>
      </trkpt>
      <trkpt lat="48.67313" lon="6.18263">
        <ele>226</ele>
        <time>2013-07-20T11:38:05Z</time>
      </trkpt>
      <trkpt lat="48.67304" lon="6.18253">
        <ele>225</ele>
        <time>2013-07-20T11:38:07Z</time>
      </trkpt>
      <trkpt lat="48.67294" lon="6.18242">
        <ele>225</ele>
        <time>2013-07-20T11:38:08Z</time>
      </trkpt>
      <trkpt lat="48.67286" lon="6.18232">
        <ele>227</ele>
        <time>2013-07-20T11:38:11Z</time>
      </trkpt>
      <trkpt lat="48.67277" lon="6.18221">
        <ele>227</ele>
        <time>2013-07-20T11:38:13Z</time>
      </trkpt>
      <trkpt lat="48.67268" lon="6.1821">
        <ele>226</ele>
        <time>2013-07-20T11:38:15Z</time>
      </trkpt>
      <trkpt lat="48.6726" lon="6.18198">
        <ele>226</ele>
        <time>2013-07-20T11:38:17Z</time>
      </trkpt>
      <trkpt lat="48.67253" lon="6.18186">
        <ele>226</ele>
        <time>2013-07-20T11:38:19Z</time>
      </trkpt>
      <trkpt lat="48.67244" lon="6.18175">
        <ele>226</ele>
        <time>2013-07-20T11:38:21Z</time>
      </trkpt>
      <trkpt lat="48.67237" lon="6.18163">
        <ele>226</ele>
        <time>2013-07-20T11:38:23Z</time>
      </trkpt>
      <trkpt lat="48.67229" lon="6.18151">
        <ele>227</ele>
        <time>2013-07-20T11:38:25Z</time>
      </trkpt>
      <trkpt lat="48.6722" lon="6.18141">
        <ele>227</ele>
        <time>2013-07-20T11:38:27Z</time>
      </trkpt>
      <trkpt lat="48.67211" lon="6.1813">
        <ele>227</ele>
        <time>2013-07-20T11:38:29Z</time>
      </trkpt>
      <trkpt lat="48.67203" lon="6.18119">
        <ele>228</ele>
        <time>2013-07-20T11:38:31Z</time>
      </trkpt>
      <trkpt lat="48.67196" lon="6.18108">
        <ele>229</ele>
        <time>2013-07-20T11:38:33Z</time>
      </trkpt>
      <trkpt lat="48.67188" lon="6.18097">
        <ele>229</ele>
        <time>2013-07-20T11:38:35Z</time>
      </trkpt>
      <trkpt lat="48.67181" lon="6.18085">
        <ele>230</ele>
        <time>2013-07-20T11:38:37Z</time>
      </trkpt>
      <trkpt lat="48.67173" lon="6.18076">
        <ele>230</ele>
        <time>2013-07-20T11:38:39Z</time>
      </trkpt>
      <trkpt lat="48.67165" lon="6.18065">
        <ele>231</ele>
        <time>2013-07-20T11:38:41Z</time>
      </trkpt>
      <trkpt lat="48.67158" lon="6.18054">
        <ele>234</ele>
        <time>2013-07-20T11:38:43Z</time>
      </trkpt>
      <trkpt lat="48.67149" lon="6.18042">
        <ele>235</ele>
        <time>2013-07-20T11:38:45Z</time>
      </trkpt>
      <trkpt lat="48.67141" lon="6.18029">
        <ele>234</ele>
        <time>2013-07-20T11:38:47Z</time>
      </trkpt>
      <trkpt lat="48.67132" lon="6.1802">
        <ele>234</ele>
        <time>2013-07-20T11:38:49Z</time>
      </trkpt>
      <trkpt lat="48.67123" lon="6.18008">
        <ele>234</ele>
        <time>2013-07-20T11:38:51Z</time>
      </trkpt>
      <trkpt lat="48.67115" lon="6.17995">
        <ele>232</ele>
        <time>2013-07-20T11:38:53Z</time>
      </trkpt>
      <trkpt lat="48.67107" lon="6.17984">
        <ele>233</ele>
        <time>2013-07-20T11:38:55Z</time>
      </trkpt>
      <trkpt lat="48.671" lon="6.17972">
        <ele>234</ele>
        <time>2013-07-20T11:38:57Z</time>
      </trkpt>
      <trkpt lat="48.67092" lon="6.1796">
        <ele>233</ele>
        <time>2013-07-20T11:38:59Z</time>
      </trkpt>
      <trkpt lat="48.67083" lon="6.17945">
        <ele>233</ele>
        <time>2013-07-20T11:39:01Z</time>
      </trkpt>
      <trkpt lat="48.67075" lon="6.17931">
        <ele>233</ele>
        <time>2013-07-20T11:39:03Z</time>
      </trkpt>
      <trkpt lat="48.67068" lon="6.17916">
        <ele>233</ele>
        <time>2013-07-20T11:39:05Z</time>
      </trkpt>
      <trkpt lat="48.6706" lon="6.17902">
        <ele>232</ele>
        <time>2013-07-20T11:39:07Z</time>
      </trkpt>
      <trkpt lat="48.67062" lon="6.17884">
        <ele>231</ele>
        <time>2013-07-20T11:39:09Z</time>
      </trkpt>
      <trkpt lat="48.6707" lon="6.17871">
        <ele>232</ele>
        <time>2013-07-20T11:39:11Z</time>
      </trkpt>
      <trkpt lat="48.6708" lon="6.17862">
        <ele>234</ele>
        <time>2013-07-20T11:39:13Z</time>
      </trkpt>
      <trkpt lat="48.67091" lon="6.17853">
        <ele>234</ele>
        <time>2013-07-20T11:39:15Z</time>
      </trkpt>
      <trkpt lat="48.67102" lon="6.17843">
        <ele>234</ele>
        <time>2013-07-20T11:39:17Z</time>
      </trkpt>
      <trkpt lat="48.67113" lon="6.17834">
        <ele>237</ele>
        <time>2013-07-20T11:39:19Z</time>
      </trkpt>
      <trkpt lat="48.67125" lon="6.17824">
        <ele>237</ele>
        <time>2013-07-20T11:39:21Z</time>
      </trkpt>
      <trkpt lat="48.67137" lon="6.17814">
        <ele>238</ele>
        <time>2013-07-20T11:39:23Z</time>
      </trkpt>
      <trkpt lat="48.67149" lon="6.17803">
        <ele>240</ele>
        <time>2013-07-20T11:39:25Z</time>
      </trkpt>
      <trkpt lat="48.6716" lon="6.17793">
        <ele>241</ele>
        <time>2013-07-20T11:39:27Z</time>
      </trkpt>
      <trkpt lat="48.67173" lon="6.17782">
        <ele>243</ele>
        <time>2013-07-20T11:39:29Z</time>
      </trkpt>
      <trkpt lat="48.67184" lon="6.17771">
        <ele>245</ele>
        <time>2013-07-20T11:39:31Z</time>
      </trkpt>
      <trkpt lat="48.67198" lon="6.1776">
        <ele>243</ele>
        <time>2013-07-20T11:39:33Z</time>
      </trkpt>
      <trkpt lat="48.67212" lon="6.17748">
        <ele>240</ele>
        <time>2013-07-20T11:39:35Z</time>
      </trkpt>
      <trkpt lat="48.67225" lon="6.17735">
        <ele>243</ele>
        <time>2013-07-20T11:39:37Z</time>
      </trkpt>
      <trkpt lat="48.67237" lon="6.17723">
        <ele>241</ele>
        <time>2013-07-20T11:39:39Z</time>
      </trkpt>
      <trkpt lat="48.67249" lon="6.1771">
        <ele>237</ele>
        <time>2013-07-20T11:39:41Z</time>
      </trkpt>
      <trkpt lat="48.6726" lon="6.17697">
        <ele>238</ele>
        <time>2013-07-20T11:39:42Z</time>
      </trkpt>
      <trkpt lat="48.67268" lon="6.1768">
        <ele>237</ele>
        <time>2013-07-20T11:39:45Z</time>
      </trkpt>
      <trkpt lat="48.67273" lon="6.17664">
        <ele>236</ele>
        <time>2013-07-20T11:39:47Z</time>
      </trkpt>
      <trkpt lat="48.67278" lon="6.17648">
        <ele>237</ele>
        <time>2013-07-20T11:39:49Z</time>
      </trkpt>
      <trkpt lat="48.67283" lon="6.17632">
        <ele>235</ele>
        <time>2013-07-20T11:39:51Z</time>
      </trkpt>
      <trkpt lat="48.67287" lon="6.17618">
        <ele>236</ele>
        <time>2013-07-20T11:39:53Z</time>
      </trkpt>
      <trkpt lat="48.67291" lon="6.17605">
        <ele>235</ele>
        <time>2013-07-20T11:39:55Z</time>
      </trkpt>
      <trkpt lat="48.67295" lon="6.17592">
        <ele>236</ele>
        <time>2013-07-20T11:39:57Z</time>
      </trkpt>
      <trkpt lat="48.67299" lon="6.1758">
        <ele>241</ele>
        <time>2013-07-20T11:39:59Z</time>
      </trkpt>
      <trkpt lat="48.67303" lon="6.17565">
        <ele>241</ele>
        <time>2013-07-20T11:40:00Z</time>
      </trkpt>
      <trkpt lat="48.67307" lon="6.17549">
        <ele>243</ele>
        <time>2013-07-20T11:40:03Z</time>
      </trkpt>
      <trkpt lat="48.67312" lon="6.17529">
        <ele>247</ele>
        <time>2013-07-20T11:40:05Z</time>
      </trkpt>
      <trkpt lat="48.67318" lon="6.17513">
        <ele>252</ele>
        <time>2013-07-20T11:40:07Z</time>
      </trkpt>
      <trkpt lat="48.67323" lon="6.17497">
        <ele>253</ele>
        <time>2013-07-20T11:40:09Z</time>
      </trkpt>
      <trkpt lat="48.67328" lon="6.1748">
        <ele>256</ele>
        <time>2013-07-20T11:40:11Z</time>
      </trkpt>
      <trkpt lat="48.67333" lon="6.17463">
        <ele>254</ele>
        <time>2013-07-20T11:40:13Z</time>
      </trkpt>
      <trkpt lat="48.67338" lon="6.17444">
        <ele>251</ele>
        <time>2013-07-20T11:40:15Z</time>
      </trkpt>
      <trkpt lat="48.67341" lon="6.17422">
        <ele>250</ele>
        <time>2013-07-20T11:40:17Z</time>
      </trkpt>
      <trkpt lat="48.67341" lon="6.17403">
        <ele>244</ele>
        <time>2013-07-20T11:40:18Z</time>
      </trkpt>
      <trkpt lat="48.67345" lon="6.17387">
        <ele>243</ele>
        <time>2013-07-20T11:40:21Z</time>
      </trkpt>
      <trkpt lat="48.6735" lon="6.17371">
        <ele>246</ele>
        <time>2013-07-20T11:40:23Z</time>
      </trkpt>
      <trkpt lat="48.67355" lon="6.17356">
        <ele>253</ele>
        <time>2013-07-20T11:40:25Z</time>
      </trkpt>
      <trkpt lat="48.67364" lon="6.17342">
        <ele>251</ele>
        <time>2013-07-20T11:40:27Z</time>
      </trkpt>
      <trkpt lat="48.67373" lon="6.1733">
        <ele>253</ele>
        <time>2013-07-20T11:40:29Z</time>
      </trkpt>
      <trkpt lat="48.67382" lon="6.17319">
        <ele>255</ele>
        <time>2013-07-20T11:40:31Z</time>
      </trkpt>
      <trkpt lat="48.67394" lon="6.17309">
        <ele>258</ele>
        <time>2013-07-20T11:40:33Z</time>
      </trkpt>
      <trkpt lat="48.67404" lon="6.17299">
        <ele>259</ele>
        <time>2013-07-20T11:40:35Z</time>
      </trkpt>
      <trkpt lat="48.67415" lon="6.17288">
        <ele>258</ele>
        <time>2013-07-20T11:40:37Z</time>
      </trkpt>
      <trkpt lat="48.67426" lon="6.17278">
        <ele>261</ele>
        <time>2013-07-20T11:40:39Z</time>
      </trkpt>
      <trkpt lat="48.67438" lon="6.17268">
        <ele>264</ele>
        <time>2013-07-20T11:40:41Z</time>
      </trkpt>
      <trkpt lat="48.6745" lon="6.17257">
        <ele>264</ele>
        <time>2013-07-20T11:40:43Z</time>
      </trkpt>
      <trkpt lat="48.67461" lon="6.17246">
        <ele>267</ele>
        <time>2013-07-20T11:40:44Z</time>
      </trkpt>
      <trkpt lat="48.67472" lon="6.17234">
        <ele>270</ele>
        <time>2013-07-20T11:40:46Z</time>
      </trkpt>
      <trkpt lat="48.67486" lon="6.17226">
        <ele>254</ele>
        <time>2013-07-20T11:40:49Z</time>
      </trkpt>
      <trkpt lat="48.67503" lon="6.17218">
        <ele>249</ele>
        <time>2013-07-20T11:40:51Z</time>
      </trkpt>
      <trkpt lat="48.67517" lon="6.17211">
        <ele>249</ele>
        <time>2013-07-20T11:40:53Z</time>
      </trkpt>
      <trkpt lat="48.6753" lon="6.17202">
        <ele>248</ele>
        <time>2013-07-20T11:40:55Z</time>
      </trkpt>
      <trkpt lat="48.67543" lon="6.17194">
        <ele>248</ele>
        <time>2013-07-20T11:40:57Z</time>
      </trkpt>
      <trkpt lat="48.67556" lon="6.17185">
        <ele>246</ele>
        <time>2013-07-20T11:40:59Z</time>
      </trkpt>
      <trkpt lat="48.67568" lon="6.17176">
        <ele>245</ele>
        <time>2013-07-20T11:41:01Z</time>
      </trkpt>
      <trkpt lat="48.6758" lon="6.17168">
        <ele>245</ele>
        <time>2013-07-20T11:41:03Z</time>
      </trkpt>
      <trkpt lat="48.67591" lon="6.1716">
        <ele>246</ele>
        <time>2013-07-20T11:41:05Z</time>
      </trkpt>
      <trkpt lat="48.67613" lon="6.17142">
        <ele>246</ele>
        <time>2013-07-20T11:41:09Z</time>
      </trkpt>
      <trkpt lat="48.67624" lon="6.17134">
        <ele>247</ele>
        <time>2013-07-20T11:41:11Z</time>
      </trkpt>
      <trkpt lat="48.67635" lon="6.17126">
        <ele>244</ele>
        <time>2013-07-20T11:41:13Z</time>
      </trkpt>
      <trkpt lat="48.67646" lon="6.17119">
        <ele>243</ele>
        <time>2013-07-20T11:41:15Z</time>
      </trkpt>
      <trkpt lat="48.67656" lon="6.17112">
        <ele>247</ele>
        <time>2013-07-20T11:41:17Z</time>
      </trkpt>
      <trkpt lat="48.67668" lon="6.17103">
        <ele>248</ele>
        <time>2013-07-20T11:41:19Z</time>
      </trkpt>
      <trkpt lat="48.6768" lon="6.17094">
        <ele>247</ele>
        <time>2013-07-20T11:41:21Z</time>
      </trkpt>
      <trkpt lat="48.67692" lon="6.17085">
        <ele>246</ele>
        <time>2013-07-20T11:41:23Z</time>
      </trkpt>
      <trkpt lat="48.67703" lon="6.17076">
        <ele>246</ele>
        <time>2013-07-20T11:41:25Z</time>
      </trkpt>
      <trkpt lat="48.67715" lon="6.17068">
        <ele>247</ele>
        <time>2013-07-20T11:41:27Z</time>
      </trkpt>
      <trkpt lat="48.67728" lon="6.17058">
        <ele>241</ele>
        <time>2013-07-20T11:41:29Z</time>
      </trkpt>
      <trkpt lat="48.67741" lon="6.17048">
        <ele>239</ele>
        <time>2013-07-20T11:41:31Z</time>
      </trkpt>
      <trkpt lat="48.67754" lon="6.17038">
        <ele>236</ele>
        <time>2013-07-20T11:41:33Z</time>
      </trkpt>
      <trkpt lat="48.67766" lon="6.17029">
        <ele>238</ele>
        <time>2013-07-20T11:41:34Z</time>
      </trkpt>
      <trkpt lat="48.67777" lon="6.1702">
        <ele>236</ele>
        <time>2013-07-20T11:41:37Z</time>
      </trkpt>
      <trkpt lat="48.67788" lon="6.17011">
        <ele>237</ele>
        <time>2013-07-20T11:41:39Z</time>
      </trkpt>
      <trkpt lat="48.67798" lon="6.17003">
        <ele>237</ele>
        <time>2013-07-20T11:41:41Z</time>
      </trkpt>
      <trkpt lat="48.67808" lon="6.16994">
        <ele>238</ele>
        <time>2013-07-20T11:41:43Z</time>
      </trkpt>
      <trkpt lat="48.67819" lon="6.16986">
        <ele>239</ele>
        <time>2013-07-20T11:41:45Z</time>
      </trkpt>
      <trkpt lat="48.6783" lon="6.16975">
        <ele>235</ele>
        <time>2013-07-20T11:41:47Z</time>
      </trkpt>
      <trkpt lat="48.67832" lon="6.16959">
        <ele>234</ele>
        <time>2013-07-20T11:41:49Z</time>
      </trkpt>
      <trkpt lat="48.6783" lon="6.16945">
        <ele>234</ele>
        <time>2013-07-20T11:41:51Z</time>
      </trkpt>
      <trkpt lat="48.67825" lon="6.16931">
        <ele>233</ele>
        <time>2013-07-20T11:41:53Z</time>
      </trkpt>
      <trkpt lat="48.6782" lon="6.16918">
        <ele>234</ele>
        <time>2013-07-20T11:41:55Z</time>
      </trkpt>
      <trkpt lat="48.67815" lon="6.16905">
        <ele>231</ele>
        <time>2013-07-20T11:41:57Z</time>
      </trkpt>
      <trkpt lat="48.67812" lon="6.16893">
        <ele>230</ele>
        <time>2013-07-20T11:41:59Z</time>
      </trkpt>
      <trkpt lat="48.67809" lon="6.16883">
        <ele>231</ele>
        <time>2013-07-20T11:42:01Z</time>
      </trkpt>
      <trkpt lat="48.67806" lon="6.16872">
        <ele>230</ele>
        <time>2013-07-20T11:42:03Z</time>
      </trkpt>
      <trkpt lat="48.67804" lon="6.16862">
        <ele>230</ele>
        <time>2013-07-20T11:42:05Z</time>
      </trkpt>
      <trkpt lat="48.67801" lon="6.16852">
        <ele>231</ele>
        <time>2013-07-20T11:42:07Z</time>
      </trkpt>
      <trkpt lat="48.67799" lon="6.16842">
        <ele>232</ele>
        <time>2013-07-20T11:42:09Z</time>
      </trkpt>
      <trkpt lat="48.67799" lon="6.16833">
        <ele>232</ele>
        <time>2013-07-20T11:42:11Z</time>
      </trkpt>
      <trkpt lat="48.67803" lon="6.16827">
        <ele>231</ele>
        <time>2013-07-20T11:42:13Z</time>
      </trkpt>
      <trkpt lat="48.67809" lon="6.16822">
        <ele>230</ele>
        <time>2013-07-20T11:42:15Z</time>
      </trkpt>
      <trkpt lat="48.67814" lon="6.16817">
        <ele>230</ele>
        <time>2013-07-20T11:42:17Z</time>
      </trkpt>
      <trkpt lat="48.6782" lon="6.16811">
        <ele>230</ele>
        <time>2013-07-20T11:42:19Z</time>
      </trkpt>
      <trkpt lat="48.67823" lon="6.16808">
        <ele>231</ele>
        <time>2013-07-20T11:42:20Z</time>
      </trkpt>
      <trkpt lat="48.67827" lon="6.16805">
        <ele>232</ele>
        <time>2013-07-20T11:42:21Z</time>
      </trkpt>
      <trkpt lat="48.67833" lon="6.16799">
        <ele>235</ele>
        <time>2013-07-20T11:42:23Z</time>
      </trkpt>
      <trkpt lat="48.6784" lon="6.16793">
        <ele>236</ele>
        <time>2013-07-20T11:42:24Z</time>
      </trkpt>
      <trkpt lat="48.67847" lon="6.16786">
        <ele>235</ele>
        <time>2013-07-20T11:42:27Z</time>
      </trkpt>
      <trkpt lat="48.67856" lon="6.1678">
        <ele>235</ele>
        <time>2013-07-20T11:42:29Z</time>
      </trkpt>
      <trkpt lat="48.67865" lon="6.16775">
        <ele>237</ele>
        <time>2013-07-20T11:42:31Z</time>
      </trkpt>
      <trkpt lat="48.67873" lon="6.16769">
        <ele>237</ele>
        <time>2013-07-20T11:42:33Z</time>
      </trkpt>
      <trkpt lat="48.6788" lon="6.16763">
        <ele>239</ele>
        <time>2013-07-20T11:42:35Z</time>
      </trkpt>
      <trkpt lat="48.67888" lon="6.16757">
        <ele>239</ele>
        <time>2013-07-20T11:42:37Z</time>
      </trkpt>
      <trkpt lat="48.67895" lon="6.16751">
        <ele>239</ele>
        <time>2013-07-20T11:42:39Z</time>
      </trkpt>
      <trkpt lat="48.67902" lon="6.16745">
        <ele>236</ele>
        <time>2013-07-20T11:42:41Z</time>
      </trkpt>
      <trkpt lat="48.67911" lon="6.16739">
        <ele>235</ele>
        <time>2013-07-20T11:42:43Z</time>
      </trkpt>
      <trkpt lat="48.6792" lon="6.16732">
        <ele>234</ele>
        <time>2013-07-20T11:42:45Z</time>
      </trkpt>
      <trkpt lat="48.67929" lon="6.16725">
        <ele>234</ele>
        <time>2013-07-20T11:42:47Z</time>
      </trkpt>
      <trkpt lat="48.67937" lon="6.16719">
        <ele>234</ele>
        <time>2013-07-20T11:42:49Z</time>
      </trkpt>
      <trkpt lat="48.67946" lon="6.16713">
        <ele>235</ele>
        <time>2013-07-20T11:42:51Z</time>
      </trkpt>
      <trkpt lat="48.67954" lon="6.16707">
        <ele>234</ele>
        <time>2013-07-20T11:42:53Z</time>
      </trkpt>
      <trkpt lat="48.67962" lon="6.16701">
        <ele>234</ele>
        <time>2013-07-20T11:42:55Z</time>
      </trkpt>
      <trkpt lat="48.6797" lon="6.16696">
        <ele>234</ele>
        <time>2013-07-20T11:42:57Z</time>
      </trkpt>
      <trkpt lat="48.67978" lon="6.1669">
        <ele>235</ele>
        <time>2013-07-20T11:42:59Z</time>
      </trkpt>
      <trkpt lat="48.67984" lon="6.16685">
        <ele>234</ele>
        <time>2013-07-20T11:43:01Z</time>
      </trkpt>
      <trkpt lat="48.67991" lon="6.16681">
        <ele>234</ele>
        <time>2013-07-20T11:43:03Z</time>
      </trkpt>
      <trkpt lat="48.67999" lon="6.16677">
        <ele>238</ele>
        <time>2013-07-20T11:43:05Z</time>
      </trkpt>
      <trkpt lat="48.68007" lon="6.16671">
        <ele>239</ele>
        <time>2013-07-20T11:43:07Z</time>
      </trkpt>
      <trkpt lat="48.68016" lon="6.16665">
        <ele>240</ele>
        <time>2013-07-20T11:43:09Z</time>
      </trkpt>
      <trkpt lat="48.68025" lon="6.1666">
        <ele>245</ele>
        <time>2013-07-20T11:43:11Z</time>
      </trkpt>
      <trkpt lat="48.68035" lon="6.16654">
        <ele>243</ele>
        <time>2013-07-20T11:43:13Z</time>
      </trkpt>
      <trkpt lat="48.6804" lon="6.16651">
        <ele>243</ele>
        <time>2013-07-20T11:43:14Z</time>
      </trkpt>
      <trkpt lat="48.68046" lon="6.16648">
        <ele>243</ele>
        <time>2013-07-20T11:43:15Z</time>
      </trkpt>
      <trkpt lat="48.68057" lon="6.16643">
        <ele>244</ele>
        <time>2013-07-20T11:43:17Z</time>
      </trkpt>
      <trkpt lat="48.68068" lon="6.16638">
        <ele>247</ele>
        <time>2013-07-20T11:43:19Z</time>
      </trkpt>
      <trkpt lat="48.68078" lon="6.16632">
        <ele>243</ele>
        <time>2013-07-20T11:43:21Z</time>
      </trkpt>
      <trkpt lat="48.68102" lon="6.16626">
        <ele>238</ele>
        <time>2013-07-20T11:43:25Z</time>
      </trkpt>
      <trkpt lat="48.68113" lon="6.16623">
        <ele>236</ele>
        <time>2013-07-20T11:43:27Z</time>
      </trkpt>
      <trkpt lat="48.68118" lon="6.16618">
        <ele>236</ele>
        <time>2013-07-20T11:43:29Z</time>
      </trkpt>
      <trkpt lat="48.68123" lon="6.16611">
        <ele>236</ele>
        <time>2013-07-20T11:43:31Z</time>
      </trkpt>
      <trkpt lat="48.68137" lon="6.16606">
        <ele>235</ele>
        <time>2013-07-20T11:43:33Z</time>
      </trkpt>
      <trkpt lat="48.68152" lon="6.16602">
        <ele>237</ele>
        <time>2013-07-20T11:43:35Z</time>
      </trkpt>
      <trkpt lat="48.68166" lon="6.16597">
        <ele>239</ele>
        <time>2013-07-20T11:43:37Z</time>
      </trkpt>
      <trkpt lat="48.68183" lon="6.16592">
        <ele>240</ele>
        <time>2013-07-20T11:43:39Z</time>
      </trkpt>
      <trkpt lat="48.68197" lon="6.16588">
        <ele>240</ele>
        <time>2013-07-20T11:43:41Z</time>
      </trkpt>
      <trkpt lat="48.68208" lon="6.16584">
        <ele>240</ele>
        <time>2013-07-20T11:43:43Z</time>
      </trkpt>
      <trkpt lat="48.68216" lon="6.16582">
        <ele>227</ele>
        <time>2013-07-20T11:43:45Z</time>
      </trkpt>
      <trkpt lat="48.68219" lon="6.16575">
        <ele>228</ele>
        <time>2013-07-20T11:43:46Z</time>
      </trkpt>
      <trkpt lat="48.68222" lon="6.16565">
        <ele>228</ele>
        <time>2013-07-20T11:43:49Z</time>
      </trkpt>
      <trkpt lat="48.68222" lon="6.16552">
        <ele>227</ele>
        <time>2013-07-20T11:43:51Z</time>
      </trkpt>
      <trkpt lat="48.6822" lon="6.16537">
        <ele>232</ele>
        <time>2013-07-20T11:43:53Z</time>
      </trkpt>
      <trkpt lat="48.68217" lon="6.16529">
        <ele>233</ele>
        <time>2013-07-20T11:43:54Z</time>
      </trkpt>
      <trkpt lat="48.68214" lon="6.1652">
        <ele>231</ele>
        <time>2013-07-20T11:43:55Z</time>
      </trkpt>
      <trkpt lat="48.68211" lon="6.16505">
        <ele>232</ele>
        <time>2013-07-20T11:43:57Z</time>
      </trkpt>
      <trkpt lat="48.6821" lon="6.16489">
        <ele>232</ele>
        <time>2013-07-20T11:43:58Z</time>
      </trkpt>
      <trkpt lat="48.68208" lon="6.16472">
        <ele>232</ele>
        <time>2013-07-20T11:44:00Z</time>
      </trkpt>
      <trkpt lat="48.68207" lon="6.16454">
        <ele>232</ele>
        <time>2013-07-20T11:44:03Z</time>
      </trkpt>
      <trkpt lat="48.68204" lon="6.16436">
        <ele>234</ele>
        <time>2013-07-20T11:44:05Z</time>
      </trkpt>
      <trkpt lat="48.68201" lon="6.16418">
        <ele>233</ele>
        <time>2013-07-20T11:44:07Z</time>
      </trkpt>
      <trkpt lat="48.68195" lon="6.164">
        <ele>234</ele>
        <time>2013-07-20T11:44:09Z</time>
      </trkpt>
      <trkpt lat="48.68192" lon="6.16382">
        <ele>234</ele>
        <time>2013-07-20T11:44:11Z</time>
      </trkpt>
      <trkpt lat="48.68189" lon="6.16363">
        <ele>234</ele>
        <time>2013-07-20T11:44:13Z</time>
      </trkpt>
      <trkpt lat="48.68185" lon="6.16341">
        <ele>234</ele>
        <time>2013-07-20T11:44:15Z</time>
      </trkpt>
      <trkpt lat="48.68182" lon="6.16319">
        <ele>235</ele>
        <time>2013-07-20T11:44:17Z</time>
      </trkpt>
      <trkpt lat="48.6818" lon="6.163">
        <ele>235</ele>
        <time>2013-07-20T11:44:19Z</time>
      </trkpt>
      <trkpt lat="48.68178" lon="6.16282">
        <ele>233</ele>
        <time>2013-07-20T11:44:21Z</time>
      </trkpt>
      <trkpt lat="48.68182" lon="6.16267">
        <ele>233</ele>
        <time>2013-07-20T11:44:23Z</time>
      </trkpt>
      <trkpt lat="48.68193" lon="6.16257">
        <ele>234</ele>
        <time>2013-07-20T11:44:25Z</time>
      </trkpt>
      <trkpt lat="48.68203" lon="6.16249">
        <ele>233</ele>
        <time>2013-07-20T11:44:27Z</time>
      </trkpt>
      <trkpt lat="48.68215" lon="6.16244">
        <ele>237</ele>
        <time>2013-07-20T11:44:29Z</time>
      </trkpt>
      <trkpt lat="48.68229" lon="6.1624">
        <ele>240</ele>
        <time>2013-07-20T11:44:31Z</time>
      </trkpt>
      <trkpt lat="48.68244" lon="6.16234">
        <ele>240</ele>
        <time>2013-07-20T11:44:33Z</time>
      </trkpt>
      <trkpt lat="48.68277" lon="6.16221">
        <ele>238</ele>
        <time>2013-07-20T11:44:37Z</time>
      </trkpt>
      <trkpt lat="48.68293" lon="6.16215">
        <ele>237</ele>
        <time>2013-07-20T11:44:39Z</time>
      </trkpt>
      <trkpt lat="48.68311" lon="6.16209">
        <ele>236</ele>
        <time>2013-07-20T11:44:41Z</time>
      </trkpt>
      <trkpt lat="48.68327" lon="6.16202">
        <ele>231</ele>
        <time>2013-07-20T11:44:43Z</time>
      </trkpt>
      <trkpt lat="48.68343" lon="6.16196">
        <ele>230</ele>
        <time>2013-07-20T11:44:45Z</time>
      </trkpt>
      <trkpt lat="48.68356" lon="6.16189">
        <ele>230</ele>
        <time>2013-07-20T11:44:47Z</time>
      </trkpt>
      <trkpt lat="48.6837" lon="6.16183">
        <ele>232</ele>
        <time>2013-07-20T11:44:49Z</time>
      </trkpt>
      <trkpt lat="48.68385" lon="6.16179">
        <ele>234</ele>
        <time>2013-07-20T11:44:51Z</time>
      </trkpt>
      <trkpt lat="48.68399" lon="6.16175">
        <ele>235</ele>
        <time>2013-07-20T11:44:53Z</time>
      </trkpt>
      <trkpt lat="48.68411" lon="6.16171">
        <ele>236</ele>
        <time>2013-07-20T11:44:55Z</time>
      </trkpt>
      <trkpt lat="48.68421" lon="6.16166">
        <ele>237</ele>
        <time>2013-07-20T11:44:57Z</time>
      </trkpt>
      <trkpt lat="48.68433" lon="6.16161">
        <ele>236</ele>
        <time>2013-07-20T11:44:59Z</time>
      </trkpt>
      <trkpt lat="48.68443" lon="6.16156">
        <ele>236</ele>
        <time>2013-07-20T11:45:01Z</time>
      </trkpt>
      <trkpt lat="48.68448" lon="6.16153">
        <ele>239</ele>
        <time>2013-07-20T11:45:02Z</time>
      </trkpt>
      <trkpt lat="48.68453" lon="6.16152">
        <ele>239</ele>
        <time>2013-07-20T11:45:03Z</time>
      </trkpt>
      <trkpt lat="48.68463" lon="6.16148">
        <ele>237</ele>
        <time>2013-07-20T11:45:05Z</time>
      </trkpt>
      <trkpt lat="48.68472" lon="6.16144">
        <ele>237</ele>
        <time>2013-07-20T11:45:07Z</time>
      </trkpt>
      <trkpt lat="48.68482" lon="6.1614">
        <ele>235</ele>
        <time>2013-07-20T11:45:09Z</time>
      </trkpt>
      <trkpt lat="48.68492" lon="6.16136">
        <ele>237</ele>
        <time>2013-07-20T11:45:11Z</time>
      </trkpt>
      <trkpt lat="48.68502" lon="6.16132">
        <ele>239</ele>
        <time>2013-07-20T11:45:13Z</time>
      </trkpt>
      <trkpt lat="48.68511" lon="6.16127">
        <ele>236</ele>
        <time>2013-07-20T11:45:15Z</time>
      </trkpt>
      <trkpt lat="48.68517" lon="6.16114">
        <ele>238</ele>
        <time>2013-07-20T11:45:17Z</time>
      </trkpt>
      <trkpt lat="48.68516" lon="6.16102">
        <ele>237</ele>
        <time>2013-07-20T11:45:19Z</time>
      </trkpt>
      <trkpt lat="48.68515" lon="6.16088">
        <ele>231</ele>
        <time>2013-07-20T11:45:21Z</time>
      </trkpt>
      <trkpt lat="48.68514" lon="6.1607">
        <ele>228</ele>
        <time>2013-07-20T11:45:23Z</time>
      </trkpt>
      <trkpt lat="48.68512" lon="6.1605">
        <ele>223</ele>
        <time>2013-07-20T11:45:25Z</time>
      </trkpt>
      <trkpt lat="48.6851" lon="6.16032">
        <ele>222</ele>
        <time>2013-07-20T11:45:27Z</time>
      </trkpt>
      <trkpt lat="48.68508" lon="6.16017">
        <ele>221</ele>
        <time>2013-07-20T11:45:29Z</time>
      </trkpt>
      <trkpt lat="48.6851" lon="6.16004">
        <ele>222</ele>
        <time>2013-07-20T11:45:31Z</time>
      </trkpt>
      <trkpt lat="48.68514" lon="6.15993">
        <ele>222</ele>
        <time>2013-07-20T11:45:33Z</time>
      </trkpt>
      <trkpt lat="48.68519" lon="6.15985">
        <ele>226</ele>
        <time>2013-07-20T11:45:35Z</time>
      </trkpt>
      <trkpt lat="48.68524" lon="6.15978">
        <ele>226</ele>
        <time>2013-07-20T11:45:37Z</time>
      </trkpt>
      <trkpt lat="48.68531" lon="6.15973">
        <ele>225</ele>
        <time>2013-07-20T11:45:39Z</time>
      </trkpt>
    </trkseg>
  </trk>
</gpx>